[[{"header":{"parameterUnit":"m.s-1","parameterCategory":1,"la1":30.6,"la2":29.2853,"lo1":-89.7004,"lo2":-87.6739,"dy":0.0162,"dx":0.0183,"nx":112,"ny":82,"refTime":"2023-05-11T00:00:00:Z","depth":0,"parameterNumber":2,"parameterNumberName":"U-component_of_WINDS"},"data":[0.0,0.0,0.0,0.0,0.0,0.0,0.0,0.0,0.0,0.0,0.0,0.0,0.0,0.0,0.0,0.0,0.0,0.0,0.0,0.0,0.0,0.0,0.0,0.0,0.0,0.0,0.0,0.0,0.0,0.0,0.0,0.0,0.0,0.0,0.0,0.0,0.0,0.0,0.0,0.0,0.0,0.0,0.0,0.0,0.0,0.0,0.0,0.0,0.0,0.0,0.0,0.0,0.0,0.0,0.0,0.0,0.0,0.0,0.0,0.0,0.0,0.0,0.0,0.0,0.0,0.0,0.0,0.0,0.0,0.0,0.0,0.0,0.0,0.0,0.0,0.0,0.0,0.0,0.0,0.0,0.0,0.0,0.0,0.0,0.0,0.0,0.0,0.0,0.0,0.0,-0.9611,-1.1286,-1.303,-1.4305,-1.476,-1.3717,-1.2837,-1.2293,0.0,0.0,0.0,0.0,0.0,0.0,0.0,0.0,0.0,0.0,0.0,0.0,0.0,0.0,0.0,0.0,0.0,0.0,0.0,0.0,0.0,0.0,0.0,0.0,0.0,0.0,0.0,0.0,0.0,0.0,0.0,0.0,0.0,0.0,0.0,0.0,0.0,0.0,0.0,0.0,0.0,0.0,0.0,0.0,0.0,0.0,0.0,0.0,0.0,0.0,0.0,0.0,0.0,0.0,0.0,0.0,0.0,0.0,0.0,0.0,0.0,0.0,0.0,0.0,0.0,0.0,0.0,0.0,0.0,0.0,0.0,0.0,0.0,0.0,0.0,0.0,0.0,0.0,0.0,0.0,0.0,0.0,0.0,0.0,0.0,0.0,0.0,0.0,0.0,0.0,0.0,0.0,0.0,0.0,0.0,0.0,0.0,0.0,0.0,0.0,0.0,0.0,0.0,0.0,-0.9371,-1.1874,-1.3313,-1.427,-1.4673,-1.4116,-1.3397,-1.2584,0.0,0.0,0.0,0.0,0.0,0.0,0.0,0.0,0.0,0.0,0.0,0.0,0.0,0.0,0.0,0.0,0.0,0.0,0.0,0.0,0.0,0.0,0.0,0.0,0.0,0.0,0.0,0.0,0.0,0.0,0.0,0.0,0.0,0.0,0.0,0.0,0.0,0.0,0.0,0.0,0.0,0.0,0.0,0.0,0.0,0.0,0.0,0.0,0.0,0.0,0.0,0.0,0.0,0.0,0.0,0.0,0.0,0.0,0.0,0.0,0.0,0.0,0.0,0.0,0.0,0.0,0.0,0.0,0.0,0.0,0.0,0.0,0.0,0.0,0.0,0.0,0.0,0.0,0.0,0.0,0.0,0.0,0.0,0.0,0.0,0.0,0.0,0.0,0.0,0.0,0.0,0.0,0.0,0.0,0.0,0.0,0.0,0.0,0.0,0.0,0.0,0.0,0.0,-0.9169,-1.0499,-1.2192,-1.3435,-1.4194,-1.4274,-1.3978,-1.337,-1.234,-1.1662,0.0,0.0,0.0,0.0,0.0,0.0,0.0,0.0,0.0,0.0,0.0,0.0,0.0,0.0,0.0,0.0,0.0,0.0,0.0,0.0,0.0,0.0,0.0,0.0,0.0,0.0,0.0,0.0,0.0,0.0,0.0,0.0,0.0,0.0,0.0,0.0,0.0,0.0,0.0,0.0,0.0,0.0,0.0,0.0,0.0,0.0,0.0,0.0,0.0,0.0,0.0,0.0,0.0,0.0,0.0,0.0,0.0,0.0,0.0,0.0,0.0,0.0,0.0,0.0,0.0,0.0,0.0,0.0,0.0,0.0,0.0,0.0,0.0,0.0,0.0,0.0,0.0,0.0,0.0,0.0,0.0,0.0,0.0,0.0,0.0,0.0,0.0,0.0,0.0,0.0,0.0,0.0,0.0,0.0,0.0,0.0,0.0,0.0,0.0,0.0,0.0,0.0,-0.9855,-1.1213,-1.1945,-1.3095,-1.3731,-1.3538,-1.346,-1.2947,-1.1874,-1.1596,0.0,0.0,0.0,0.0,0.0,0.0,0.0,0.0,0.0,0.0,0.0,0.0,0.0,0.0,0.0,0.0,0.0,0.0,0.0,0.0,0.0,0.0,0.0,0.0,0.0,0.0,0.0,0.0,0.0,0.0,0.0,0.0,0.0,0.0,0.0,0.0,0.0,0.0,0.0,0.0,0.0,0.0,0.0,0.0,0.0,0.0,0.0,0.0,0.0,0.0,0.0,0.0,0.0,0.0,0.0,0.0,0.0,0.0,0.0,0.0,0.0,0.0,0.0,0.0,0.0,0.0,0.0,0.0,0.0,0.0,0.0,0.0,0.0,0.0,0.0,0.0,0.0,0.0,0.0,0.0,0.0,0.0,0.0,0.0,0.0,0.0,0.0,0.0,0.0,0.0,0.0,0.0,0.0,0.0,0.0,0.0,0.0,0.0,0.0,0.0,0.0,0.0,-0.9313,-1.0302,-1.0854,-1.1944,-1.2552,-1.2413,-1.2519,-1.2184,-1.1298,-1.1122,0.0,0.0,0.0,0.0,0.0,0.0,0.0,0.0,0.0,0.0,0.0,0.0,0.0,0.0,0.0,0.0,0.0,0.0,0.0,0.0,0.0,0.0,0.0,0.0,0.0,0.0,0.0,0.0,0.0,0.0,0.0,0.0,0.0,0.0,0.0,0.0,0.0,0.0,0.0,0.0,0.0,0.0,0.0,0.0,0.0,0.0,0.0,0.0,0.0,0.0,0.0,0.0,0.0,0.0,0.0,0.0,0.0,0.0,0.0,0.0,0.0,0.0,0.0,0.0,0.0,0.0,0.0,0.0,0.0,0.0,0.0,0.0,0.0,0.0,0.0,0.0,0.0,0.0,0.0,0.0,0.0,0.0,0.0,0.0,0.0,0.0,0.0,0.0,0.0,0.0,0.0,0.0,0.0,0.0,0.0,0.0,0.0,0.0,0.0,0.0,0.0,0.0,-0.9235,-1.015,-1.0726,-1.1684,-1.2079,-1.1647,-1.1812,-1.1559,-1.0699,0.0,0.0,0.0,0.0,0.0,0.0,0.0,0.0,0.0,0.0,0.0,0.0,0.0,0.0,0.0,0.0,0.0,0.0,0.0,0.0,0.0,0.0,0.0,0.0,0.0,0.0,0.0,0.0,0.0,0.0,0.0,0.0,0.0,0.0,0.0,0.0,0.0,0.0,0.0,0.0,0.0,0.0,0.0,0.0,0.0,0.0,0.0,0.0,0.0,0.0,0.0,0.0,0.0,0.0,0.0,0.0,0.0,0.0,0.0,0.0,0.0,0.0,0.0,0.0,0.0,0.0,0.0,0.0,0.0,0.0,0.0,0.0,0.0,0.0,0.0,0.0,0.0,0.0,0.0,0.0,0.0,0.0,0.0,0.0,0.0,0.0,0.0,0.0,0.0,0.0,0.0,0.0,0.0,0.0,0.0,0.0,0.0,0.0,0.0,0.0,0.0,0.0,-0.8279,-0.9162,-0.996,-1.0527,-1.124,-1.1472,-1.0889,-1.1005,-1.0783,-1.0,0.0,0.0,0.0,0.0,0.0,0.0,0.0,0.0,0.0,0.0,0.0,0.0,0.0,0.0,0.0,0.0,0.0,0.0,0.0,0.0,0.0,0.0,0.0,0.0,0.0,0.0,0.0,0.0,0.0,0.0,0.0,0.0,0.0,0.0,0.0,0.0,0.0,0.0,0.0,0.0,0.0,0.0,0.0,0.0,0.0,0.0,0.0,0.0,0.0,0.0,0.0,0.0,0.0,0.0,0.0,0.0,0.0,0.0,0.0,0.0,0.0,0.0,0.0,0.0,0.0,0.0,0.0,0.0,0.0,0.0,0.0,0.0,0.0,0.0,0.0,0.0,0.0,0.0,0.0,0.0,0.0,0.0,0.0,0.0,0.0,0.0,0.0,0.0,0.0,0.0,0.0,0.0,0.0,0.0,0.0,0.0,0.0,0.0,0.0,0.0,0.0,0.0,-0.8398,-0.903,-0.9579,-1.006,-1.0505,-1.0623,-1.0155,-1.0092,-0.9836,0.0,0.0,0.0,0.0,0.0,0.0,0.0,0.0,0.0,0.0,0.0,0.0,0.0,0.0,0.0,0.0,0.0,0.0,0.0,0.0,0.0,0.0,0.0,0.0,0.0,0.0,0.0,0.0,0.0,0.0,0.0,0.0,0.0,0.0,0.0,0.0,0.0,0.0,0.0,0.0,0.0,0.0,0.0,0.0,0.0,0.0,0.0,0.0,0.0,0.0,0.0,0.0,0.0,0.0,0.0,0.0,0.0,0.0,0.0,0.0,0.0,0.0,0.0,0.0,0.0,0.0,0.0,0.0,0.0,0.0,0.0,0.0,0.0,0.0,0.0,0.0,0.0,0.0,0.0,0.0,0.0,0.0,0.0,0.0,0.0,0.0,0.0,0.0,0.0,0.0,0.0,0.0,0.0,0.0,0.0,0.0,0.0,0.0,0.0,0.0,0.0,0.0,0.0,-0.8891,-0.9368,-0.9831,-1.0399,-1.0658,-1.0561,-1.0017,-0.9755,-0.9395,-0.8941,0.0,0.0,0.0,0.0,0.0,0.0,0.0,0.0,0.0,0.0,0.0,0.0,0.0,0.0,0.0,0.0,0.0,0.0,0.0,0.0,0.0,0.0,0.0,0.0,0.0,0.0,0.0,0.0,0.0,0.0,0.0,0.0,0.0,0.0,0.0,0.0,0.0,0.0,0.0,0.0,0.0,0.0,0.0,0.0,0.0,0.0,0.0,0.0,0.0,0.0,0.0,0.0,0.0,0.0,0.0,0.0,0.0,0.0,0.0,0.0,0.0,0.0,0.0,0.0,0.0,0.0,0.0,0.0,0.0,0.0,0.0,0.0,0.0,0.0,0.0,0.0,0.0,0.0,0.0,0.0,0.0,0.0,0.0,0.0,0.0,0.0,0.0,0.0,0.0,0.0,0.0,0.0,0.0,0.0,0.0,0.0,0.0,0.0,0.0,0.0,0.0,0.0,-0.9098,-0.9499,-0.9943,-1.0533,-1.0681,-1.0475,-0.9879,-0.9405,-0.8971,-0.8549,0.0,0.0,0.0,0.0,0.0,0.0,0.0,0.0,0.0,0.0,0.0,0.0,0.0,0.0,0.0,0.0,0.0,0.0,0.0,0.0,0.0,0.0,0.0,0.0,0.0,0.0,0.0,0.0,0.0,0.0,0.0,0.0,0.0,0.0,0.0,0.0,0.0,0.0,0.0,0.0,0.0,0.0,0.0,0.0,0.0,0.0,0.0,0.0,0.0,0.0,0.0,0.0,0.0,0.0,0.0,0.0,0.0,0.0,0.0,0.0,0.0,0.0,0.0,0.0,0.0,0.0,0.0,0.0,0.0,0.0,0.0,0.0,0.0,0.0,0.0,0.0,0.0,0.0,0.0,0.0,0.0,0.0,0.0,0.0,0.0,0.0,0.0,0.0,0.0,0.0,0.0,0.0,0.0,0.0,0.0,0.0,0.0,0.0,0.0,0.0,0.0,0.0,-0.9138,-0.9539,-0.997,-1.0533,-1.0593,-1.0352,-0.9762,-0.9172,-0.8635,-0.8129,0.0,0.0,0.0,0.0,0.0,0.0,0.0,0.0,0.0,0.0,0.0,0.0,0.0,0.0,0.0,0.0,0.0,0.0,0.0,0.0,0.0,0.0,0.0,0.0,0.0,0.0,0.0,0.0,0.0,0.0,0.0,0.0,0.0,0.0,0.0,0.0,0.0,0.0,0.0,0.0,0.0,0.0,0.0,0.0,0.0,0.0,0.0,0.0,0.0,0.0,0.0,0.0,0.0,0.0,0.0,0.0,0.0,0.0,0.0,0.0,-1.417,-1.3963,0.0,0.0,0.0,0.0,0.0,0.0,0.0,0.0,0.0,0.0,0.0,0.0,0.0,0.0,0.0,0.0,0.0,0.0,0.0,0.0,0.0,0.0,0.0,0.0,0.0,0.0,0.0,0.0,0.0,0.0,0.0,0.0,0.0,0.0,0.0,0.0,0.0,0.0,0.0,0.0,-0.9472,-0.9846,-1.016,-1.0553,-1.0593,-1.0352,-0.9762,-0.9331,-0.8824,-0.8143,-0.7763,0.0,0.0,0.0,0.0,0.0,0.0,0.0,0.0,0.0,0.0,0.0,0.0,0.0,0.0,0.0,0.0,0.0,0.0,0.0,0.0,0.0,0.0,0.0,0.0,0.0,0.0,0.0,0.0,0.0,0.0,0.0,0.0,0.0,0.0,0.0,0.0,0.0,0.0,0.0,0.0,0.0,0.0,0.0,0.0,0.0,0.0,0.0,0.0,0.0,0.0,0.0,0.0,0.0,0.0,0.0,0.0,0.0,0.0,0.0,-1.4812,-1.4477,0.0,0.0,0.0,0.0,0.0,0.0,0.0,0.0,0.0,0.0,0.0,0.0,0.0,0.0,0.0,0.0,0.0,0.0,0.0,0.0,0.0,0.0,0.0,0.0,0.0,0.0,0.0,0.0,0.0,0.0,0.0,0.0,0.0,0.0,0.0,0.0,0.0,0.0,0.0,0.0,-0.978,-1.0147,-1.0472,-1.0767,-1.0801,-1.0566,-0.994,-0.9464,-0.8985,-0.8459,-0.7889,0.0,0.0,0.0,0.0,0.0,0.0,0.0,0.0,0.0,0.0,0.0,0.0,0.0,0.0,0.0,0.0,0.0,0.0,0.0,0.0,0.0,0.0,0.0,0.0,0.0,0.0,0.0,0.0,0.0,0.0,0.0,0.0,0.0,0.0,0.0,0.0,0.0,0.0,0.0,0.0,0.0,0.0,0.0,0.0,0.0,0.0,0.0,0.0,0.0,0.0,0.0,0.0,0.0,-1.4562,-1.4968,-1.6039,-1.5662,-1.5654,-1.5939,-1.5338,-1.5021,-1.4966,-1.4457,0.0,0.0,0.0,0.0,0.0,0.0,0.0,0.0,0.0,0.0,0.0,0.0,0.0,0.0,0.0,0.0,0.0,0.0,0.0,0.0,0.0,0.0,-0.9889,-0.996,-0.9987,-0.9907,-0.9577,0.0,0.0,0.0,0.0,0.0,0.0,0.0,0.0,0.0,0.0,0.0,-1.008,-1.0486,-1.076,-1.0969,-1.0995,-1.0755,-1.0137,-0.9644,-0.9198,-0.8831,-0.8134,-0.7678,0.0,0.0,0.0,0.0,0.0,0.0,0.0,0.0,0.0,0.0,0.0,0.0,0.0,0.0,0.0,0.0,0.0,0.0,0.0,0.0,0.0,0.0,0.0,0.0,0.0,0.0,0.0,0.0,0.0,0.0,0.0,0.0,-1.6531,-1.6531,0.0,0.0,0.0,0.0,0.0,0.0,0.0,0.0,0.0,0.0,0.0,0.0,0.0,-1.4013,-1.4328,-1.3967,-1.4126,-1.4797,-1.4752,-1.5134,-1.5822,-1.5776,-1.5663,-1.5504,-1.5405,0.0,-1.4967,-1.4608,0.0,0.0,0.0,0.0,0.0,0.0,0.0,0.0,0.0,0.0,0.0,0.0,0.0,0.0,0.0,0.0,0.0,0.0,0.0,0.0,0.0,0.0,-1.0606,-1.1076,-1.1162,-1.1082,-1.0822,-1.016,-0.9606,-0.9554,-0.9098,-0.8738,0.0,0.0,0.0,0.0,0.0,0.0,-1.0419,-1.0787,-1.0949,-1.0989,-1.0995,-1.0755,-1.0137,-1.0017,-0.963,-0.8858,-0.8697,-0.8404,-0.7866,-0.7846,0.0,0.0,0.0,0.0,0.0,0.0,0.0,0.0,0.0,0.0,0.0,0.0,0.0,0.0,0.0,0.0,0.0,0.0,0.0,0.0,0.0,0.0,0.0,0.0,0.0,0.0,0.0,0.0,0.0,-1.6722,-1.6812,-1.6603,-1.6423,-1.6245,0.0,0.0,0.0,0.0,0.0,0.0,0.0,0.0,0.0,-1.5056,-1.4696,-1.4614,-1.4835,-1.467,-1.4834,-1.5345,-1.5345,-1.5629,-1.6079,-1.6079,-1.6005,-1.59,-1.5715,-1.54,-1.4958,-1.4311,-1.3649,-1.3031,0.0,0.0,0.0,0.0,-1.1425,-1.1266,-1.1203,-1.1107,-1.1012,-1.0942,0.0,0.0,0.0,0.0,0.0,0.0,0.0,-1.0345,-1.0895,-1.1049,-1.1109,-1.1329,-1.1389,-1.1355,-1.1263,-1.0935,-1.0514,-1.002,-0.9586,-0.9299,-0.9299,-0.9085,0.0,0.0,0.0,-1.018,-1.0767,-1.1236,-1.1517,-1.1517,-1.1336,-1.1069,-1.0648,-1.0276,-0.9923,-0.9566,-0.9078,-0.8691,-0.8412,-0.8263,-0.8176,0.0,0.0,0.0,0.0,0.0,0.0,0.0,0.0,0.0,0.0,0.0,0.0,0.0,0.0,0.0,0.0,0.0,0.0,0.0,0.0,0.0,0.0,0.0,0.0,0.0,0.0,0.0,0.0,-1.6897,-1.7002,-1.6934,-1.6691,-1.6497,0.0,0.0,0.0,0.0,0.0,0.0,-1.5458,-1.5187,-1.5153,-1.5415,-1.525,-1.5282,-1.5469,-1.5304,-1.5425,-1.578,-1.5746,-1.5874,-1.618,-1.618,-1.6138,-1.6052,-1.581,-1.5439,-1.493,-1.42,-1.3572,-1.3028,-1.2692,-1.2409,-1.2242,-1.2242,-1.202,-1.175,-1.175,-1.1593,-1.1389,-1.1389,-1.1082,-1.072,-1.0787,0.0,0.0,0.0,0.0,-1.0935,-1.1403,-1.1543,-1.1557,-1.1595,-1.1615,-1.1615,-1.1615,-1.159,-1.1323,-1.0595,-1.016,-0.9936,-0.9936,-0.9809,0.0,0.0,0.0,-1.0754,-1.1196,-1.1631,-1.1906,-1.1906,-1.1603,-1.1309,-1.1015,-1.0521,-1.02,-1.012,-0.9499,-0.9112,-0.9031,-0.8851,-0.8671,-0.8546,0.0,0.0,0.0,0.0,0.0,0.0,0.0,0.0,0.0,0.0,0.0,0.0,0.0,0.0,0.0,0.0,0.0,0.0,0.0,0.0,0.0,0.0,0.0,0.0,0.0,0.0,0.0,0.0,0.0,-1.802,-1.7271,0.0,0.0,0.0,0.0,-1.4916,-1.5482,-1.5719,-1.5401,-1.5571,-1.5814,-1.6252,-1.5892,-1.5821,-1.6129,-1.5656,-1.5524,-1.5805,-1.5531,-1.5551,-1.5832,-1.5832,-1.5685,-1.5417,-1.5449,-1.5281,-1.4983,-1.4601,-1.3891,-1.2996,-1.2982,-1.2692,-1.2295,-1.2295,-1.212,-1.1879,-1.1879,-1.1663,-1.1389,-1.1389,-1.1223,-1.1022,-1.1262,-1.1169,0.0,0.0,-1.1349,-1.145,-1.1799,-1.1879,-1.1953,-1.2191,-1.2258,-1.2258,-1.2258,-1.2044,-1.1785,-1.1389,-1.0902,-1.0546,-1.0546,0.0,-0.9903,-1.0466,-1.0573,-1.0901,-1.1752,-1.1886,-1.1906,-1.1906,-1.1603,-1.1309,-1.1015,-1.0747,-1.0445,-1.0134,-1.0043,-0.9927,-0.9653,-0.9655,-0.9429,-0.8991,-0.8997,0.0,0.0,0.0,0.0,0.0,0.0,0.0,0.0,0.0,0.0,0.0,0.0,0.0,0.0,0.0,0.0,0.0,0.0,0.0,0.0,0.0,0.0,0.0,0.0,0.0,0.0,0.0,0.0,-1.7738,-1.7433,0.0,-1.7098,-1.6572,-1.6213,-1.6144,-1.616,-1.6206,-1.6308,-1.631,-1.635,-1.6477,-1.6381,-1.639,-1.6498,-1.6342,-1.6293,-1.6386,-1.6099,-1.6112,-1.6386,-1.6199,-1.6159,-1.6233,-1.6039,-1.5792,-1.5478,-1.5194,-1.4631,-1.3931,-1.3548,-1.3293,-1.3107,-1.2953,-1.2819,-1.2732,-1.2732,-1.2665,-1.2474,-1.2118,-1.179,-1.1578,-1.145,-1.1322,-1.1329,-1.163,-1.171,-1.1777,-1.2071,-1.2144,-1.2171,-1.2278,-1.2305,-1.2305,-1.2305,-1.2218,-1.2118,-1.2011,-1.1516,-1.1116,-1.1116,-1.0942,-1.0875,-1.1089,-1.1316,-1.1551,-1.1866,-1.2067,-1.2144,-1.2144,-1.1884,-1.1597,-1.1296,-1.1002,-1.0747,-1.0452,-1.0221,-1.0013,-0.9824,-0.961,-0.9337,-0.894,-0.886,-0.8546,0.0,0.0,0.0,0.0,0.0,0.0,0.0,0.0,0.0,0.0,0.0,0.0,0.0,0.0,0.0,0.0,0.0,0.0,0.0,0.0,0.0,0.0,0.0,0.0,0.0,-1.7147,-1.7549,-1.7817,-1.7644,-1.7568,-1.7591,-1.7257,-1.7034,-1.7108,-1.6838,-1.6827,-1.7037,-1.6908,-1.6862,-1.6914,-1.7002,-1.7001,-1.7001,-1.6901,-1.6854,-1.6847,-1.646,-1.6426,-1.6693,-1.6406,-1.6433,-1.6693,-1.64,-1.6159,-1.5959,-1.5665,-1.5311,-1.4903,-1.4315,-1.4088,-1.4055,-1.3761,-1.3587,-1.3474,-1.328,-1.3213,-1.3146,-1.2739,-1.2405,-1.2167,-1.1931,-1.1804,-1.1764,-1.1957,-1.2011,-1.2094,-1.2251,-1.2305,-1.2305,-1.2305,-1.2305,-1.2305,-1.2305,-1.2305,-1.2305,-1.2305,-1.1911,-1.1577,-1.1577,-1.1455,-1.1422,-1.1557,-1.1744,-1.194,-1.2004,-1.2148,-1.2187,-1.2187,-1.1893,-1.1574,-1.125,-1.1028,-1.0771,-1.0511,-1.0281,-1.0113,-0.9935,-0.9619,-0.9197,-0.8741,-0.8268,-0.7852,-0.7542,0.0,0.0,0.0,0.0,0.0,0.0,0.0,0.0,0.0,0.0,0.0,0.0,0.0,0.0,0.0,0.0,0.0,0.0,0.0,0.0,0.0,0.0,0.0,-1.6897,-1.6745,-1.7053,-1.8336,-1.7974,-1.7787,-1.815,-1.8214,-1.8009,-1.7555,-1.7555,-1.7574,-1.7595,-1.7393,-1.7367,-1.7589,-1.7595,-1.7595,-1.7582,-1.7353,-1.7213,-1.7206,-1.6623,-1.6453,-1.6727,-1.6433,-1.646,-1.6714,-1.642,-1.6286,-1.6308,-1.5952,-1.5832,-1.5738,-1.5204,-1.5022,-1.4988,-1.4643,-1.4355,-1.4035,-1.346,-1.326,-1.3253,-1.324,-1.3065,-1.2811,-1.2804,-1.2596,-1.2331,-1.2331,-1.2325,-1.2318,-1.2318,-1.2311,-1.2305,-1.2305,-1.2305,-1.2305,-1.2305,-1.2305,-1.2305,-1.2305,-1.2078,-1.1919,-1.1919,-1.1643,-1.155,-1.1873,-1.1919,0.0,-1.2265,-1.2114,-1.2003,-1.2003,-1.1574,-1.1191,-1.0905,-1.0766,-1.0581,-1.0327,-1.0276,-1.018,-0.9983,-0.9652,-0.9113,-0.8373,-0.7249,-0.6707,-0.6791,0.0,0.0,0.0,0.0,0.0,0.0,0.0,0.0,0.0,0.0,0.0,0.0,0.0,0.0,0.0,0.0,0.0,0.0,0.0,0.0,0.0,-1.6029,-1.6243,-1.6786,-1.7178,-1.7675,-1.8335,-1.8279,-1.8225,-1.8408,-1.8442,-1.834,-1.8232,-1.8232,-1.8211,-1.8237,-1.8163,-1.8063,-1.7923,-1.7862,-1.7809,-1.7589,-1.7554,-1.7514,-1.7514,-1.7139,-1.7112,-1.7328,-1.7092,-1.7119,-1.7315,-1.6807,-1.6587,-1.6547,-1.6039,-1.5952,-1.6092,-1.5504,-1.5277,-1.5244,-1.495,-1.4834,-1.4747,-1.4579,-1.4342,-1.4122,-1.3915,-1.3641,-1.3353,-1.3146,-1.3026,-1.2959,-1.2959,-1.2799,-1.2663,-1.2663,-1.2465,-1.2305,-1.2305,-1.2305,-1.2305,-1.2305,-1.2305,-1.2305,-1.2305,-1.2238,-1.2184,-1.2184,-1.2118,-1.2091,-1.2171,-1.2184,0.0,-1.2291,-1.2114,-1.2003,-1.2003,-1.1747,-1.1401,-1.0924,-1.0878,-1.0629,-1.0111,-0.9989,-0.9798,-0.9498,-0.9183,-0.8533,-0.7537,-0.6838,-0.6451,0.0,0.0,0.0,0.0,0.0,0.0,0.0,0.0,0.0,0.0,0.0,0.0,0.0,0.0,0.0,0.0,0.0,0.0,0.0,0.0,0.0,0.0,-1.667,-1.6943,-1.7578,-1.7936,-1.8266,-1.8774,-1.8921,-1.9061,-1.9192,-1.9112,-1.9038,-1.9038,-1.8811,-1.8671,-1.8671,-1.8557,-1.8357,-1.8002,-1.7995,-1.7896,-1.7589,-1.7582,-1.7582,-1.7582,-1.734,-1.7353,-1.7569,-1.7206,-1.7128,-1.742,-1.678,-1.6526,-1.6486,-1.6019,-1.5932,-1.6066,0.0,0.0,0.0,0.0,-1.517,-1.5008,-1.5008,-1.485,-1.4676,-1.4509,-1.4168,-1.3801,-1.3627,-1.3407,-1.3213,-1.3213,-1.3025,-1.2784,-1.2784,-1.2563,-1.2268,-1.2194,-1.215,-1.212,-1.1966,-1.1929,-1.1892,-1.1818,-1.1781,0.0,-1.1781,-1.2077,-1.2305,-1.2305,-1.2305,-1.2305,-1.2305,-1.204,-1.1855,-1.1855,-1.1558,-1.1162,-1.0744,-1.0602,0.0,0.0,0.0,-0.9087,-0.8431,-0.8112,0.0,0.0,0.0,-0.6161,-0.6162,-0.5908,0.0,0.0,-0.5808,-0.5744,0.0,0.0,0.0,0.0,0.0,0.0,0.0,0.0,0.0,0.0,0.0,0.0,0.0,0.0,0.0,0.0,-1.759,-1.807,-1.8905,-1.8858,-1.8918,-1.9406,-1.9693,-1.9953,-2.0207,-1.9967,-1.98,-1.98,-1.9285,-1.8978,-1.8978,-1.8698,0.0,0.0,0.0,-1.7896,-1.7589,-1.7582,-1.7582,-1.7582,-1.7373,-1.7387,-1.7562,-1.7041,-1.6934,-1.7172,-1.661,-1.6348,-1.6301,-1.5985,-1.5919,-1.5999,-1.6192,-1.6433,-1.6593,-1.6072,-1.5531,-1.5109,-1.5109,0.0,0.0,-1.5028,-1.4653,-1.4175,-1.4108,-1.3721,-1.3307,-1.3307,-1.306,-1.2837,-1.2837,-1.2552,-1.2268,-1.204,-1.1966,-1.1855,-1.1446,-1.1335,-1.126,-1.1074,-1.1037,-1.1037,-1.1037,-1.1669,-1.2157,-1.2157,-1.2157,-1.2157,-1.2157,-1.1818,-1.1595,-1.1595,0.0,0.0,-1.0346,-1.0084,-0.9777,-0.9344,-0.8931,-0.8227,-0.7202,-0.6838,-0.6546,-0.6364,-0.5987,-0.5881,-0.6061,-0.5892,-0.5827,-0.5827,-0.5827,-0.5827,0.0,0.0,0.0,0.0,0.0,0.0,0.0,0.0,0.0,0.0,0.0,0.0,0.0,0.0,0.0,-1.8394,-1.8802,-1.9165,-1.9573,-1.9993,-2.0207,-2.008,-2.0114,-2.0113,-2.0167,-1.9967,-1.98,-1.98,-1.9479,-1.9279,-1.9279,-1.9005,-1.8704,-1.841,-1.8115,-1.7896,-1.7589,-1.7582,-1.7582,-1.7582,-1.7522,0.0,-1.7582,-1.7468,-1.7315,-1.7186,-1.6774,-1.6486,-1.6266,-1.6213,-1.6466,-1.6904,-1.644,-1.6306,-1.6339,-1.6226,-1.5965,-1.5665,-1.5665,-1.5665,-1.5585,-1.5162,-1.4934,-1.4747,-1.4229,-1.4008,0.0,-1.3921,-1.3534,-1.312,-1.312,-1.2712,-1.2268,-1.204,-1.1892,-1.1632,-1.1223,-1.1037,-1.085,-1.0663,-1.0625,-1.0625,-1.0625,-1.0999,-1.1335,-1.1335,-1.1335,-1.1335,-1.1335,-1.1111,-1.0962,-1.0962,-1.07,-1.0379,-0.9952,-0.971,-0.94,-0.8938,-0.8294,-0.7613,-0.6983,-0.6596,-0.6298,-0.6158,-0.5937,-0.5808,-0.5875,-0.5925,-0.5949,-0.5949,-0.5949,-0.5949,0.0,0.0,0.0,0.0,0.0,0.0,0.0,0.0,0.0,0.0,0.0,-1.8786,-1.919,0.0,-1.8973,-1.963,-1.9791,-1.9953,-2.0394,-2.0708,-2.0782,-2.0494,-2.0581,-2.0668,-2.0668,-2.0408,-2.0174,-2.0027,-1.9746,-1.9519,-1.943,-1.9085,-1.8791,-1.8504,-1.8149,-1.7896,-1.7589,-1.7582,-1.7582,-1.7582,-1.7582,-1.7582,-1.7582,-1.7481,-1.7259,-1.6907,-1.662,-1.6319,-1.6059,-1.6213,-1.667,-1.7172,-1.6878,-1.667,-1.6486,-1.6486,-1.6213,-1.5784,-1.5784,-1.5684,-1.5565,-1.5277,-1.4983,-1.4689,-1.4389,-1.4202,-1.4088,-1.4088,-1.3667,-1.3213,-1.3213,-1.2759,-1.2231,-1.1929,-1.1706,-1.1372,-1.0663,-1.0244,-0.9943,-0.9533,-0.9377,-0.9296,-0.9296,-0.9485,-0.9863,-1.0663,-1.0812,-1.0812,-1.0812,-1.0625,-1.0513,-1.0513,-1.0143,-0.9798,-0.9569,-0.9007,-0.8411,-0.7877,-0.7411,-0.6952,-0.6523,-0.6309,-0.6165,-0.6065,-0.5955,-0.5956,-0.6067,-0.6108,-0.6146,-0.6146,-0.6146,-0.6146,0.0,0.0,0.0,0.0,0.0,0.0,0.0,-2.0114,-1.9782,-1.9353,-1.9389,-1.9543,-1.9919,-1.9834,-1.9996,-2.0841,-2.0719,-2.0742,-2.1209,-2.1229,-2.1109,-2.0875,-2.1002,-2.1109,-2.1109,-2.0848,-2.0575,-2.0334,-1.9993,-1.97,-1.9466,-1.9112,-1.8818,-1.8577,-1.8175,-1.7923,-1.7675,-1.7609,-1.7582,-1.7582,-1.7582,-1.7582,-1.7575,-1.7393,-1.7092,-1.6687,-1.6339,-1.6086,-1.5932,-1.6172,-1.667,-1.7199,-1.7199,-1.7052,-1.678,-1.6727,-1.6373,-1.5899,-1.5738,-1.5591,-1.5378,-1.5264,-1.491,-1.4509,-1.4449,-1.4269,-1.4088,-1.4088,-1.3701,-1.3293,-1.3293,-1.2893,-1.2366,-1.2029,-1.1721,-1.1227,-1.0252,-0.964,-0.9117,-0.8479,-0.8165,-0.8046,-0.8008,-0.797,-0.8466,-0.983,-1.0024,-1.0024,-1.0024,-0.9911,-0.9798,-0.9798,-0.9349,-0.9051,-0.8941,-0.8178,-0.7425,-0.688,-0.6695,-0.6444,-0.6153,-0.6153,-0.6103,-0.6071,-0.6074,-0.6135,-0.63,-0.63,-0.63,-0.63,-0.63,-0.63,-2.0986,-2.1748,-2.2587,-2.27,-2.2741,-2.2624,0.0,-2.1554,-2.0971,-2.0704,-2.0497,-2.0522,-2.1175,-2.1277,-2.1408,-2.1776,-2.1811,-2.181,-2.1877,-2.1663,-2.1554,-2.1521,-2.1249,-2.1109,-2.1109,-2.0848,-2.0661,-2.0628,-2.0114,-1.9786,-1.9753,-1.9225,-1.8911,-1.8878,-1.8282,-1.7975,-1.7942,-1.7722,-1.7582,-1.7582,-1.7582,-1.7582,-1.7582,-1.7549,-1.7235,-1.6673,-1.6119,-1.6012,-1.6274,-1.6259,-1.667,-1.7199,-1.7199,-1.7186,-1.7119,-1.68,-1.65,-1.6146,-1.5625,-1.5424,-1.5311,-1.4783,-1.4576,-1.4476,-1.4215,-1.4115,-1.4088,-1.4088,-1.3854,-1.3553,-1.3553,-1.3313,-1.3028,-1.2831,-1.2272,-1.1621,-1.0778,-0.9914,-0.9056,-0.8293,-0.7978,-0.7783,-0.7595,-0.7557,-0.7744,-0.8275,-0.8385,-0.8385,-0.8385,-0.8347,-0.8347,-0.8347,-0.8271,-0.8089,-0.7714,-0.7429,-0.7103,-0.6663,-0.6625,-0.6513,-0.6287,-0.6287,-0.6255,-0.6272,-0.6272,-0.6282,-0.63,-0.63,-0.63,-0.63,-0.63,-0.63,-2.1804,-2.2423,-2.3064,-2.3645,-2.3552,-2.3264,-2.3016,-2.2435,-2.1904,-2.1438,-2.1353,-2.1444,-2.152,-2.1719,-2.1905,-2.2195,-2.2077,-2.1984,-2.1984,-2.1802,-2.1554,-2.1316,-2.1182,-2.1109,-2.1109,-2.1002,-2.0855,-2.0688,-2.0448,-2.016,-1.982,-1.9406,-1.9098,-1.8925,-1.8517,-1.8303,-1.8303,-1.8003,-1.7856,-1.7849,-1.7669,-1.7582,-1.7582,-1.7582,-1.7261,-1.6673,-1.6037,-1.5999,-1.6321,-1.6321,-1.6513,-1.6907,-1.7132,-1.7199,-1.7186,-1.7058,-1.6723,-1.6239,-1.5992,-1.5571,-1.5149,-1.4856,-1.4543,-1.4249,-1.4122,-1.4088,-1.4088,-1.4088,-1.3874,-1.36,-1.36,-1.3387,-1.3134,-1.2969,-1.2515,-1.1866,-1.093,-0.9919,-0.8889,-0.7927,-0.7407,-0.7022,-0.6834,-0.6795,-0.6872,-0.7022,-0.7442,-0.7744,-0.7744,-0.7744,-0.7706,-0.7595,-0.7595,-0.7403,-0.7022,-0.6911,-0.6718,-0.6451,-0.6412,-0.6374,-0.63,-0.63,-0.63,-0.63,-0.63,-0.63,-0.63,-0.63,-0.63,-0.63,-0.63,-0.63,-2.2409,-2.3044,-2.3663,-2.4526,-2.4557,-2.4233,-2.3942,-2.3497,-2.2913,-2.2162,-2.2137,-2.2124,-2.1735,-2.1844,-2.2078,-2.2372,-2.2245,-2.2104,-2.2104,-2.1857,-2.153,-2.1156,-2.1036,-2.0955,-2.0875,-2.1015,-2.1022,-2.0808,-2.0722,-2.0488,-2.006,-1.9693,-1.9386,-1.9172,-1.8804,-1.8611,-1.8611,-1.8182,-1.7995,-1.7989,-1.7736,-1.7582,-1.7575,-1.7415,-1.7061,-1.656,-1.6046,-1.5952,-1.6152,-1.6152,-1.6319,-1.6607,-1.6878,-1.7005,-1.7079,-1.7079,-1.6811,-1.6359,-1.6119,-1.5611,-1.4981,-1.4821,-1.4479,-1.4088,-1.4088,-1.4088,-1.4088,-1.4088,-1.3935,-1.3726,-1.3726,-1.3607,-1.3413,-1.3292,-1.2864,-1.2221,-1.1306,-1.0174,-0.9048,-0.7964,-0.7242,-0.6734,-0.6462,-0.6422,-0.6409,-0.6364,-0.6861,-0.7227,-0.7184,-0.7176,-0.7103,-0.6953,-0.6953,-0.6834,-0.6525,-0.6525,-0.6451,-0.63,-0.63,-0.63,-0.63,-0.63,-0.63,-0.63,-0.63,-0.63,-0.63,-0.63,-0.63,-0.63,-0.63,-0.63,-2.2847,-2.3835,-2.4784,-2.5484,-2.5901,-2.6018,-2.5527,-2.4994,-2.4257,-2.3248,-2.2732,-2.2365,-2.2037,-2.1977,-2.2078,-2.2372,-2.2412,-2.2405,-2.2405,-2.2158,-2.1757,-2.1176,-2.0862,-2.0575,-2.0287,-2.0775,-2.1109,-2.1096,-2.0835,-2.0668,-2.0648,-2.01,-1.978,-1.9773,-1.9212,-1.8911,-1.8911,-1.8282,-1.7995,-1.7989,-1.7736,-1.7582,-1.7562,-1.6987,-1.6567,-1.6266,-1.5965,-1.5832,-1.5798,-1.5798,-1.6019,-1.6286,-1.6342,-1.6473,-1.672,-1.672,-1.6707,-1.6573,-1.5718,-1.5217,-1.4914,-1.4302,-1.4102,-1.4088,-1.4088,-1.4088,-1.4088,-1.4088,-1.4082,-1.4075,-1.4075,-1.4068,-1.4062,-1.4062,-1.3509,-1.2807,-1.2176,-1.0942,-0.9674,-0.8569,-0.7839,-0.7229,-0.6771,-0.6685,-0.6637,-0.6528,-0.6504,-0.6493,-0.6355,-0.6338,-0.6338,-0.6338,-0.6338,-0.6338,-0.63,-0.63,-0.63,-0.63,-0.63,-0.63,-0.63,-0.63,-0.63,-0.63,-0.63,-0.63,-0.63,-0.63,-0.63,-0.63,-0.63,-0.63,-2.376,-2.4956,-2.6114,-2.6735,-2.7124,-2.7274,-2.6685,-2.6033,-2.5275,-2.4043,-2.3309,-2.2645,-2.1867,-2.1537,-2.1436,-2.1537,-2.155,-2.1483,-2.1289,-2.1176,-2.0969,-2.0575,-2.0441,-2.0341,-2.018,-2.0588,-2.0822,-2.0822,-2.0909,-2.0882,-2.0688,-2.0301,-2.0,-1.9806,-1.9426,-1.9125,-1.8925,-1.8537,-1.8243,-1.7989,-1.7736,-1.7534,-1.7333,-1.6887,-1.6547,-1.6259,-1.5959,-1.5784,-1.5784,-1.5784,-1.5885,-1.5999,-1.6192,-1.6382,-1.644,-1.6633,-1.6587,-1.6346,-1.5852,-1.5364,-1.4941,-1.4502,-1.4249,-1.4088,-1.4088,-1.4088,-1.4088,-1.4088,-1.4088,-1.4088,-1.4088,-1.4088,-1.4088,-1.4088,-1.3672,-1.3082,-1.2444,-1.1244,-0.9934,-0.8809,-0.7934,-0.7244,-0.6785,-0.6702,-0.6647,-0.6535,-0.6433,-0.6354,-0.6306,-0.63,-0.63,-0.63,-0.63,-0.63,-0.63,-0.63,-0.63,-0.63,-0.63,-0.63,-0.63,-0.63,-0.63,-0.63,-0.63,-0.63,-0.63,-0.63,-0.63,-0.63,-0.63,-0.63,-2.4844,-2.6014,-2.7131,-2.7741,-2.812,-2.8119,-2.7461,-2.6567,-2.5538,-2.4201,-2.3036,-2.1999,-2.1133,-2.0589,-2.0361,-2.0468,-2.0661,-2.0728,-2.0541,-2.0608,-2.0528,-2.0127,-2.008,-2.004,0.0,0.0,-2.0408,-2.0508,-2.0788,-2.0828,-2.0535,-2.0334,-2.01,-1.9813,-1.9412,-1.9118,-1.8925,-1.8531,-1.8183,-1.7822,-1.7575,-1.7326,-1.7032,-1.6687,-1.6393,-1.6106,-1.5912,-1.5784,-1.5784,-1.5784,-1.5784,-1.5791,-1.5925,-1.5959,-1.5972,-1.6052,-1.5965,-1.5839,-1.5705,-1.5364,-1.4941,-1.4496,-1.4242,-1.4088,-1.4088,-1.4088,-1.4088,-1.4088,-1.4088,-1.4088,-1.4088,-1.4088,-1.4088,-1.4088,-1.3737,-1.322,-1.2619,-1.1522,-1.0288,-0.9233,-0.8291,-0.7539,-0.7073,-0.6859,-0.6749,-0.6651,-0.6504,-0.6358,-0.6306,-0.63,-0.63,-0.63,-0.63,-0.63,-0.63,-0.63,-0.63,-0.63,-0.63,-0.63,-0.63,-0.63,-0.63,-0.63,-0.63,-0.63,-0.63,-0.63,-0.63,-0.63,-0.63,-0.63,-2.6103,-2.71,-2.796,-2.8472,-2.8814,-2.8727,-2.7808,-2.6641,-2.5352,-2.3852,-2.2105,-2.0592,0.0,-1.928,-1.8951,-1.9303,-1.976,-2.0073,-2.016,-2.0408,-2.0388,0.0,0.0,0.0,0.0,0.0,-1.9893,-2.0167,-2.0474,-2.0535,-2.0247,-2.0221,-2.008,-1.9786,-1.9225,-1.8911,-1.8821,-1.8255,-1.7876,-1.7582,-1.734,-1.7045,-1.6693,-1.6406,-1.6112,-1.5784,-1.5784,-1.5784,-1.5784,-1.5784,-1.5771,-1.5731,-1.5504,-1.5384,-1.5344,-1.5109,-1.5008,-1.5042,-1.5264,-1.517,-1.4894,-1.4289,-1.4095,-1.4088,-1.4108,-1.4095,-1.4088,-1.4088,-1.4088,-1.4088,-1.4088,-1.4088,-1.4088,-1.4088,-1.3743,-1.3307,-1.2833,-1.1843,-1.0766,-0.982,-0.8815,-0.8025,-0.7547,-0.7165,-0.6896,-0.6886,-0.6681,-0.648,-0.633,-0.6306,-0.63,-0.63,-0.63,-0.63,-0.63,-0.63,-0.63,-0.63,-0.63,-0.63,-0.63,-0.63,-0.63,-0.63,-0.63,-0.63,-0.63,-0.63,-0.63,-0.63,-0.63,-0.63,-2.7158,-2.8193,-2.9128,-2.9108,-2.9418,-2.93,-2.7834,-2.688,-2.5708,-2.3577,-2.2037,-2.0667,-1.9566,-1.8726,-1.8299,-1.8598,-1.8615,0.0,-1.9199,-1.9319,0.0,-1.9466,0.0,-1.9511,-1.943,-1.9432,0.0,-1.9586,-2.006,-2.0314,-2.0173,-2.0027,-1.978,-1.9486,-1.9118,-1.8655,-1.8215,-1.7889,-1.7662,-1.7582,-1.734,-1.7045,-1.6693,-1.6406,-1.6112,-1.5784,-1.5784,-1.5784,-1.5784,-1.5784,-1.5705,-1.5504,-1.5424,-1.5264,-1.5109,-1.5035,-1.5008,-1.4988,-1.4796,-1.4696,-1.4609,-1.4462,-1.4262,-1.4128,-1.4342,-1.4262,-1.4088,-1.4088,-1.4088,-1.4088,-1.4088,-1.4088,-1.4088,-1.4088,-1.387,-1.3519,-1.3094,-1.2235,-1.1198,-1.0033,-0.8684,-0.7591,-0.7275,-0.7112,-0.7007,-0.6903,-0.6861,-0.6715,-0.6494,-0.6364,-0.63,-0.63,-0.63,-0.63,-0.63,-0.63,-0.63,-0.63,-0.63,-0.63,-0.63,-0.63,-0.63,-0.63,-0.63,-0.63,-0.63,-0.63,-0.63,-0.63,-0.63,-0.63,-2.8662,-2.9453,-3.0139,-3.0092,-2.9863,-2.9294,-2.793,-2.6565,-2.5081,-2.3137,-2.1368,-1.9805,-1.8641,-1.7839,-1.742,-1.7568,0.0,0.0,-1.8671,-1.8958,-1.9178,0.0,-1.9424,0.0,-1.9424,-1.9424,-1.9424,-1.9424,-1.9786,-1.9933,-1.9614,-1.9626,-1.9419,-1.8998,-1.8698,-1.8317,-1.7849,-1.7669,-1.7582,-1.7582,-1.7154,-1.6867,-1.6693,-1.6273,-1.5985,-1.5784,-1.5784,-1.5784,-1.5784,-1.5784,-1.5658,-1.5384,-1.5257,-1.5023,-1.4756,-1.4673,-1.4626,-1.4599,-1.4389,-1.4329,-1.4349,-1.4482,-1.4409,-1.4309,-1.4469,-1.4402,-1.4249,-1.4122,-1.4088,-1.4088,-1.4088,-1.4088,-1.4088,-1.4088,-1.3828,-1.3476,-1.3185,-1.2363,-1.1241,-0.9767,-0.8548,-0.7676,-0.7183,-0.7095,-0.7068,-0.6991,-0.6927,-0.6825,-0.6695,-0.6525,-0.6395,-0.6395,-0.6337,-0.63,-0.63,-0.63,-0.63,-0.63,-0.63,-0.63,-0.63,-0.63,-0.63,-0.63,-0.63,-0.63,-0.63,-0.63,-0.63,-0.63,-0.63,-0.63,-3.0254,-3.0664,-3.0986,-3.0913,-3.0071,-2.8974,-2.7797,-2.6026,-2.4158,-2.2619,-2.0555,-1.8753,-1.7794,-1.7086,-1.6616,-1.6649,0.0,-1.8003,-1.8384,-1.8905,-1.9336,-1.9417,-1.9424,-1.9424,-1.9424,-1.9424,-1.9424,-1.9424,-1.9566,-1.9459,-1.8951,-1.9165,-1.9038,-1.845,-1.8143,-1.7856,-1.7589,-1.7582,-1.7582,-1.7575,-1.6987,-1.6707,-1.6687,-1.6099,-1.5784,-1.5784,-1.5784,-1.5784,-1.5784,-1.5784,-1.5631,-1.5311,-1.5109,-1.4756,-1.4436,-1.4182,-1.4088,-1.4088,-1.4088,-1.4088,-1.4135,-1.4429,-1.4496,-1.4469,-1.4509,-1.4496,-1.4409,-1.4162,-1.4088,-1.4088,-1.4088,-1.4088,-1.4088,-1.4046,-1.3737,-1.3398,-1.3137,-1.232,-1.1063,-0.9279,-0.8544,-0.7977,-0.7228,-0.7095,-0.7095,-0.7095,-0.6994,-0.6913,-0.6913,-0.6692,-0.6542,-0.6542,-0.6412,-0.6327,-0.6327,-0.631,-0.63,-0.63,-0.63,-0.63,-0.63,-0.63,-0.63,-0.63,-0.63,-0.63,-0.63,-0.63,-0.63,-0.63,-0.63,-0.63,-3.1172,-3.1348,-3.1279,-3.0624,-2.9805,-2.866,-2.6933,-2.5472,0.0,-2.2256,-2.0737,-1.9407,-1.8447,-1.7736,-1.7209,-1.6899,-1.7085,-1.7427,-1.8009,-1.8424,-1.8824,0.0,-1.9424,-1.9424,-1.9424,-1.9424,0.0,-1.9424,-1.9185,-1.9032,-1.8925,-1.8971,-1.8731,-1.8089,-1.7822,-1.7635,-1.7582,-1.7582,-1.7582,-1.7575,-1.6987,-1.6707,-1.6687,-1.6099,-1.5784,-1.5784,-1.5784,-1.5784,-1.5784,-1.5784,-1.5518,-1.5075,-1.5028,-1.468,-1.4155,-1.4108,-1.4088,-1.4088,-1.4088,-1.4088,-1.4135,-1.4429,-1.4355,-1.4208,-1.4449,-1.4355,-1.4155,-1.4102,-1.4088,-1.4088,-1.4088,-1.4088,-1.4039,-1.3822,-1.3695,-1.3568,-1.3179,-1.2063,-1.0717,-0.941,-0.8632,-0.7977,-0.7228,-0.7095,-0.7095,-0.7095,-0.7075,-0.7058,-0.7058,-0.6844,-0.6661,-0.6661,-0.6525,-0.6474,-0.6474,-0.6368,-0.63,-0.63,-0.63,-0.63,-0.63,-0.63,-0.63,-0.63,-0.63,-0.63,-0.63,-0.63,-0.63,-0.63,-0.63,-0.63,-3.207,-3.2021,-3.1688,-3.1131,-2.9821,-2.8294,-2.6707,0.0,0.0,-2.1966,-2.063,-1.9423,-1.8363,-1.7621,-1.7076,-1.688,-1.7105,-1.7525,-1.8126,-1.8598,-1.9036,-1.932,-1.9387,-1.9424,-1.9424,-1.9424,-1.9424,-1.9424,-1.9232,-1.9018,-1.8718,-1.8397,-1.8096,-1.7816,-1.7662,-1.7582,-1.7582,-1.7582,-1.7582,-1.7575,-1.6987,-1.6707,-1.6687,-1.6099,-1.5784,-1.5784,-1.5784,-1.5784,-1.5784,-1.5784,-1.5484,-1.5008,-1.5008,-1.4646,-1.4088,-1.4088,-1.4088,-1.4088,-1.4088,-1.4088,-1.4135,-1.4429,-1.4429,-1.4342,-1.4476,-1.4422,-1.4282,-1.4128,-1.4088,-1.4088,-1.4088,-1.4088,-1.4079,-1.3919,-1.3657,-1.3188,-1.2531,-1.1549,-1.0458,-0.9279,-0.8588,-0.7977,-0.7228,-0.7095,-0.7095,-0.7095,-0.7095,-0.7095,-0.7095,-0.6974,-0.6902,-0.6827,-0.6681,-0.6559,-0.6518,-0.645,-0.6378,-0.6306,-0.63,-0.63,-0.63,-0.63,-0.63,-0.63,-0.63,-0.63,-0.63,-0.63,-0.63,-0.63,-0.63,-0.63,-3.249,-3.2353,-3.1904,-3.1367,-2.9678,-2.7793,-2.6416,-2.4615,0.0,-2.1662,-2.0504,-1.9354,-1.8388,-1.7615,-1.7036,0.0,-1.7229,-1.7718,-1.829,-1.8862,-1.9326,0.0,-1.9466,0.0,-1.9482,-1.9424,0.0,-1.9424,-1.931,-1.8978,-1.8517,-1.7916,-1.7582,-1.7582,-1.7582,-1.7582,-1.7582,-1.7582,-1.7549,-1.7482,-1.6961,-1.6673,-1.6593,-1.6072,-1.5784,-1.5784,-1.5784,-1.5784,-1.5784,-1.5784,-1.5484,-1.5008,-1.5008,-1.4646,-1.4088,-1.4088,-1.4088,-1.4088,-1.4088,-1.4088,-1.4135,-1.4429,-1.4522,-1.4522,-1.4522,-1.4522,-1.4456,-1.4168,-1.4128,-1.4182,-1.4182,-1.4229,-1.4243,-1.4068,-1.3466,-1.2724,-1.1787,-1.1066,-1.0197,-0.9021,-0.8504,-0.7977,-0.7228,-0.7095,-0.7095,-0.7095,-0.7095,-0.7095,-0.7095,-0.7095,-0.7055,-0.6943,-0.6841,-0.6702,-0.658,-0.6539,-0.6501,-0.6354,-0.6344,-0.633,-0.6303,-0.63,-0.63,-0.63,-0.63,-0.63,-0.63,-0.63,-0.63,-0.63,-0.63,-0.63,-3.1885,-3.1904,-3.1377,-3.0527,-2.9014,-2.7327,-2.5624,0.0,-2.2331,-2.1393,-2.0491,-1.9673,-1.9042,-1.8454,-1.781,-1.6943,-1.7236,-1.7743,-1.8136,-1.8805,-1.9458,-2.0033,0.0,0.0,-1.9758,-1.9533,-1.9424,-1.9424,-1.8871,-1.8551,-1.8497,-1.7916,-1.7582,-1.7582,-1.7582,-1.7582,-1.7582,-1.7582,-1.7501,-1.7239,-1.686,-1.6567,-1.6299,-1.5979,-1.5784,-1.5784,-1.5784,-1.5784,-1.5784,-1.5784,-1.5484,-1.5008,-1.5008,-1.4646,-1.4088,-1.4088,-1.4088,-1.4088,-1.4088,-1.4088,-1.4135,-1.4429,-1.4522,-1.4522,-1.4522,-1.4522,-1.4456,-1.4168,-1.4282,-1.4482,-1.4482,-1.4683,-1.4711,-1.4013,-1.3112,-1.2276,-1.152,-1.0803,-0.9985,-0.8763,-0.8372,-0.7977,-0.7228,-0.7095,-0.7095,-0.7095,-0.7095,-0.7095,-0.7095,-0.7095,-0.7092,-0.7078,-0.695,-0.6859,-0.6846,-0.6759,-0.6614,-0.6501,-0.6494,-0.6433,-0.6306,-0.63,-0.63,-0.63,-0.63,-0.63,-0.63,-0.63,-0.63,-0.63,-0.63,-0.63,-3.1045,-3.1064,-3.0576,-2.9971,-2.835,-2.6445,-2.4697,0.0,-2.1885,-2.1016,-2.034,-1.9745,-1.9271,-1.8597,-1.807,-1.7989,-1.8117,-1.8456,-1.9193,-1.9787,-2.0166,-2.0233,-2.0243,0.0,0.0,0.0,-1.9591,-1.9424,-1.8824,-1.849,-1.849,-1.7916,-1.7582,-1.7582,-1.7582,-1.7582,-1.7582,-1.7582,-1.7494,-1.7199,-1.6847,-1.6553,-1.6308,-1.5965,-1.5784,-1.5784,-1.5784,-1.5784,-1.5784,-1.5784,-1.5591,-1.5204,-1.5075,-1.4867,-1.464,-1.4416,-1.4462,-1.4589,-1.4409,-1.4349,-1.4396,-1.4689,-1.4783,-1.4783,-1.4783,-1.4663,-1.4496,-1.4382,-1.4429,-1.4522,-1.4522,-1.4736,-1.4806,-1.4025,-1.3276,-1.2366,-1.1182,-1.0276,-0.9384,-0.8288,-0.7937,-0.7664,-0.7355,-0.7204,-0.7129,-0.7265,-0.7156,-0.7095,-0.7095,-0.7095,-0.7095,-0.7095,-0.7045,-0.6977,-0.6893,-0.6829,-0.6773,-0.662,-0.661,-0.6542,-0.6433,-0.6426,-0.6385,-0.6303,-0.63,-0.63,-0.63,-0.63,-0.63,-0.63,-0.63,-0.63,-2.9736,-2.9883,-2.956,-2.9268,-2.7685,-2.581,0.0,0.0,-2.167,-2.0918,-2.039,-1.9902,-1.9539,-1.8865,-1.8522,-1.8955,-1.8979,-1.9254,-2.005,-2.0614,-2.0825,-2.0577,0.0,-2.0482,-1.9914,-1.9745,-1.9591,-1.9424,-1.8824,-1.849,-1.849,-1.7916,-1.7582,-1.7582,-1.7582,-1.7582,-1.7582,-1.7582,-1.7494,-1.7199,-1.6847,-1.6553,-1.6308,-1.5965,-1.5784,-1.5784,-1.5784,-1.5784,-1.5784,-1.5784,-1.5658,-1.5378,-1.517,-1.5082,-1.4981,-1.473,-1.4783,-1.4981,-1.4723,-1.4649,-1.4703,-1.5042,-1.5135,-1.511,-1.5197,-1.5017,-1.4763,-1.4676,-1.4716,-1.4796,-1.4839,-1.5028,-1.5005,-1.4309,-1.3437,-1.242,-1.1083,-0.9934,-0.8924,-0.8049,-0.7704,-0.7531,-0.746,-0.735,-0.7312,-0.7421,-0.7305,-0.7207,-0.7207,-0.7125,-0.7095,-0.7095,-0.7095,-0.7055,-0.6957,-0.6947,-0.6883,-0.6776,-0.6766,-0.6698,-0.6546,-0.6538,-0.6463,-0.6364,-0.6361,-0.6361,-0.6361,-0.6361,-0.6361,-0.6361,-0.632,-0.63,-2.7851,-2.831,-2.831,-2.8301,-2.7012,-2.546,-2.4609,-2.3096,-2.1768,-2.1278,-2.0721,-2.0225,-1.9942,-1.9539,-1.9359,-1.9566,-1.9695,-1.9972,-2.0532,-2.106,-2.1362,0.0,-2.114,-2.0881,-2.0272,-1.9709,-1.9424,-1.9424,-1.8824,-1.849,-1.849,-1.7916,-1.7582,-1.7582,-1.7582,-1.7582,-1.7582,-1.7582,-1.7494,-1.7199,-1.6847,-1.6553,-1.6308,-1.5965,-1.5784,-1.5784,-1.5784,-1.5784,-1.5784,-1.5784,-1.5658,-1.5398,-1.5391,-1.5217,-1.5008,-1.5008,-1.5008,-1.5008,-1.5008,-1.5001,-1.5055,-1.5297,-1.5391,-1.5444,-1.5732,-1.5618,-1.5331,-1.5082,-1.5209,-1.5451,-1.5745,-1.5629,-1.535,-1.4825,-1.3567,-1.2232,-1.1221,-0.9889,-0.8745,-0.8204,-0.7867,-0.7689,-0.7617,-0.7597,-0.7597,-0.7597,-0.7465,-0.7415,-0.7415,-0.7234,-0.7095,-0.7095,-0.7095,-0.7095,-0.7095,-0.7095,-0.7034,-0.6893,-0.6883,-0.6858,-0.6705,-0.6552,-0.6511,-0.6511,-0.6511,-0.6511,-0.6511,-0.6511,-0.6511,-0.6508,-0.6364,-0.63,-2.6162,-2.6768,-2.6992,-2.6992,-2.6133,-2.498,-2.3818,-2.2695,-2.1768,-2.1288,-2.0731,-2.0264,-2.0186,-1.9794,-1.9687,-2.0217,-2.0287,-2.054,-2.1257,0.0,0.0,-2.1482,-2.0863,-2.0407,-2.028,-1.9768,-1.9424,-1.9424,-1.8824,-1.849,-1.849,-1.7916,-1.7582,-1.7582,-1.7582,-1.7582,-1.7582,-1.7582,-1.7494,-1.7199,-1.6847,-1.6553,-1.6308,-1.5965,-1.5784,-1.5784,-1.5784,-1.5784,-1.5784,-1.5784,-1.5724,-1.5671,-1.5471,-1.5464,-1.5531,-1.5331,-1.5384,-1.5524,-1.5331,-1.5257,-1.5277,-1.5364,-1.5398,-1.5451,-1.5745,-1.5625,-1.5378,-1.5284,-1.5324,-1.5464,-1.5752,-1.5737,-1.554,-1.4879,-1.3944,-1.2852,-1.1344,-1.0241,-0.9266,-0.8288,-0.8004,-0.7851,-0.7767,-0.7662,-0.7634,-0.7729,-0.7621,-0.7529,-0.7529,-0.7485,-0.7414,-0.7309,-0.7299,-0.7255,-0.7105,-0.7095,-0.7078,-0.7034,-0.7031,-0.6964,-0.6861,-0.681,-0.6736,-0.663,-0.6627,-0.6627,-0.6627,-0.6627,-0.6573,-0.6508,-0.6364,-0.63,-2.4609,-2.5205,-2.5488,-2.581,-2.5234,0.0,-2.3423,-2.2542,-2.1768,-2.1288,-2.076,-2.0411,-2.0411,-2.0186,-2.0163,-2.0711,-2.0844,-2.1061,-2.1577,-2.1795,0.0,-2.1579,-2.0888,-2.0394,-2.03,-1.988,-1.9435,-1.9212,-1.8758,-1.8444,-1.833,-1.7856,-1.7582,-1.7582,-1.7582,-1.7582,-1.7582,-1.7582,-1.7548,-1.736,-1.6901,-1.6613,-1.6426,-1.6019,-1.5784,-1.5784,-1.5784,-1.5784,0.0,-1.5784,-1.5784,-1.5764,-1.5631,-1.5671,-1.5758,-1.5625,-1.5671,-1.5758,-1.5625,-1.5558,-1.5558,-1.5558,-1.5558,-1.5591,-1.5724,-1.5705,-1.5558,-1.5558,-1.5558,-1.5605,-1.5785,-1.5784,-1.5689,-1.5118,-1.4376,-1.3386,-1.2024,-1.0859,-0.9769,-0.8745,-0.8316,-0.8013,-0.7921,-0.7824,-0.7794,-0.7885,-0.7773,-0.7678,-0.7678,-0.7634,-0.7563,-0.7468,-0.7453,-0.7333,-0.7238,-0.7129,-0.7095,-0.7095,-0.7095,-0.7058,-0.6967,-0.6913,-0.6839,-0.679,-0.6787,-0.6787,-0.6787,-0.6787,-0.6709,-0.6556,-0.6508,-0.6467,0.0,-2.3652,-2.3887,-2.4734,-2.4287,-2.3584,-2.3208,-2.2474,0.0,-2.1278,-2.0879,-2.0605,-2.0566,-2.0566,-2.0713,-2.1082,-2.1306,-2.1462,-2.1551,-2.1872,-2.1902,-2.1509,-2.0978,-2.0563,-2.03,-1.9989,-1.9577,-1.8945,-1.8651,-1.8364,-1.8009,-1.7749,-1.7582,-1.7582,-1.7582,-1.7582,-1.7582,-1.7582,-1.7569,-1.7549,-1.6974,-1.6693,-1.6653,-1.6086,-1.5784,-1.5784,-1.5784,-1.5784,-1.5784,-1.5784,-1.5784,-1.5784,-1.5784,-1.5784,-1.5784,-1.5784,-1.5784,-1.5784,-1.5784,-1.5784,-1.5784,-1.5784,-1.5784,-1.5784,-1.5784,-1.5784,-1.5784,-1.5784,-1.5784,-1.5784,-1.5784,-1.5784,-1.5737,-1.554,-1.4766,-1.3871,-1.311,-1.162,-1.0235,-0.9463,-0.8742,-0.8223,-0.8018,-0.7988,-0.7988,-0.7988,-0.7919,-0.7828,-0.7828,-0.7712,-0.7628,-0.7614,-0.7478,-0.7429,-0.7419,-0.7227,-0.7095,-0.7095,-0.7095,-0.7095,-0.7095,-0.697,-0.6903,-0.6903,-0.6903,-0.6903,-0.6903,-0.6889,-0.6854,-0.6715,-0.6705,-0.6702,-2.1631,0.0,-2.2861,-2.3066,-2.2959,-2.2705,0.0,-2.1768,-2.1317,-2.122,-2.0879,-2.0566,-2.042,-2.0381,-2.0438,-2.0711,-2.0761,-2.082,-2.1098,-2.1032,-2.0928,-2.0813,-2.0574,-2.0344,-2.03,-1.9989,-1.9577,-1.8945,-1.8651,-1.8364,-1.8009,-1.7749,-1.7582,-1.7582,-1.7582,-1.7582,-1.7582,-1.7582,-1.7521,-1.73,-1.6881,-1.6587,-1.6359,-1.5992,-1.5784,-1.5784,-1.5784,-1.5784,-1.5784,-1.5784,-1.5784,-1.5784,-1.5784,-1.5784,-1.5784,-1.5784,-1.5784,-1.5784,-1.5784,-1.5784,-1.5784,-1.5784,-1.5784,-1.5784,-1.5784,-1.5784,-1.5784,-1.5784,-1.5784,-1.5784,-1.5784,-1.5784,-1.5737,-1.554,-1.5162,-1.4539,-1.3385,-1.2495,-1.1442,-0.9892,-0.9271,-0.8742,-0.8134,-0.7988,-0.7988,-0.7988,-0.7961,-0.7934,-0.7934,-0.7907,-0.7843,-0.7773,-0.7631,-0.7499,-0.7429,-0.7227,-0.7095,-0.7095,-0.7095,-0.7095,-0.7095,-0.7065,-0.7048,-0.7048,-0.7048,-0.7048,-0.7048,-0.694,-0.6866,-0.6829,-0.6756,-0.6702,-2.0859,-2.1416,-2.1973,-2.2178,-2.2227,-2.2109,-2.168,-2.1366,-2.1142,-2.0967,-2.0693,-2.0411,-2.0303,-2.0186,-2.0163,-2.0379,-2.038,-2.0411,-2.0657,-2.0538,-2.046,-2.0619,-2.0562,-2.0457,-2.03,-1.9972,-1.9487,-1.8744,-1.845,-1.815,-1.7849,-1.7675,-1.7582,-1.7582,-1.7582,-1.7582,-1.7582,-1.7582,-1.7494,-1.7199,-1.6847,-1.6553,-1.6308,-1.5965,-1.5784,-1.5784,-1.5784,-1.5784,-1.5784,-1.5784,-1.5784,-1.5784,-1.5784,-1.5784,-1.5784,-1.5784,-1.5784,-1.5784,-1.5784,-1.5784,-1.5784,-1.5784,-1.5784,-1.5784,-1.5784,-1.5784,-1.5784,-1.5784,-1.5784,-1.5784,-1.5784,-1.5784,-1.5784,-1.5642,-1.5452,-1.4978,-1.3921,-1.3089,-1.2027,-1.0365,-0.9559,-0.8935,-0.8141,-0.7988,-0.7988,-0.7988,-0.7988,-0.7988,-0.7988,-0.7988,-0.7931,-0.7828,-0.7685,-0.7539,-0.7429,-0.7227,-0.7095,-0.7095,-0.7095,-0.7095,-0.7095,-0.7095,-0.7095,-0.7095,-0.7095,-0.7095,-0.7095,-0.7018,-0.698,-0.698,-0.69,-0.6902,-2.0605,-2.084,-2.1181,-2.1592,-2.1689,-2.1592,-2.1221,-2.1093,-2.1025,-2.0683,0.0,-2.0264,-2.0225,-1.9998,-1.9918,-2.014,-2.0119,-2.0084,-2.017,-2.0118,-2.019,-2.0574,-2.0635,-2.0563,-2.03,-1.9933,-1.9409,-1.8566,-1.8217,-1.7856,-1.7602,-1.7582,-1.7582,-1.7582,-1.7582,-1.7582,-1.7582,-1.7542,-1.742,-1.7132,-1.678,-1.6486,-1.6192,-1.5945,-1.5784,-1.5784,-1.5784,-1.5784,-1.5784,-1.5784,-1.5784,-1.5784,-1.5784,-1.5784,-1.5784,-1.5784,-1.5784,-1.5784,-1.5784,-1.5784,-1.5784,-1.5784,-1.5784,-1.5784,-1.5784,-1.5784,-1.5784,-1.5784,-1.5784,-1.5784,-1.5784,-1.5784,-1.5784,-1.5784,-1.5683,-1.535,-1.4538,-1.3565,-1.2393,-1.0801,-0.9821,-0.8985,-0.8187,-0.8038,-0.7988,-0.7988,-0.7988,-0.7988,-0.7988,-0.7988,-0.7931,-0.7828,-0.7685,-0.7539,-0.7429,-0.7227,-0.7095,-0.7095,-0.7095,-0.7095,-0.7095,-0.7095,-0.7095,-0.7095,-0.7095,-0.7095,-0.7095,-0.7095,-0.7095,-0.7095,-0.7095,-0.7095,-2.0605,-2.0654,-2.0723,-2.0791,-2.0811,-2.0791,-2.0723,-2.0703,-2.0683,-2.0615,-2.0459,-2.0186,-1.9803,-1.9644,-1.9659,-1.9999,-1.9964,-1.9878,-1.9652,-1.9501,-1.9632,-2.0212,-2.0344,-2.0344,-2.03,-1.977,-1.9192,-1.8566,-1.8217,-1.7856,-1.7602,-1.7582,-1.7582,-1.7582,-1.7582,-1.7582,-1.7582,-1.7387,-1.7119,-1.6767,-1.648,-1.6186,-1.5899,-1.5804,-1.5784,-1.5784,-1.5784,-1.5784,-1.5784,-1.5784,-1.5784,-1.5784,-1.5784,-1.5784,-1.5784,-1.5784,-1.5784,-1.5784,-1.5784,-1.5784,-1.5784,-1.5784,-1.5784,-1.5784,-1.5784,-1.5784,-1.5784,-1.5784,-1.5784,-1.5784,-1.5784,-1.5784,-1.5784,-1.5784,-1.5784,-1.5547,-1.4783,-1.3956,-1.2931,-1.1389,-1.0216,-0.9282,-0.8482,-0.8137,-0.7988,-0.7988,-0.7988,-0.7988,-0.7988,-0.7988,-0.7931,-0.7828,-0.7685,-0.7539,-0.7429,-0.7227,-0.7095,-0.7095,-0.7095,-0.7095,-0.7095,-0.7095,-0.7095,-0.7095,-0.7095,-0.7095,-0.7095,-0.7095,-0.7095,-0.7095,-0.7095,-0.7095,-2.0605,-2.0605,-2.0605,-2.0605,-2.0527,-2.0459,-2.0459,-2.0398,-2.0393,-2.0393,-2.018,-1.9971,-1.9734,-1.938,-1.917,-1.953,-1.9624,-1.9654,-1.9643,-1.9444,-1.9474,-1.9952,-2.0011,-2.0054,-2.0012,-1.9504,-1.8959,-1.8559,-1.8063,-1.7736,-1.7589,-1.7582,-1.7582,-1.7582,-1.7582,-1.7582,-1.7582,-1.7134,-1.684,-1.67,-1.6413,-1.6119,-1.5784,-1.5784,-1.5784,-1.5784,-1.5784,-1.5784,-1.5784,-1.5784,-1.5784,-1.5784,-1.5784,-1.5784,-1.5784,-1.5784,-1.5784,-1.5784,-1.5784,-1.5784,-1.5784,-1.5784,-1.5784,-1.5784,-1.5784,-1.5784,-1.5784,-1.5784,-1.5784,-1.5784,-1.5784,-1.5784,-1.5784,-1.5784,-1.5784,-1.5588,-1.4879,-1.4196,-1.3227,-1.1536,-1.0462,-0.9525,-0.8581,-0.8187,-0.7988,-0.7988,-0.7988,-0.7988,-0.7988,-0.7988,-0.7931,-0.7828,-0.7685,-0.7539,-0.7429,-0.7227,-0.7095,-0.7095,-0.7095,-0.7095,-0.7095,-0.7095,-0.7095,-0.7095,-0.7095,-0.7095,-0.7095,-0.7095,-0.7095,-0.7095,-0.7095,-0.7095,-2.0605,-2.0605,-2.0605,-2.0527,-2.0411,-2.0332,-2.035,-2.0219,-2.0098,-2.0158,-1.9883,-1.9589,-1.9555,-1.9072,-1.8749,-1.9055,-1.9231,-1.9417,-1.9592,-1.9419,-1.9431,-1.978,-1.9815,-1.9784,-1.9788,-1.9212,-1.8705,-1.8546,-1.7929,-1.7582,-1.7582,-1.7582,-1.7582,-1.7582,-1.7582,-1.7582,-1.7582,-1.7068,-1.6774,-1.67,-1.6339,-1.6052,-1.5784,-1.5784,-1.5784,-1.5784,-1.5784,-1.5784,-1.5784,-1.5784,-1.5784,-1.5784,-1.5784,-1.5784,-1.5784,-1.5784,-1.5784,-1.5784,-1.5784,-1.5784,-1.5784,-1.5784,-1.5784,-1.5784,-1.5784,-1.5784,-1.5784,-1.5784,-1.5784,-1.5784,-1.5784,-1.5784,-1.5784,-1.5784,-1.5784,-1.5635,-1.5022,-1.4388,-1.342,-1.1868,-1.0703,-0.9723,-0.873,-0.8237,-0.7988,-0.7988,-0.7988,-0.7988,-0.7988,-0.7988,-0.7931,-0.7828,-0.7712,-0.7573,-0.7433,-0.7261,-0.7136,-0.7098,-0.7095,-0.7095,-0.7095,-0.7095,-0.7095,-0.7095,-0.7095,-0.7095,-0.7095,-0.7095,-0.7095,-0.7095,-0.7095,-0.7095,-2.0605,-2.0605,-2.0566,-2.0381,-2.0303,-2.0321,-2.0465,-2.0123,-1.9893,-2.0057,-1.9554,-1.9016,-1.881,-1.8611,-1.8562,-1.8803,-1.889,-1.9015,-1.9269,-1.9361,-1.9506,-1.9752,-1.9782,-1.9788,-1.9809,-1.9057,-1.8546,-1.849,-1.7929,-1.7582,-1.7582,-1.7582,-1.7582,-1.7582,-1.7582,-1.7582,-1.7582,-1.7326,-1.7032,-1.67,-1.6132,-1.5804,-1.5784,-1.5784,-1.5784,-1.5784,-1.5784,-1.5784,-1.5784,-1.5784,-1.5784,-1.5784,-1.5784,-1.5784,-1.5784,-1.5784,-1.5784,-1.5784,-1.5784,-1.5784,-1.5784,-1.5784,-1.5784,-1.5784,-1.5784,-1.5784,-1.5784,-1.5784,-1.5784,-1.5784,-1.5784,-1.5784,-1.5784,-1.5784,-1.5784,-1.573,-1.5493,-1.4627,-1.3661,-1.278,-1.1184,-0.9821,-0.9232,-0.8485,-0.7988,-0.7988,-0.7988,-0.7988,-0.7988,-0.7988,-0.7931,-0.7828,-0.7801,-0.7682,-0.7443,-0.7405,-0.7292,-0.7105,-0.7095,-0.7095,-0.7095,-0.7095,-0.7095,-0.7095,-0.7095,-0.7095,-0.7095,-0.7095,-0.7095,-0.7095,-0.7095,-0.7095,-2.0605,-2.0489,-2.0342,-2.0098,-1.9942,-1.9764,-1.9657,-1.9395,-1.9159,-1.9176,-1.8932,-1.8629,-1.8221,-1.8442,-1.8753,-1.8844,-1.9027,-1.9236,-1.9595,-1.9462,-1.9428,-1.9537,-1.9523,-1.9533,-1.9533,-1.8888,-1.849,-1.849,-1.7929,-1.7582,-1.7582,-1.7582,-1.7582,-1.7582,-1.7582,-1.7582,-1.7582,-1.7347,-1.7052,-1.67,-1.6299,-1.6005,-1.5784,-1.5784,-1.5784,-1.5784,-1.5784,-1.5784,-1.5784,-1.5784,-1.5784,-1.5784,-1.5784,-1.5784,-1.5784,-1.5784,-1.5784,-1.5784,-1.5784,-1.5784,-1.5784,-1.5784,-1.5784,-1.5784,-1.5784,-1.5784,-1.5784,-1.5784,-1.5784,-1.5784,-1.5784,-1.5784,-1.5784,-1.5784,-1.5784,-1.573,-1.554,-1.4921,-1.4052,-1.2926,-1.1619,-1.0413,-0.9385,-0.8687,-0.8187,-0.8038,-0.7988,-0.7988,-0.7988,-0.7988,-0.7968,-0.7911,-0.7868,-0.7729,-0.7529,-0.7512,-0.7448,-0.7292,-0.7149,-0.7095,-0.7095,-0.7095,-0.7095,-0.7095,-0.7095,-0.7095,-0.7095,-0.7095,-0.7095,-0.7095,-0.7095,-0.7095,-2.0527,-2.0333,-2.0069,-1.9706,-1.9412,-1.9105,-1.8786,-1.8712,-1.8715,-1.8566,-1.8434,-1.8222,-1.7782,-1.8189,-1.8622,-1.8759,-1.898,-1.9296,-1.9601,-1.954,-1.9424,-1.9424,-1.9424,-1.939,-1.9239,-1.8784,-1.845,-1.8357,-1.7869,-1.7582,-1.7582,-1.7582,-1.7582,-1.7582,-1.7582,-1.7582,-1.7582,-1.7347,-1.7052,-1.67,-1.6413,-1.6119,-1.5784,-1.5784,-1.5784,-1.5784,-1.5784,-1.5784,-1.5784,-1.5784,-1.5784,-1.5784,-1.5784,-1.5784,-1.5784,-1.5784,-1.5784,-1.5784,-1.5784,-1.5784,-1.5784,-1.5784,-1.5784,-1.5784,-1.5784,-1.5844,-1.5972,-1.5972,-1.6032,-1.6057,-1.6057,-1.5917,-1.5784,-1.5784,-1.5784,-1.5778,-1.5635,-1.5118,-1.4394,-1.327,-1.2063,-1.085,-0.9677,-0.8882,-0.8333,-0.8038,-0.7988,-0.7988,-0.7988,-0.7988,-0.7988,-0.7988,-0.7897,-0.7824,-0.7678,-0.7665,-0.7604,-0.7451,-0.7299,-0.7146,-0.7098,-0.7095,-0.7095,-0.7095,-0.7095,-0.7095,-0.7095,-0.7095,-0.7095,-0.7095,-0.7095,-0.7095,-2.0333,-2.0098,-1.9745,-1.9161,-1.8754,-1.8355,-1.7914,-1.8193,-1.8582,-1.8529,-1.8143,-1.7775,-1.7568,-1.7773,-1.8122,-1.8452,-1.8738,-1.9032,-1.9325,-1.9424,-1.9424,-1.9424,-1.9417,-1.9239,-1.8951,-1.8657,-1.8364,-1.8015,-1.7756,-1.7582,-1.7582,-1.7582,-1.7582,-1.7582,-1.7582,-1.7582,-1.7582,-1.734,-1.7045,-1.67,-1.6413,-1.6119,-1.5784,-1.5784,-1.5784,-1.5784,-1.5784,-1.5784,-1.5784,-1.5784,-1.5784,-1.5784,-1.5784,-1.5784,-1.5784,-1.5784,-1.5784,-1.5784,-1.5784,-1.5784,-1.5784,-1.5784,-1.5784,-1.5784,-1.5784,-1.6039,-1.6321,-1.6321,-1.648,-1.6707,-1.6707,-1.6273,-1.5791,-1.5832,-1.5784,-1.5784,-1.5784,-1.5213,-1.4544,-1.4004,-1.2452,-1.0949,-1.0167,-0.9126,-0.8333,-0.8038,-0.7988,-0.7988,-0.7988,-0.7988,-0.7988,-0.7988,-0.7988,-0.7928,-0.7828,-0.7814,-0.7753,-0.7611,-0.7458,-0.7305,-0.7105,-0.7095,-0.7095,-0.7095,-0.7095,-0.7095,-0.7095,-0.7095,-0.7095,-0.7095,-0.7095,-0.7095,-1.9554,-1.916,-1.8749,-1.8315,-1.823,-1.8125,-1.7735,-1.7951,-1.8299,-1.8478,-1.8378,-1.8259,-1.8185,-1.844,-1.8646,-1.8764,-1.9045,-1.9265,-1.9417,-1.9185,-1.9058,-1.9058,-1.8878,-1.8718,-1.8631,-1.835,-1.8089,-1.8002,-1.7756,-1.7582,-1.7582,-1.7582,-1.7582,-1.7582,-1.7434,-1.7333,-1.7333,-1.6987,-1.6687,-1.64,-1.6362,-1.6119,-1.5784,-1.5784,-1.5784,-1.5784,-1.5784,-1.5784,-1.5784,-1.5784,-1.5784,-1.5784,-1.5784,-1.5784,-1.5784,-1.5784,-1.5784,-1.5784,-1.5784,-1.5784,-1.5784,-1.5784,-1.5784,-1.5784,-1.5784,-1.6039,-1.6321,-1.6321,-1.648,-1.6707,-1.6707,-1.658,-1.6393,-1.6192,-1.5979,-1.5784,-1.5784,-1.5547,-1.5064,-1.4346,-1.3125,-1.1912,-1.0752,-0.9673,-0.8783,-0.8336,-0.8137,-0.7988,-0.7988,-0.7988,-0.7988,-0.7988,-0.7988,-0.7971,-0.7928,-0.7921,-0.786,-0.7756,-0.7706,-0.7567,-0.7312,-0.7156,-0.7095,-0.7095,-0.7095,-0.7095,-0.7095,-0.7095,-0.7095,-0.7095,-0.7095,-0.7095,-1.9099,-1.8701,-1.8301,-1.7788,-1.7767,-1.7895,-1.7898,-1.7996,-1.8163,-1.8461,-1.849,-1.8457,-1.8337,-1.8551,-1.8711,-1.8584,-1.8818,-1.9018,-1.9018,-1.8865,-1.8751,-1.8751,-1.8597,-1.8444,-1.8323,-1.8095,-1.7942,-1.7869,-1.7689,-1.7582,-1.7582,-1.7582,-1.7528,-1.7467,-1.7293,-1.7146,-1.6974,-1.668,-1.6446,-1.6321,-1.6152,-1.6005,-1.5784,-1.5784,-1.5784,-1.5784,-1.5784,-1.5784,-1.5784,-1.5784,-1.5784,-1.5784,-1.5784,-1.5784,-1.5784,-1.5784,-1.5784,-1.5784,-1.5784,-1.5784,-1.5784,-1.5784,-1.5784,-1.5784,-1.5784,-1.6039,-1.6299,-1.6413,-1.666,-1.6907,-1.7021,-1.6967,-1.6807,-1.6513,-1.6219,-1.6005,-1.6005,-1.5721,-1.5302,-1.4586,-1.3613,-1.2441,-1.1194,-1.0064,-0.9126,-0.8482,-0.8187,-0.7988,-0.7988,-0.7988,-0.7988,-0.7988,-0.7988,-0.7988,-0.7988,-0.7988,-0.7951,-0.7909,-0.7845,-0.7733,-0.7553,-0.7343,-0.7204,-0.7098,-0.7095,-0.7095,-0.7095,-0.7095,-0.7095,-0.7095,-0.7095,-0.7095,-1.8811,-1.8473,-1.8154,-1.74,-1.744,-1.7773,-1.8321,-1.8284,-1.8204,-1.8506,-1.8571,-1.8477,-1.8129,-1.835,-1.843,-1.811,-1.8303,-1.849,-1.849,-1.847,-1.845,-1.845,-1.8424,-1.8303,-1.7975,-1.7949,-1.7883,-1.7602,-1.7582,-1.7569,-1.7542,-1.7542,-1.746,-1.7172,-1.7132,-1.6991,-1.6667,-1.638,-1.6233,-1.6226,-1.5959,-1.5784,-1.5784,-1.5784,-1.5784,-1.5784,-1.5784,-1.5784,-1.5784,-1.5784,-1.5784,-1.5784,-1.5784,-1.5784,-1.5784,-1.5784,-1.5784,-1.5784,-1.5784,-1.5784,-1.5784,-1.5784,-1.5784,-1.5784,-1.5784,-1.6039,-1.6326,-1.6587,-1.6901,-1.7266,-1.7475,-1.742,-1.7172,-1.6847,-1.6547,-1.6355,-1.6328,-1.5934,-1.5469,-1.4923,-1.3937,-1.2818,-1.1609,-1.0413,-0.9365,-0.8482,-0.8137,-0.7988,-0.7988,-0.7988,-0.7988,-0.7988,-0.7988,-0.7988,-0.7988,-0.7988,-0.7988,-0.7988,-0.7909,-0.7824,-0.7811,-0.7529,-0.7312,-0.7139,-0.7125,-0.7125,-0.7139,-0.7139,-0.7139,-0.7139,-0.7139,-0.7139,-1.7978,-1.7411,-1.6927,-1.673,-1.7278,-1.8057,-1.8663,-1.874,-1.88,-1.9162,-1.9236,-1.9085,-1.8791,-1.8791,-1.8731,-1.8437,-1.8444,-1.849,-1.849,-1.829,-1.8089,-1.8089,-1.7923,-1.7756,-1.7689,-1.7682,-1.7655,-1.7589,-1.7582,-1.7534,-1.7306,-1.7293,-1.7159,-1.6807,-1.658,-1.6482,-1.6366,-1.6072,-1.5925,-1.5925,-1.5811,-1.5784,-1.5784,-1.5784,-1.5784,-1.5784,-1.5784,-1.5784,-1.5784,-1.5784,-1.5784,-1.5784,-1.5784,-1.5784,-1.5784,-1.5784,-1.5784,-1.5784,-1.5784,-1.5784,-1.5784,-1.5784,-1.5784,-1.5784,-1.5784,-1.6039,-1.6286,-1.6346,-1.6797,-1.7213,-1.728,-1.742,-1.7475,-1.7408,-1.6994,-1.6553,-1.6375,-1.635,-1.6298,-1.5726,-1.4796,-1.3753,-1.2913,-1.1189,-0.9521,-0.8287,-0.8038,-0.7988,-0.7988,-0.7988,-0.7988,-0.7988,-0.7988,-0.7988,-0.7988,-0.7988,-0.7988,-0.7988,-0.7958,-0.7887,-0.7818,-0.7529,-0.7411,-0.7499,-0.7383,-0.738,-0.7502,-0.7502,-0.7502,-0.7502,-0.7502,-0.7502,-1.7851,-1.7368,-1.713,-1.7184,-1.7726,-1.8347,-1.8784,-1.9032,-1.9178,-1.9332,-1.9424,-1.9279,-1.8978,-1.8925,-1.8784,-1.835,-1.8277,-1.823,-1.8076,-1.7923,-1.7822,-1.7822,-1.7682,-1.7582,-1.7582,-1.7582,-1.7582,-1.7582,-1.7507,-1.736,-1.7206,-1.7065,-1.68,-1.6506,-1.6353,-1.6206,-1.6059,-1.5905,-1.5784,-1.5784,-1.5784,-1.5784,-1.5784,-1.5784,-1.5784,-1.5784,-1.5784,-1.5784,-1.5784,-1.5784,-1.5784,-1.5784,-1.5784,-1.5784,-1.5784,-1.5784,-1.5784,-1.5784,-1.5784,-1.5784,-1.5784,-1.5784,-1.5784,-1.5784,-1.5784,-1.5939,-1.6092,-1.6233,-1.6543,-1.6844,-1.7125,-1.7313,-1.746,-1.7549,-1.7241,-1.6874,-1.6777,-1.67,-1.656,-1.616,-1.5432,-1.453,-1.3402,-1.1222,-0.9278,-0.8336,-0.8088,-0.7988,-0.7988,-0.7988,-0.7988,-0.7988,-0.7988,-0.7988,-0.7988,-0.7988,-0.7988,-0.7988,-0.7988,-0.7955,-0.7923,-0.7702,-0.7587,-0.76,-0.7519,-0.7519,-0.76,-0.76,-0.76,-0.76,-0.76,-0.76,-1.8095,-1.7707,-1.7629,-1.7803,-1.8196,-1.8564,-1.8858,-1.9152,-1.9424,-1.9424,-1.9424,-1.9279,-1.8978,-1.8925,-1.8751,-1.8155,-1.8029,-1.7902,-1.7702,-1.7615,-1.7582,-1.7582,-1.7582,-1.7582,-1.7582,-1.7582,-1.7562,-1.7508,-1.734,-1.7159,-1.7052,-1.676,-1.6493,-1.6206,-1.6192,-1.6079,-1.5784,-1.5784,-1.5784,-1.5784,-1.5784,-1.5784,-1.5784,-1.5784,-1.5784,-1.5784,-1.5784,-1.5784,-1.5784,-1.5784,-1.5784,-1.5784,-1.5784,-1.5784,-1.5784,-1.5784,-1.5784,-1.5784,-1.5784,-1.5784,-1.5784,-1.5784,-1.5784,-1.5784,-1.5784,-1.5784,-1.5879,-1.6126,-1.6281,-1.6386,-1.6924,-1.7125,-1.7266,-1.7501,-1.7414,-1.7266,-1.7213,-1.6994,-1.6797,-1.6504,-1.5885,-1.4847,-1.323,-1.0924,-0.9133,-0.8482,-0.8187,-0.7988,-0.7988,-0.7988,-0.7988,-0.7988,-0.7988,-0.7988,-0.7988,-0.7988,-0.7988,-0.7988,-0.7988,-0.7988,-0.7988,-0.787,-0.7794,-0.7678,-0.7648,-0.7648,-0.7675,-0.7675,-0.7675,-0.7675,-0.7675,-0.7675,-1.8416,-1.7762,-1.733,-1.7521,-1.8036,-1.8564,-1.8858,-1.9152,-1.9424,-1.9424,-1.9424,-1.9279,-1.8978,-1.8925,-1.8818,-1.8484,-1.8217,-1.7975,-1.7935,-1.7756,-1.7582,-1.7582,-1.7582,-1.7582,-1.7582,-1.7582,-1.7475,-1.728,-1.7226,-1.6978,-1.6462,-1.6402,-1.6192,-1.5899,-1.5885,-1.5872,-1.5784,-1.5784,-1.5784,-1.5784,-1.5784,-1.5784,-1.5784,-1.5784,-1.5784,-1.5784,-1.5784,-1.5784,-1.5784,-1.5784,-1.5784,-1.5784,-1.5784,-1.5784,-1.5784,-1.5784,-1.5784,-1.5784,-1.5784,-1.5784,-1.5784,-1.5784,-1.5784,-1.5784,-1.5784,-1.5784,-1.5791,-1.5831,-1.6072,-1.6342,-1.6415,-1.6817,-1.7213,-1.7246,-1.742,-1.7455,-1.7253,-1.7367,-1.7395,-1.7141,-1.5909,-1.4235,-1.2184,-1.0735,-0.9575,-0.8531,-0.8187,-0.7988,-0.7988,-0.7988,-0.7988,-0.7988,-0.7988,-0.7988,-0.7988,-0.7988,-0.7988,-0.7988,-0.7988,-0.7988,-0.7988,-0.7971,-0.7951,-0.7931,-0.7848,-0.7848,-0.7931,-0.7931,-0.7931,-0.7931,-0.7931,-0.7931,-1.8484,-1.7877,-1.7576,-1.7626,-1.797,-1.8272,-1.8633,-1.8784,-1.8878,-1.8878,-1.8878,-1.8938,-1.9132,-1.9172,-1.9025,-1.8564,-1.8384,-1.8176,-1.7836,-1.7669,-1.7582,-1.7582,-1.7582,-1.7515,-1.7407,-1.7393,-1.7266,-1.6921,-1.6797,-1.6596,-1.6286,-1.6112,-1.5965,-1.5784,-1.5784,-1.5784,-1.5784,-1.5784,-1.5784,-1.5784,-1.5784,-1.5784,-1.5784,-1.5784,-1.5784,-1.5784,-1.5784,-1.5784,-1.5784,-1.5784,-1.5784,-1.5784,-1.5784,-1.5784,-1.5784,-1.5784,-1.5784,-1.5784,-1.5784,-1.5784,-1.5784,-1.5784,-1.5784,-1.5784,-1.5784,-1.5784,-1.5784,-1.5784,-1.5925,-1.6059,-1.6226,-1.6516,-1.675,-1.686,-1.7128,-1.7353,-1.7233,-1.7427,-1.7496,-1.7271,-1.6019,-1.4504,-1.2985,-1.135,-0.9888,-0.8996,-0.8386,-0.7988,-0.7988,-0.7988,-0.7988,-0.7988,-0.7988,-0.7988,-0.7988,-0.7988,-0.7988,-0.7988,-0.7988,-0.7988,-0.7988,-0.7988,-0.7988,-0.7988,-0.7924,-0.7924,-0.7988,-0.7988,-0.7988,-0.7988,-0.7988,-0.7988,-1.8609,-1.8146,-1.7911,-1.7804,-1.785,-1.8037,-1.8306,-1.8378,-1.8397,-1.8477,-1.849,-1.8624,-1.9065,-1.9145,-1.9005,-1.8564,-1.8357,-1.8103,-1.7649,-1.7455,-1.7361,-1.7361,-1.7361,-1.7275,-1.7105,-1.7092,-1.6965,-1.662,-1.6393,-1.6239,-1.6166,-1.5952,-1.5784,-1.5784,-1.5784,-1.5784,-1.5784,-1.5784,-1.5784,-1.5784,-1.5784,-1.5784,-1.5784,-1.5784,-1.5784,-1.5784,-1.5784,-1.5784,-1.5784,-1.5784,-1.5784,-1.5784,-1.5784,-1.5784,-1.5784,-1.5784,-1.5784,-1.5784,-1.5784,-1.5784,-1.5784,-1.5784,-1.5784,-1.5784,-1.5784,-1.5784,-1.5784,-1.5784,-1.5784,-1.5879,-1.6106,-1.6219,-1.6326,-1.6547,-1.682,-1.7132,-1.728,-1.7481,-1.7536,-1.7226,-1.6206,-1.4954,-1.3887,-1.2028,-1.0394,-0.9418,-0.861,-0.8088,-0.7988,-0.7988,-0.7988,-0.7988,-0.7988,-0.7988,-0.7988,-0.7988,-0.7988,-0.7988,-0.7988,-0.7988,-0.7988,-0.7988,-0.7988,-0.7988,-0.7988,-0.7988,-0.7988,-0.7988,-0.7988,-0.7988,-0.7988,-0.7988,-1.8939,-1.8569,-1.8239,-1.7762,-1.7751,-1.7918,-1.7989,-1.8023,-1.8095,-1.843,-1.849,-1.8504,-1.8531,-1.8537,-1.8531,-1.8497,-1.8009,-1.7622,-1.7589,-1.7101,-1.6747,-1.6747,-1.6747,-1.6747,-1.6734,-1.6727,-1.6607,-1.6319,-1.6328,-1.6152,-1.5818,-1.5791,-1.5784,-1.5784,-1.5784,-1.5784,-1.5784,-1.5784,-1.5784,-1.5784,-1.5784,-1.5784,-1.5784,-1.5784,-1.5784,-1.5784,-1.5784,-1.5784,-1.5784,-1.5784,-1.5784,-1.5784,-1.5784,-1.5784,-1.5784,-1.5784,-1.5784,-1.5784,-1.5784,-1.5784,-1.5784,-1.5784,-1.5784,-1.5784,-1.5784,-1.5784,-1.5784,-1.5784,-1.5784,-1.5784,-1.5798,-1.6059,-1.6279,-1.6342,-1.652,-1.6881,-1.7442,-1.7569,-1.7536,-1.7226,-1.652,-1.5533,-1.4102,-1.2587,-1.1093,-0.9669,-0.8879,-0.8283,-0.8038,-0.7988,-0.7988,-0.7988,-0.7988,-0.7988,-0.7988,-0.7988,-0.7988,-0.7988,-0.7988,-0.7988,-0.7988,-0.7988,-0.7988,-0.7988,-0.7988,-0.7988,-0.7988,-0.7988,-0.7988,-0.7988,-0.7988,-0.7988,-1.9276,-1.8878,-1.8483,-1.7824,-1.7569,-1.7442,-1.7427,-1.7268,-1.7268,-1.7621,-1.7688,-1.7688,-1.7688,-1.7943,-1.8143,-1.7943,-1.7621,-1.7293,-1.7048,-1.684,-1.6707,-1.6707,-1.6707,-1.6633,-1.6446,-1.6426,-1.6306,-1.6012,-1.5985,-1.5939,-1.5791,-1.5784,-1.5784,-1.5784,-1.5784,-1.5738,-1.5551,-1.5364,-1.5277,-1.5277,-1.5464,-1.5551,-1.5558,-1.5745,-1.5784,-1.5784,-1.5784,-1.5784,-1.5784,-1.5784,-1.5784,-1.5784,-1.5784,-1.5784,-1.5784,-1.5784,-1.5784,-1.5784,-1.5784,-1.5784,-1.5784,-1.5784,-1.5784,-1.5784,-1.5784,-1.5784,-1.5784,-1.5784,-1.5784,-1.5784,-1.5784,-1.5905,-1.6039,-1.6226,-1.6353,-1.6587,-1.7226,-1.7507,-1.7582,-1.7483,-1.6765,-1.585,-1.4838,-1.3195,-1.1549,-1.0277,-0.9229,-0.8452,-0.8052,-0.7988,-0.7988,-0.7988,-0.7988,-0.7988,-0.7988,-0.7988,-0.7988,-0.7988,-0.7988,-0.7988,-0.7988,-0.7988,-0.7988,-0.7988,-0.7988,-0.7988,-0.7988,-0.7988,-0.7988,-0.7988,-0.7988,-0.7988,-1.9666,0.0,0.0,0.0,-1.7566,-1.7265,-1.7203,-1.6904,-1.6718,-1.7073,-1.716,-1.716,-1.7052,-1.7248,-1.7415,-1.7301,-1.7048,-1.6837,-1.6587,-1.6473,-1.6413,-1.6413,-1.6413,-1.6333,-1.6146,-1.6126,-1.6046,-1.5798,-1.5784,-1.5738,-1.5691,-1.5685,-1.5638,-1.5538,-1.5538,-1.5444,-1.5251,-1.5109,-1.5008,-1.5015,-1.5157,-1.5251,-1.5257,-1.5551,-1.5685,-1.5691,-1.5738,-1.5784,-1.5784,-1.5784,-1.5784,-1.5784,-1.5784,-1.5784,-1.5784,-1.5784,-1.5784,-1.5784,-1.5784,-1.5784,-1.5784,-1.5784,-1.5784,-1.5784,-1.5784,-1.5784,-1.5784,-1.5784,-1.5784,-1.5784,-1.5784,-1.5784,-1.5879,-1.6079,-1.6199,-1.6429,-1.6817,-1.7213,-1.7468,-1.7562,-1.706,-1.6321,-1.5498,-1.3915,-1.2316,-1.0993,-0.9721,-0.8765,-0.8208,-0.8038,-0.7988,-0.7988,-0.7988,-0.7988,-0.7988,-0.7988,-0.7988,-0.7988,-0.7988,-0.7988,-0.7988,-0.7988,-0.7988,-0.7988,-0.7988,-0.7988,-0.7988,-0.7988,-0.7988,-0.7988,-0.7988,-0.7988,0.0,0.0,0.0,0.0,-1.7808,-1.7365,-1.7296,-1.6875,-1.6579,-1.6956,-1.7086,-1.6993,-1.673,-1.6446,-1.6346,-1.662,-1.6433,-1.6246,-1.6246,-1.5992,-1.5758,-1.5758,-1.5758,-1.5758,-1.5758,-1.5758,-1.5758,-1.5758,-1.5758,-1.5678,-1.5398,-1.5384,-1.5257,-1.5015,-1.5001,-1.4995,-1.4995,-1.4988,-1.4981,-1.4981,-1.4988,-1.4995,-1.5001,-1.5251,-1.5384,-1.5398,-1.5678,-1.5758,-1.5758,-1.5771,-1.5784,-1.5784,-1.5784,-1.5784,-1.5784,-1.5784,-1.5784,-1.5784,-1.5784,-1.5784,-1.5784,-1.5784,-1.5784,-1.5784,-1.5784,-1.5784,-1.5784,-1.5784,-1.5784,-1.5784,-1.5784,-1.5784,-1.5784,-1.5784,-1.6052,-1.6308,-1.6321,-1.677,-1.7266,-1.7508,-1.7364,-1.6902,-1.6051,-1.4818,-1.3362,-1.1728,-1.0356,-0.9272,-0.8503,-0.8187,-0.7988,-0.7988,-0.7988,-0.7988,-0.7988,-0.7988,-0.7988,-0.7988,-0.7992,-0.7995,-0.7988,-0.7992,-0.7995,-0.7988,-0.7988,-0.7988,-0.7988,-0.7988,-0.7988,-0.7988,-0.7988,-0.7988,-2.0264,0.0,0.0,0.0,0.0,0.0,-1.6944,-1.651,-1.6127,-1.6107,-1.6273,-1.6375,-1.612,-1.6005,-1.5905,-1.5778,-1.5691,-1.5638,-1.5638,-1.5384,-1.5204,-1.5204,-1.5204,-1.5204,-1.5204,-1.5204,-1.5204,-1.5204,-1.5204,-1.517,-1.5129,-1.5129,-1.5095,-1.5015,-1.4756,-1.4643,-1.4643,-1.4436,-1.4329,-1.4329,-1.4543,-1.4643,-1.4656,-1.495,-1.5129,-1.5129,-1.517,-1.5204,-1.5237,-1.5658,-1.5784,-1.5784,-1.5784,-1.5784,-1.5784,-1.5784,-1.5784,-1.5784,-1.5784,-1.5784,-1.5784,-1.5784,-1.5784,-1.5784,-1.5784,-1.5784,-1.5784,-1.5784,-1.5784,-1.5784,-1.5784,-1.5784,-1.5784,-1.5784,-1.5892,-1.6012,-1.6274,-1.6449,-1.6717,-1.7219,-1.7067,-1.6723,-1.6234,-1.5186,-1.3816,-1.2062,-1.0772,-0.9603,-0.8514,-0.8187,-0.7988,-0.7988,-0.7988,-0.7988,-0.7988,-0.7988,-0.7988,-0.7988,-0.8143,-0.8157,-0.7995,-0.8147,-0.8153,-0.7992,-0.7988,-0.7988,-0.7988,-0.7988,-0.7988,-0.7988,-0.7988,-0.7988,0.0,0.0,0.0,0.0,0.0,0.0,-1.7305,-1.683,-1.6448,-1.619,-1.6169,-1.6111,-1.565,-1.561,-1.5503,-1.529,-1.5217,-1.5217,-1.5217,-1.5115,-1.5008,-1.5008,-1.5008,-1.5008,-1.5008,-1.5008,-1.5008,-1.5008,-1.5008,-1.4955,-1.4783,-1.4707,-1.464,-1.464,-1.4429,-1.4342,-1.4342,-1.4168,-1.4088,-1.4088,-1.4262,-1.4342,-1.4349,-1.4643,-1.4776,-1.4783,-1.4955,-1.5008,-1.5035,-1.5331,-1.5538,-1.5658,-1.5785,-1.5784,-1.5784,-1.5784,-1.5784,-1.5784,-1.5784,-1.5784,-1.5784,-1.5784,-1.5784,-1.5784,-1.5784,-1.5784,-1.5784,-1.5784,-1.5784,-1.5784,-1.5784,-1.5784,-1.5784,-1.5784,-1.5784,-1.5831,-1.6052,-1.6086,-1.6266,-1.6854,-1.6965,-1.6795,-1.6545,-1.5654,-1.4461,-1.2971,-1.1388,-1.0042,-0.9013,-0.8375,-0.8015,-0.813,-0.8136,-0.816,-0.8218,-0.8225,-0.8225,-0.8225,-0.8309,-0.8316,-0.8228,-0.8255,-0.8228,-0.8136,-0.8022,-0.7988,-0.7988,-0.7988,-0.7988,-0.7988,-0.7988,-0.7988,0.0,0.0,0.0,0.0,0.0,0.0,-1.8054,-1.7585,-1.7125,-1.673,-1.6462,-1.6088,-1.54,-1.5274,-1.5184,-1.4961,-1.4934,-1.4934,-1.4995,-1.4981,-1.4961,-1.4961,-1.4934,-1.4908,-1.4908,-1.4908,-1.4908,-1.4908,-1.4908,-1.475,-1.4482,-1.4229,-1.4088,-1.4088,-1.4088,-1.4088,-1.4088,-1.4088,-1.4088,-1.4088,-1.4088,-1.4088,-1.4095,-1.4355,-1.4476,-1.4489,-1.475,-1.4908,-1.4914,-1.4948,-1.5104,-1.5424,-1.5678,-1.5751,-1.5784,-1.5784,-1.5784,-1.5784,-1.5784,-1.5784,-1.5784,-1.5784,-1.5784,-1.5784,-1.5784,-1.5784,-1.5784,-1.5784,-1.5784,-1.5784,-1.5784,-1.5784,-1.5784,-1.5784,-1.5784,-1.5784,-1.5784,-1.5784,-1.5985,-1.6506,-1.6847,-1.701,-1.669,-1.6036,-1.5164,-1.406,-1.2144,-1.0578,-0.9737,-0.8722,-0.819,-0.833,-0.8347,-0.8343,-0.8472,-0.8482,-0.8482,-0.8482,-0.8499,-0.8499,-0.8482,-0.836,-0.8337,-0.8323,-0.8116,-0.7988,-0.7988,-0.7988,-0.7988,-0.7988,-0.7988,-0.7988,0.0,0.0,0.0,0.0,0.0,0.0,-1.8319,-1.7777,-1.7187,-1.6581,-1.6349,-1.6022,-1.5337,-1.509,-1.4878,-1.4653,-1.4409,-1.4465,-1.4941,-1.4756,-1.4603,-1.4603,-1.4402,-1.4262,-1.4262,-1.4262,-1.4262,-1.4262,-1.4262,-1.4235,-1.4175,-1.4122,-1.4088,-1.4088,-1.4088,-1.4088,-1.4088,-1.4088,-1.4088,-1.4088,-1.4088,-1.4088,-1.4088,-1.4142,-1.4168,-1.4175,-1.4235,-1.4262,-1.4275,-1.4509,-1.4917,-1.5404,-1.5458,-1.5625,-1.5784,-1.5784,-1.5784,-1.5784,-1.5784,-1.5784,-1.5784,-1.5784,-1.5784,-1.5784,-1.5784,-1.5784,-1.5784,-1.5784,-1.5784,-1.5784,-1.5784,-1.5784,-1.5784,-1.5784,-1.5784,-1.5784,-1.5784,-1.5784,-1.5811,-1.5931,-1.6239,-1.647,-1.6415,-1.6073,-1.5383,-1.4076,-1.2757,-1.1567,-1.0543,-0.9398,-0.8716,-0.88,-0.8595,-0.8452,-0.8479,-0.8482,-0.8482,-0.8482,-0.8598,-0.8611,-0.8486,-0.8455,-0.8387,-0.8323,-0.8116,-0.7988,-0.7988,-0.7988,-0.7988,-0.7988,-0.7988,-0.7988,0.0,0.0,0.0,-2.0147,0.0,0.0,0.0,-1.8554,-1.7991,-1.7326,-1.6899,-1.64,-1.56,-1.5191,-1.49,-1.4509,-1.4388,-1.4409,-1.4703,-1.4489,-1.4302,-1.4302,-1.4175,-1.4088,-1.4088,-1.4088,-1.4088,-1.4088,-1.4088,-1.4088,-1.4088,-1.3948,-1.3868,-1.3868,-1.3868,-1.3868,-1.3868,-1.4015,-1.4088,-1.4088,-1.4088,-1.4088,-1.4088,-1.4088,-1.4088,-1.4088,-1.4088,-1.4088,-1.4095,-1.4249,-1.4563,-1.499,-1.5284,-1.5484,-1.5631,-1.5724,-1.5784,-1.5784,-1.5784,-1.5784,-1.5784,-1.5784,-1.5784,-1.5784,-1.5784,-1.5784,-1.5784,-1.5784,-1.5784,-1.5784,-1.5784,-1.5784,-1.5784,-1.5784,-1.5784,-1.5784,-1.5784,-1.5784,-1.5784,-1.5784,-1.5952,-1.6097,-1.6249,-1.5985,-1.5448,-1.4774,-1.3366,-1.2173,-1.1497,-1.0387,-0.9629,-0.9394,-0.9083,-0.8899,-0.8866,-0.875,-0.871,-0.871,-0.8781,-0.8791,-0.8713,-0.8564,-0.8381,-0.816,-0.8029,-0.7988,-0.7988,-0.7988,-0.7988,-0.7988,-0.7988,-0.7988,0.0,0.0,0.0,0.0,0.0,-2.0186,0.0,0.0,0.0,-1.8327,-1.7651,-1.6927,-1.6064,-1.5533,-1.5082,-1.4608,-1.4482,-1.4472,-1.4472,-1.4271,-1.4108,-1.4162,-1.4122,-1.4088,-1.4088,-1.4088,-1.4088,-1.4088,-1.4035,-1.4001,-1.4001,-1.368,-1.352,-1.352,-1.352,-1.352,-1.352,-1.3794,-1.3921,-1.3921,-1.3975,-1.4001,-1.4001,-1.4062,-1.4088,-1.4088,-1.4088,-1.4088,-1.4088,-1.4088,-1.4222,-1.4489,-1.5023,-1.5297,-1.5424,-1.5658,-1.5785,-1.5784,-1.5784,-1.5784,-1.5784,-1.5784,-1.5784,-1.5784,-1.5784,-1.5784,-1.5784,-1.5784,-1.5784,-1.5784,-1.5784,-1.5784,-1.5784,-1.5784,-1.5784,-1.5784,-1.5784,-1.5784,-1.5784,-1.5784,-1.5784,-1.5905,-1.6146,-1.5834,-1.5544,-1.5409,-1.4047,-1.291,-1.2519,-1.155,-1.0687,-1.0173,-0.9754,-0.9471,-0.9313,-0.9022,-0.8885,-0.8885,-0.8885,-0.8868,-0.8841,-0.8604,-0.8313,-0.7995,-0.7988,-0.7988,-0.7988,-0.7988,-0.7988,-0.7988,-0.7988,-0.7988,0.0,0.0,0.0,0.0,-2.0411,0.0,0.0,0.0,-1.9183,-1.8953,0.0,-1.7416,-1.673,0.0,0.0,-1.5082,-1.4685,-1.4404,-1.4404,-1.4222,-1.4182,-1.4442,-1.4242,-1.4088,-1.4088,-1.4088,-1.4088,-1.4088,-1.38,-1.3653,-1.3653,-1.342,-1.326,-1.326,-1.326,-1.326,-1.326,-1.3293,-1.3307,-1.3313,-1.3533,-1.3653,-1.366,-1.3968,-1.4088,-1.4088,-1.4088,-1.4088,-1.4088,-1.4088,-1.4108,-1.4168,-1.4489,-1.4937,-1.5398,-1.5431,-1.5611,-1.5784,-1.5784,-1.5784,-1.5784,-1.5784,-1.5784,-1.5784,-1.5784,-1.5784,-1.5784,-1.5784,-1.5784,-1.5784,-1.5784,-1.5784,-1.5784,-1.5784,-1.5784,-1.5784,-1.5784,-1.5784,-1.5784,-1.5784,-1.5784,-1.5791,-1.5872,-1.5842,-1.5757,-1.5431,-1.4844,-1.419,-1.3598,-1.2713,-1.1844,-1.1307,-1.0527,-0.992,-0.9599,-0.913,-0.8885,-0.8885,-0.8885,-0.8821,-0.8743,-0.8452,-0.8214,-0.7992,-0.7988,-0.7988,-0.7988,-0.7988,-0.7988,-0.7988,-0.7988,-0.7988,0.0,0.0,0.0,0.0,0.0,0.0,-2.045,0.0,-1.9824,0.0,0.0,0.0,0.0,0.0,0.0,0.0,-1.536,-1.4943,-1.4824,0.0,-1.4291,-1.4249,-1.4162,0.0,-1.4088,-1.4088,-1.4088,-1.4088,-1.3808,-1.36,-1.36,-1.32,-1.2985,-1.2985,-1.2985,-1.2985,-1.2985,-1.312,-1.3213,-1.3213,-1.3293,-1.344,-1.3606,-1.3733,-1.3928,-1.4088,-1.4088,-1.4088,-1.4088,-1.4088,-1.4088,-1.4095,-1.4222,-1.4629,-1.5209,-1.5337,-1.5578,-1.5784,-1.5784,-1.5784,-1.5784,-1.5784,-1.5784,-1.5784,-1.5784,-1.5784,-1.5784,-1.5784,-1.5784,-1.5784,-1.5784,-1.5784,-1.5784,-1.5784,-1.5784,-1.5784,-1.5784,-1.5784,-1.5784,-1.5784,-1.5784,-1.5784,-1.5784,-1.5747,-1.5644,-1.5667,-1.5369,-1.4946,-1.4526,-1.3888,-1.3223,-1.24,-1.1465,-1.0597,-1.0074,-0.9518,-0.9103,-0.894,-0.8885,-0.8828,-0.8587,-0.8459,-0.8282,-0.7995,-0.7988,-0.7988,-0.7988,-0.7988,-0.7988,-0.7988,-0.7988,-0.7988,-1.9912,0.0,0.0,0.0,0.0,0.0,0.0,0.0,0.0,0.0,0.0,0.0,0.0,0.0,0.0,-1.687,0.0,-1.5684,-1.5499,-1.4913,0.0,0.0,-1.4124,0.0,0.0,-1.4088,-1.4055,-1.3975,-1.3653,-1.3447,-1.336,-1.3025,-1.2784,-1.2784,-1.2864,-1.2871,-1.2784,-1.2973,-1.3039,-1.2966,-1.3046,-1.324,-1.3487,-1.3567,-1.3766,-1.4088,-1.4088,-1.4088,-1.4088,-1.4088,-1.4088,-1.4088,-1.4088,-1.4486,-1.5035,-1.5204,-1.5511,-1.5784,-1.5784,-1.5784,-1.5784,-1.5784,-1.5784,-1.5784,-1.5784,-1.5784,-1.5784,-1.5784,-1.5784,-1.5784,-1.5784,-1.5784,-1.5784,-1.5784,-1.5784,-1.5784,-1.5784,-1.5784,-1.5784,-1.5784,-1.5784,-1.5784,-1.5784,-1.5683,-1.5693,-1.5947,-1.5831,-1.565,-1.5399,-1.5027,-1.4407,-1.3461,-1.2323,-1.136,-1.0632,-0.9874,-0.9328,-0.8998,-0.892,-0.8757,-0.8492,-0.8404,-0.8258,-0.7992,-0.7988,-0.7988,-0.7988,-0.7988,-0.7988,-0.7988,-0.7988,-0.7988,0.0,0.0,0.0,-2.0605,0.0,0.0,0.0,0.0,-2.0303,0.0,0.0,0.0,0.0,0.0,0.0,-1.7997,-1.7229,0.0,0.0,0.0,0.0,0.0,0.0,0.0,0.0,-1.4088,-1.3968,0.0,-1.3387,-1.3093,-1.2831,-1.2797,-1.2784,-1.2784,-1.3039,-1.3053,-1.279,-1.2797,-1.2656,-1.2331,-1.2663,-1.2965,-1.3233,-1.3473,-1.3766,-1.4088,-1.4088,-1.4088,-1.4088,-1.4088,-1.4088,-1.4088,-1.4088,-1.4486,-1.5008,-1.5022,-1.5337,-1.5784,-1.5784,-1.5784,-1.5784,-1.5784,-1.5784,-1.5784,-1.5784,-1.5784,-1.5784,-1.5784,-1.5784,-1.5784,-1.5784,-1.5784,-1.5784,-1.5784,-1.5784,-1.5784,-1.5784,-1.5784,-1.5784,-1.5784,-1.5784,-1.5784,-1.5784,-1.5778,-1.5884,-1.6233,-1.6285,-1.6265,-1.6285,-1.5958,-1.5407,-1.4459,-1.3124,-1.198,-1.1208,-1.0197,-0.9483,-0.9204,-0.8876,-0.8648,-0.8489,-0.8204,-0.7998,-0.7988,-0.7988,-0.7988,-0.7988,-0.7988,-0.7988,-0.7988,-0.7988,-0.7988,0.0,0.0,-2.0605,-2.0605,0.0,0.0,0.0,0.0,0.0,0.0,0.0,0.0,0.0,0.0,0.0,0.0,0.0,0.0,0.0,0.0,-1.437,0.0,0.0,0.0,0.0,0.0,0.0,-1.3613,-1.3186,-1.2898,-1.279,-1.2784,-1.2784,-1.2784,-1.3053,-1.316,-1.3053,-1.2891,-1.273,-1.263,-1.2536,-1.265,-1.2951,-1.322,-1.3473,-1.3766,-1.4001,-1.4088,-1.4088,-1.4088,-1.4088,-1.4088,-1.4088,-1.4329,-1.4696,-1.4934,-1.5331,-1.5784,-1.5784,-1.5784,-1.5784,-1.5784,-1.5784,-1.5784,-1.5784,-1.5784,-1.5784,-1.5784,-1.5784,-1.5784,-1.5784,-1.5784,-1.5784,-1.5784,-1.5784,-1.5784,-1.5784,-1.5784,-1.5784,-1.5784,-1.5784,-1.5892,-1.6086,-1.6119,-1.6159,-1.6259,-1.6643,-1.6836,-1.6568,-1.6489,-1.6139,-1.5384,-1.4046,-1.2892,-1.1985,-1.0436,-0.9342,-0.9011,-0.8916,-0.8747,-0.8492,-0.8387,-0.8238,-0.7992,-0.7988,-0.7988,-0.7988,-0.7988,-0.7988,-0.7988,-0.7988,-0.7988,-2.0605,-2.0605,0.0,-2.0605,-2.0605,0.0,-2.0019,0.0,-1.9795,0.0,0.0,0.0,0.0,0.0,0.0,0.0,0.0,0.0,0.0,-1.511,0.0,0.0,0.0,0.0,0.0,0.0,-1.34,-1.3333,-1.3005,-1.2737,-1.263,-1.2831,-1.2951,-1.2951,-1.3307,-1.3474,-1.3327,-1.3166,-1.2998,-1.2784,-1.2589,-1.2596,-1.2797,-1.3066,-1.3367,-1.362,-1.3955,-1.4088,-1.4088,-1.4088,-1.4088,-1.4088,-1.4088,-1.4262,-1.4556,-1.4901,-1.5331,-1.5784,-1.5784,-1.5784,-1.5784,-1.5784,-1.5784,-1.5784,-1.5784,-1.5784,-1.5784,-1.5784,-1.5784,-1.5784,-1.5784,-1.5784,-1.5784,-1.5784,-1.5784,-1.5784,-1.5784,-1.5784,-1.5784,-1.5784,-1.5784,-1.5925,-1.6219,-1.6359,-1.646,-1.6616,-1.6958,-1.7136,-1.7035,-1.6944,-1.6646,-1.6024,-1.4797,-1.344,-1.2055,-1.0575,-0.9574,-0.9185,-0.8968,-0.8743,-0.8492,-0.8381,-0.8235,-0.7992,-0.7988,-0.7988,-0.7988,-0.7988,-0.7988,-0.7988,-0.7988,-0.7988]},{"header":{"parameterUnit":"m.s-1","parameterCategory":1,"la1":30.6,"la2":29.2853,"lo1":-89.7004,"lo2":-87.6739,"dy":0.0162,"dx":0.0183,"nx":112,"ny":82,"refTime":"2023-05-11T00:00:00:Z","depth":0,"parameterNumber":3,"parameterNumberName":"V-component_of_WINDS"},"data":[0.0,0.0,0.0,0.0,0.0,0.0,0.0,0.0,0.0,0.0,0.0,0.0,0.0,0.0,0.0,0.0,0.0,0.0,0.0,0.0,0.0,0.0,0.0,0.0,0.0,0.0,0.0,0.0,0.0,0.0,0.0,0.0,0.0,0.0,0.0,0.0,0.0,0.0,0.0,0.0,0.0,0.0,0.0,0.0,0.0,0.0,0.0,0.0,0.0,0.0,0.0,0.0,0.0,0.0,0.0,0.0,0.0,0.0,0.0,0.0,0.0,0.0,0.0,0.0,0.0,0.0,0.0,0.0,0.0,0.0,0.0,0.0,0.0,0.0,0.0,0.0,0.0,0.0,0.0,0.0,0.0,0.0,0.0,0.0,0.0,0.0,0.0,0.0,0.0,0.0,1.8028,2.0519,2.3147,2.5028,2.5759,2.3879,2.229,2.1454,0.0,0.0,0.0,0.0,0.0,0.0,0.0,0.0,0.0,0.0,0.0,0.0,0.0,0.0,0.0,0.0,0.0,0.0,0.0,0.0,0.0,0.0,0.0,0.0,0.0,0.0,0.0,0.0,0.0,0.0,0.0,0.0,0.0,0.0,0.0,0.0,0.0,0.0,0.0,0.0,0.0,0.0,0.0,0.0,0.0,0.0,0.0,0.0,0.0,0.0,0.0,0.0,0.0,0.0,0.0,0.0,0.0,0.0,0.0,0.0,0.0,0.0,0.0,0.0,0.0,0.0,0.0,0.0,0.0,0.0,0.0,0.0,0.0,0.0,0.0,0.0,0.0,0.0,0.0,0.0,0.0,0.0,0.0,0.0,0.0,0.0,0.0,0.0,0.0,0.0,0.0,0.0,0.0,0.0,0.0,0.0,0.0,0.0,0.0,0.0,0.0,0.0,0.0,0.0,1.8898,2.2994,2.4841,2.6078,2.6814,2.527,2.368,2.23,0.0,0.0,0.0,0.0,0.0,0.0,0.0,0.0,0.0,0.0,0.0,0.0,0.0,0.0,0.0,0.0,0.0,0.0,0.0,0.0,0.0,0.0,0.0,0.0,0.0,0.0,0.0,0.0,0.0,0.0,0.0,0.0,0.0,0.0,0.0,0.0,0.0,0.0,0.0,0.0,0.0,0.0,0.0,0.0,0.0,0.0,0.0,0.0,0.0,0.0,0.0,0.0,0.0,0.0,0.0,0.0,0.0,0.0,0.0,0.0,0.0,0.0,0.0,0.0,0.0,0.0,0.0,0.0,0.0,0.0,0.0,0.0,0.0,0.0,0.0,0.0,0.0,0.0,0.0,0.0,0.0,0.0,0.0,0.0,0.0,0.0,0.0,0.0,0.0,0.0,0.0,0.0,0.0,0.0,0.0,0.0,0.0,0.0,0.0,0.0,0.0,0.0,0.0,1.9278,2.1586,2.4453,2.5947,2.6695,2.6564,2.5413,2.3874,2.1922,2.0353,0.0,0.0,0.0,0.0,0.0,0.0,0.0,0.0,0.0,0.0,0.0,0.0,0.0,0.0,0.0,0.0,0.0,0.0,0.0,0.0,0.0,0.0,0.0,0.0,0.0,0.0,0.0,0.0,0.0,0.0,0.0,0.0,0.0,0.0,0.0,0.0,0.0,0.0,0.0,0.0,0.0,0.0,0.0,0.0,0.0,0.0,0.0,0.0,0.0,0.0,0.0,0.0,0.0,0.0,0.0,0.0,0.0,0.0,0.0,0.0,0.0,0.0,0.0,0.0,0.0,0.0,0.0,0.0,0.0,0.0,0.0,0.0,0.0,0.0,0.0,0.0,0.0,0.0,0.0,0.0,0.0,0.0,0.0,0.0,0.0,0.0,0.0,0.0,0.0,0.0,0.0,0.0,0.0,0.0,0.0,0.0,0.0,0.0,0.0,0.0,0.0,0.0,2.1501,2.3842,2.5398,2.6774,2.7243,2.6355,2.5449,2.3907,2.1533,2.0548,0.0,0.0,0.0,0.0,0.0,0.0,0.0,0.0,0.0,0.0,0.0,0.0,0.0,0.0,0.0,0.0,0.0,0.0,0.0,0.0,0.0,0.0,0.0,0.0,0.0,0.0,0.0,0.0,0.0,0.0,0.0,0.0,0.0,0.0,0.0,0.0,0.0,0.0,0.0,0.0,0.0,0.0,0.0,0.0,0.0,0.0,0.0,0.0,0.0,0.0,0.0,0.0,0.0,0.0,0.0,0.0,0.0,0.0,0.0,0.0,0.0,0.0,0.0,0.0,0.0,0.0,0.0,0.0,0.0,0.0,0.0,0.0,0.0,0.0,0.0,0.0,0.0,0.0,0.0,0.0,0.0,0.0,0.0,0.0,0.0,0.0,0.0,0.0,0.0,0.0,0.0,0.0,0.0,0.0,0.0,0.0,0.0,0.0,0.0,0.0,0.0,0.0,2.2208,2.4271,2.5883,2.7307,2.7784,2.6925,2.5881,2.4239,2.1819,2.0808,0.0,0.0,0.0,0.0,0.0,0.0,0.0,0.0,0.0,0.0,0.0,0.0,0.0,0.0,0.0,0.0,0.0,0.0,0.0,0.0,0.0,0.0,0.0,0.0,0.0,0.0,0.0,0.0,0.0,0.0,0.0,0.0,0.0,0.0,0.0,0.0,0.0,0.0,0.0,0.0,0.0,0.0,0.0,0.0,0.0,0.0,0.0,0.0,0.0,0.0,0.0,0.0,0.0,0.0,0.0,0.0,0.0,0.0,0.0,0.0,0.0,0.0,0.0,0.0,0.0,0.0,0.0,0.0,0.0,0.0,0.0,0.0,0.0,0.0,0.0,0.0,0.0,0.0,0.0,0.0,0.0,0.0,0.0,0.0,0.0,0.0,0.0,0.0,0.0,0.0,0.0,0.0,0.0,0.0,0.0,0.0,0.0,0.0,0.0,0.0,0.0,0.0,2.3148,2.5201,2.68,2.7779,2.778,2.6392,2.5331,2.3699,2.1226,0.0,0.0,0.0,0.0,0.0,0.0,0.0,0.0,0.0,0.0,0.0,0.0,0.0,0.0,0.0,0.0,0.0,0.0,0.0,0.0,0.0,0.0,0.0,0.0,0.0,0.0,0.0,0.0,0.0,0.0,0.0,0.0,0.0,0.0,0.0,0.0,0.0,0.0,0.0,0.0,0.0,0.0,0.0,0.0,0.0,0.0,0.0,0.0,0.0,0.0,0.0,0.0,0.0,0.0,0.0,0.0,0.0,0.0,0.0,0.0,0.0,0.0,0.0,0.0,0.0,0.0,0.0,0.0,0.0,0.0,0.0,0.0,0.0,0.0,0.0,0.0,0.0,0.0,0.0,0.0,0.0,0.0,0.0,0.0,0.0,0.0,0.0,0.0,0.0,0.0,0.0,0.0,0.0,0.0,0.0,0.0,0.0,0.0,0.0,0.0,0.0,0.0,2.178,2.3868,2.5779,2.7424,2.8173,2.7868,2.6207,2.5159,2.3525,2.1024,0.0,0.0,0.0,0.0,0.0,0.0,0.0,0.0,0.0,0.0,0.0,0.0,0.0,0.0,0.0,0.0,0.0,0.0,0.0,0.0,0.0,0.0,0.0,0.0,0.0,0.0,0.0,0.0,0.0,0.0,0.0,0.0,0.0,0.0,0.0,0.0,0.0,0.0,0.0,0.0,0.0,0.0,0.0,0.0,0.0,0.0,0.0,0.0,0.0,0.0,0.0,0.0,0.0,0.0,0.0,0.0,0.0,0.0,0.0,0.0,0.0,0.0,0.0,0.0,0.0,0.0,0.0,0.0,0.0,0.0,0.0,0.0,0.0,0.0,0.0,0.0,0.0,0.0,0.0,0.0,0.0,0.0,0.0,0.0,0.0,0.0,0.0,0.0,0.0,0.0,0.0,0.0,0.0,0.0,0.0,0.0,0.0,0.0,0.0,0.0,0.0,0.0,2.2612,2.4315,2.5965,2.764,2.8476,2.8223,2.6541,2.5539,2.3894,0.0,0.0,0.0,0.0,0.0,0.0,0.0,0.0,0.0,0.0,0.0,0.0,0.0,0.0,0.0,0.0,0.0,0.0,0.0,0.0,0.0,0.0,0.0,0.0,0.0,0.0,0.0,0.0,0.0,0.0,0.0,0.0,0.0,0.0,0.0,0.0,0.0,0.0,0.0,0.0,0.0,0.0,0.0,0.0,0.0,0.0,0.0,0.0,0.0,0.0,0.0,0.0,0.0,0.0,0.0,0.0,0.0,0.0,0.0,0.0,0.0,0.0,0.0,0.0,0.0,0.0,0.0,0.0,0.0,0.0,0.0,0.0,0.0,0.0,0.0,0.0,0.0,0.0,0.0,0.0,0.0,0.0,0.0,0.0,0.0,0.0,0.0,0.0,0.0,0.0,0.0,0.0,0.0,0.0,0.0,0.0,0.0,0.0,0.0,0.0,0.0,0.0,0.0,2.4345,2.5564,2.683,2.8473,2.8794,2.8246,2.6615,2.5084,2.3399,2.1453,0.0,0.0,0.0,0.0,0.0,0.0,0.0,0.0,0.0,0.0,0.0,0.0,0.0,0.0,0.0,0.0,0.0,0.0,0.0,0.0,0.0,0.0,0.0,0.0,0.0,0.0,0.0,0.0,0.0,0.0,0.0,0.0,0.0,0.0,0.0,0.0,0.0,0.0,0.0,0.0,0.0,0.0,0.0,0.0,0.0,0.0,0.0,0.0,0.0,0.0,0.0,0.0,0.0,0.0,0.0,0.0,0.0,0.0,0.0,0.0,0.0,0.0,0.0,0.0,0.0,0.0,0.0,0.0,0.0,0.0,0.0,0.0,0.0,0.0,0.0,0.0,0.0,0.0,0.0,0.0,0.0,0.0,0.0,0.0,0.0,0.0,0.0,0.0,0.0,0.0,0.0,0.0,0.0,0.0,0.0,0.0,0.0,0.0,0.0,0.0,0.0,0.0,2.5081,2.6098,2.7226,2.884,2.8952,2.8299,2.6687,2.4988,2.3293,2.1634,0.0,0.0,0.0,0.0,0.0,0.0,0.0,0.0,0.0,0.0,0.0,0.0,0.0,0.0,0.0,0.0,0.0,0.0,0.0,0.0,0.0,0.0,0.0,0.0,0.0,0.0,0.0,0.0,0.0,0.0,0.0,0.0,0.0,0.0,0.0,0.0,0.0,0.0,0.0,0.0,0.0,0.0,0.0,0.0,0.0,0.0,0.0,0.0,0.0,0.0,0.0,0.0,0.0,0.0,0.0,0.0,0.0,0.0,0.0,0.0,0.0,0.0,0.0,0.0,0.0,0.0,0.0,0.0,0.0,0.0,0.0,0.0,0.0,0.0,0.0,0.0,0.0,0.0,0.0,0.0,0.0,0.0,0.0,0.0,0.0,0.0,0.0,0.0,0.0,0.0,0.0,0.0,0.0,0.0,0.0,0.0,0.0,0.0,0.0,0.0,0.0,0.0,2.5191,2.6209,2.7299,2.884,2.9005,2.8345,2.673,2.5199,2.3565,2.1816,0.0,0.0,0.0,0.0,0.0,0.0,0.0,0.0,0.0,0.0,0.0,0.0,0.0,0.0,0.0,0.0,0.0,0.0,0.0,0.0,0.0,0.0,0.0,0.0,0.0,0.0,0.0,0.0,0.0,0.0,0.0,0.0,0.0,0.0,0.0,0.0,0.0,0.0,0.0,0.0,0.0,0.0,0.0,0.0,0.0,0.0,0.0,0.0,0.0,0.0,0.0,0.0,0.0,0.0,0.0,0.0,0.0,0.0,0.0,0.0,2.5173,2.4369,0.0,0.0,0.0,0.0,0.0,0.0,0.0,0.0,0.0,0.0,0.0,0.0,0.0,0.0,0.0,0.0,0.0,0.0,0.0,0.0,0.0,0.0,0.0,0.0,0.0,0.0,0.0,0.0,0.0,0.0,0.0,0.0,0.0,0.0,0.0,0.0,0.0,0.0,0.0,0.0,2.6025,2.7053,2.7915,2.8895,2.9005,2.8345,2.673,2.5723,2.4162,2.1852,2.0764,0.0,0.0,0.0,0.0,0.0,0.0,0.0,0.0,0.0,0.0,0.0,0.0,0.0,0.0,0.0,0.0,0.0,0.0,0.0,0.0,0.0,0.0,0.0,0.0,0.0,0.0,0.0,0.0,0.0,0.0,0.0,0.0,0.0,0.0,0.0,0.0,0.0,0.0,0.0,0.0,0.0,0.0,0.0,0.0,0.0,0.0,0.0,0.0,0.0,0.0,0.0,0.0,0.0,0.0,0.0,0.0,0.0,0.0,0.0,2.7494,2.6387,0.0,0.0,0.0,0.0,0.0,0.0,0.0,0.0,0.0,0.0,0.0,0.0,0.0,0.0,0.0,0.0,0.0,0.0,0.0,0.0,0.0,0.0,0.0,0.0,0.0,0.0,0.0,0.0,0.0,0.0,0.0,0.0,0.0,0.0,0.0,0.0,0.0,0.0,0.0,0.0,2.6869,2.7879,2.8675,2.9482,2.9574,2.8932,2.731,2.609,2.4685,2.3006,2.1384,0.0,0.0,0.0,0.0,0.0,0.0,0.0,0.0,0.0,0.0,0.0,0.0,0.0,0.0,0.0,0.0,0.0,0.0,0.0,0.0,0.0,0.0,0.0,0.0,0.0,0.0,0.0,0.0,0.0,0.0,0.0,0.0,0.0,0.0,0.0,0.0,0.0,0.0,0.0,0.0,0.0,0.0,0.0,0.0,0.0,0.0,0.0,0.0,0.0,0.0,0.0,0.0,0.0,3.0274,3.1119,3.3161,3.2562,3.2544,3.2862,3.0763,2.948,2.8827,2.8145,0.0,0.0,0.0,0.0,0.0,0.0,0.0,0.0,0.0,0.0,0.0,0.0,0.0,0.0,0.0,0.0,0.0,0.0,0.0,0.0,0.0,0.0,2.7079,2.7365,2.7438,2.7218,2.6403,0.0,0.0,0.0,0.0,0.0,0.0,0.0,0.0,0.0,0.0,0.0,2.7695,2.8712,2.9464,3.0136,3.021,2.9549,2.7945,2.6586,2.5356,2.4263,2.2272,2.1025,0.0,0.0,0.0,0.0,0.0,0.0,0.0,0.0,0.0,0.0,0.0,0.0,0.0,0.0,0.0,0.0,0.0,0.0,0.0,0.0,0.0,0.0,0.0,0.0,0.0,0.0,0.0,0.0,0.0,0.0,0.0,0.0,2.8705,2.8705,0.0,0.0,0.0,0.0,0.0,0.0,0.0,0.0,0.0,0.0,0.0,0.0,0.0,3.1474,3.2275,3.2412,3.3278,3.486,3.4753,3.5545,3.7162,3.7055,3.6678,3.6088,3.5748,0.0,3.0772,3.0034,0.0,0.0,0.0,0.0,0.0,0.0,0.0,0.0,0.0,0.0,0.0,0.0,0.0,0.0,0.0,0.0,0.0,0.0,0.0,0.0,0.0,0.0,2.9042,3.043,3.0772,3.0552,2.9732,2.7915,2.6392,2.6161,2.4997,2.4006,0.0,0.0,0.0,0.0,0.0,0.0,2.8528,2.9537,3.0081,3.0191,3.021,2.9549,2.7945,2.7614,2.6549,2.4337,2.3896,2.3088,2.1684,2.1629,0.0,0.0,0.0,0.0,0.0,0.0,0.0,0.0,0.0,0.0,0.0,0.0,0.0,0.0,0.0,0.0,0.0,0.0,0.0,0.0,0.0,0.0,0.0,0.0,0.0,0.0,0.0,0.0,0.0,2.9406,2.9714,2.9876,2.9552,2.9382,0.0,0.0,0.0,0.0,0.0,0.0,0.0,0.0,0.0,3.3618,3.4309,3.5065,3.5925,3.5971,3.66,3.7742,3.7742,3.8322,3.9425,3.9425,3.9244,3.8865,3.8413,3.7065,3.5026,3.2816,3.1485,3.0794,0.0,0.0,0.0,0.0,2.9003,2.9065,2.9089,2.9126,2.9162,2.9168,0.0,0.0,0.0,0.0,0.0,0.0,0.0,2.8326,2.9934,3.0356,3.0522,3.1231,3.1397,3.1305,3.0944,3.0044,2.8888,2.753,2.6337,2.5548,2.5548,2.4961,0.0,0.0,0.0,2.797,2.9482,3.0766,3.1537,3.1537,3.1146,3.0411,2.9255,2.833,2.7357,2.6282,2.4942,2.3878,2.3189,2.2703,2.2464,0.0,0.0,0.0,0.0,0.0,0.0,0.0,0.0,0.0,0.0,0.0,0.0,0.0,0.0,0.0,0.0,0.0,0.0,0.0,0.0,0.0,0.0,0.0,0.0,0.0,0.0,0.0,0.0,3.0562,3.1151,3.1764,3.1473,3.1355,0.0,0.0,0.0,0.0,0.0,0.0,3.3822,3.4927,3.6025,3.7101,3.7865,3.8672,3.9522,3.9355,3.9665,4.0449,4.0231,4.0559,4.1341,4.1341,4.1232,4.1013,4.0395,3.9701,3.8767,3.5592,3.3698,3.2758,3.2219,3.191,3.1787,3.1787,3.1725,3.1638,3.1638,3.153,3.1397,3.1397,3.0448,2.9354,2.9537,0.0,0.0,0.0,0.0,2.9941,3.1329,3.1715,3.1751,3.1966,3.2021,3.2021,3.2021,3.1843,3.1109,2.9108,2.7915,2.7207,2.7207,2.6859,0.0,0.0,0.0,2.9445,3.0656,3.1849,3.2601,3.2601,3.188,3.1072,3.0265,2.8906,2.8026,2.7805,2.6098,2.5034,2.4814,2.4235,2.3823,2.3639,0.0,0.0,0.0,0.0,0.0,0.0,0.0,0.0,0.0,0.0,0.0,0.0,0.0,0.0,0.0,0.0,0.0,0.0,0.0,0.0,0.0,0.0,0.0,0.0,0.0,0.0,0.0,0.0,0.0,3.4988,3.3988,0.0,0.0,0.0,0.0,3.4001,3.5395,3.6697,3.7761,3.8662,3.989,4.1523,4.1808,4.2315,4.3138,4.2438,4.2508,4.3278,4.2526,4.2581,4.3352,4.3352,4.2948,4.2214,4.2161,4.1702,4.0751,3.8036,3.607,3.4759,3.4723,3.4289,3.3665,3.3665,3.3188,3.2528,3.2528,3.2045,3.1397,3.1397,3.0834,3.0283,3.1048,3.0687,0.0,0.0,3.1286,3.1458,3.2307,3.2528,3.2729,3.3495,3.3678,3.3678,3.3678,3.3091,3.2271,3.1397,2.9953,2.8877,2.8877,0.0,2.7115,2.8656,2.895,2.9849,3.2179,3.2546,3.2601,3.2601,3.188,3.1072,3.0265,2.9427,2.8601,2.7842,2.7688,2.7273,2.6521,2.6437,2.6082,2.5389,2.5407,0.0,0.0,0.0,0.0,0.0,0.0,0.0,0.0,0.0,0.0,0.0,0.0,0.0,0.0,0.0,0.0,0.0,0.0,0.0,0.0,0.0,0.0,0.0,0.0,0.0,0.0,0.0,0.0,3.8148,3.7923,0.0,3.8973,3.8456,3.8312,3.8976,3.9624,4.0364,4.1269,4.2213,4.3013,4.3633,4.4253,4.4728,4.5022,4.4746,4.4764,4.5021,4.4232,4.4268,4.5021,4.4507,4.4397,4.4599,4.4066,4.3387,4.2525,4.1048,3.9527,3.8016,3.6971,3.6399,3.6134,3.5587,3.522,3.4981,3.4981,3.4798,3.4389,3.3293,3.2394,3.1702,3.1458,3.1213,3.1127,3.1953,3.2173,3.2357,3.3164,3.3366,3.344,3.3733,3.3807,3.3807,3.3807,3.3568,3.3293,3.2999,3.1641,3.054,3.054,3.0063,2.9879,3.0467,3.0986,3.1629,3.2491,3.3041,3.3366,3.3366,3.2651,3.1861,3.1035,3.0228,2.9427,2.862,2.8081,2.7699,2.7456,2.6951,2.6551,2.6336,2.6384,2.6303,0.0,0.0,0.0,0.0,0.0,0.0,0.0,0.0,0.0,0.0,0.0,0.0,0.0,0.0,0.0,0.0,0.0,0.0,0.0,0.0,0.0,0.0,0.0,0.0,0.0,3.7302,3.9072,4.1471,4.1566,4.1895,4.3133,4.2847,4.2831,4.3432,4.3579,4.398,4.482,4.5224,4.5553,4.5847,4.6397,4.6709,4.6709,4.6434,4.6305,4.6287,4.5223,4.5131,4.5865,4.5076,4.5149,4.5865,4.5057,4.4397,4.3846,4.3039,4.2066,4.0946,3.9331,3.8707,3.8615,3.7808,3.7331,3.7019,3.6486,3.6303,3.6119,3.5,3.4082,3.3316,3.2779,3.243,3.232,3.2852,3.2999,3.3115,3.366,3.3807,3.3807,3.3807,3.3807,3.3807,3.3807,3.3807,3.3807,3.3807,3.2724,3.1806,3.1806,3.158,3.1488,3.1751,3.2265,3.2693,3.2981,3.349,3.3829,3.3829,3.3125,3.2347,3.155,3.0717,2.9896,2.9076,2.8537,2.8265,2.8349,2.7838,2.7487,2.7307,2.7148,2.7271,2.7662,0.0,0.0,0.0,0.0,0.0,0.0,0.0,0.0,0.0,0.0,0.0,0.0,0.0,0.0,0.0,0.0,0.0,0.0,0.0,0.0,0.0,0.0,0.0,3.8976,3.9932,4.1812,4.4959,4.4769,4.5011,4.6673,4.6837,4.6916,4.7109,4.7109,4.7477,4.8343,4.7626,4.7553,4.8324,4.8343,4.8343,4.8306,4.7516,4.7131,4.7113,4.5517,4.5204,4.5957,4.5149,4.5223,4.592,4.5112,4.4745,4.4654,4.3828,4.3497,4.3386,4.1772,4.1132,4.104,4.023,3.9441,3.856,3.6982,3.6431,3.6413,3.6376,3.5775,3.5078,3.5059,3.4491,3.388,3.388,3.3862,3.3844,3.3844,3.3825,3.3807,3.3807,3.3807,3.3807,3.3807,3.3807,3.3807,3.3807,3.3183,3.2638,3.2638,3.199,3.1733,3.2509,3.2638,0.0,3.3697,3.3855,3.3895,3.3895,3.3259,3.2502,3.1671,3.083,2.9985,2.9163,2.9119,2.9152,2.92,2.927,2.9013,2.838,2.7781,2.7937,2.884,0.0,0.0,0.0,0.0,0.0,0.0,0.0,0.0,0.0,0.0,0.0,0.0,0.0,0.0,0.0,0.0,0.0,0.0,0.0,0.0,0.0,4.1085,4.2176,4.1941,4.3194,4.516,4.7921,4.8088,4.8422,4.9563,4.9655,4.9713,4.9753,4.9753,4.9865,5.0105,4.9903,4.9627,4.9242,4.9243,4.893,4.8324,4.8067,4.7957,4.7957,4.6929,4.6856,4.7609,4.6801,4.6874,4.7572,4.6177,4.5571,4.5461,4.4066,4.3828,4.4213,4.2598,4.1974,4.1882,4.1075,4.0618,4.038,3.9921,3.9405,3.8799,3.823,3.7477,3.6688,3.6119,3.5789,3.5605,3.5605,3.5165,3.4674,3.4674,3.4247,3.3807,3.3807,3.3807,3.3807,3.3807,3.3807,3.3807,3.3807,3.3623,3.3476,3.3476,3.3293,3.322,3.344,3.3476,0.0,3.377,3.3855,3.3895,3.3895,3.3757,3.3112,3.1727,3.137,3.0651,2.9259,2.9218,2.9283,2.9341,2.9461,2.9514,2.9542,2.9471,2.9558,0.0,0.0,0.0,0.0,0.0,0.0,0.0,0.0,0.0,0.0,0.0,0.0,0.0,0.0,0.0,0.0,0.0,0.0,0.0,0.0,0.0,0.0,4.4291,4.5773,4.6704,4.7341,4.8532,5.0719,5.1289,5.1841,5.2729,5.2509,5.2307,5.2307,5.1683,5.1298,5.1298,5.0986,5.0435,4.9629,4.961,4.9169,4.8324,4.8306,4.8306,4.8306,4.748,4.7516,4.8269,4.7113,4.7058,4.77,4.6104,4.5406,4.5296,4.4011,4.3773,4.414,0.0,0.0,0.0,0.0,4.168,4.1095,4.1095,4.0799,4.0322,3.9863,3.8927,3.7918,3.7441,3.6835,3.6303,3.6303,3.5665,3.5004,3.5004,3.4399,3.382,3.3847,3.3842,3.3873,3.3908,3.3921,3.3934,3.3959,3.3972,0.0,3.3972,3.3868,3.3807,3.3807,3.3807,3.3807,3.3807,3.3881,3.3947,3.3947,3.4049,3.3605,3.2344,3.1918,0.0,0.0,0.0,2.9491,2.9645,2.9754,0.0,0.0,0.0,3.0975,3.1333,3.1879,0.0,0.0,3.1917,3.2167,0.0,0.0,0.0,0.0,0.0,0.0,0.0,0.0,0.0,0.0,0.0,0.0,0.0,0.0,0.0,0.0,4.7679,4.9646,5.194,5.1811,5.1977,5.3316,5.4106,5.4821,5.5519,5.4858,5.4399,5.4399,5.2986,5.2142,5.2142,5.1371,0.0,0.0,0.0,4.9169,4.8324,4.8306,4.8306,4.8306,4.7571,4.7608,4.8251,4.6819,4.6526,4.7021,4.548,4.4764,4.4636,4.392,4.3736,4.3956,4.4488,4.5149,4.559,4.4158,4.2671,4.137,4.137,0.0,0.0,4.115,4.0123,3.8946,3.8762,3.7698,3.656,3.656,3.5881,3.5151,3.5151,3.4486,3.382,3.3881,3.3908,3.3947,3.4086,3.4124,3.4148,3.4209,3.4221,3.4221,3.4221,3.4011,3.386,3.386,3.386,3.386,3.386,3.3959,3.4036,3.4036,0.0,0.0,3.3191,3.2474,3.1731,3.0924,3.0272,3.0046,3.0288,3.0373,3.0796,3.1632,3.1725,3.2122,3.2903,3.2994,3.3045,3.3045,3.3045,3.3045,0.0,0.0,0.0,0.0,0.0,0.0,0.0,0.0,0.0,0.0,0.0,0.0,0.0,0.0,0.0,4.8233,5.0625,5.2656,5.3775,5.4932,5.5519,5.517,5.5262,5.5449,5.5596,5.4858,5.4399,5.4399,5.3518,5.2968,5.2968,5.2215,5.1389,5.0582,4.9941,4.9169,4.8324,4.8306,4.8306,4.8306,4.8141,0.0,4.8306,4.7994,4.7572,4.7058,4.6085,4.5296,4.469,4.4544,4.5241,4.6287,4.5168,4.48,4.4892,4.458,4.3864,4.3039,4.3039,4.3039,4.2818,4.1517,4.0893,4.038,3.9093,3.8487,0.0,3.8248,3.7184,3.6046,3.6046,3.4926,3.382,3.3881,3.3934,3.4023,3.4161,3.4221,3.4281,3.434,3.4351,3.4351,3.4351,3.4233,3.4124,3.4124,3.4124,3.4124,3.4124,3.4197,3.4245,3.4245,3.4328,3.408,3.3331,3.3179,3.278,3.1957,3.1928,3.2017,3.2161,3.2242,3.2401,3.2627,3.2628,3.2731,3.2897,3.3603,3.3955,3.3955,3.3955,3.3955,0.0,0.0,0.0,0.0,0.0,0.0,0.0,0.0,0.0,0.0,0.0,4.5493,4.6762,0.0,4.9914,5.1983,5.3466,5.4821,5.6033,5.6895,5.7097,5.6308,5.6547,5.6785,5.6785,5.6069,5.5427,5.5023,5.4252,5.3628,5.3203,5.2435,5.1628,5.0839,5.0033,4.9169,4.8324,4.8306,4.8306,4.8306,4.8306,4.8306,4.8306,4.7865,4.7259,4.6452,4.5663,4.4837,4.4121,4.4544,4.5645,4.7021,4.6214,4.5645,4.5296,4.5296,4.4544,4.3515,4.3515,4.3239,4.2763,4.1974,4.1167,4.0359,3.9533,3.9019,3.8707,3.8707,3.7551,3.6303,3.6303,3.5055,3.3834,3.3921,3.3998,3.4111,3.434,3.4446,3.4534,3.467,3.4693,3.4694,3.4694,3.4643,3.4537,3.434,3.4293,3.4293,3.4293,3.4351,3.4386,3.4386,3.4517,3.4454,3.4072,3.3761,3.327,3.2496,3.2586,3.2707,3.2795,3.2837,3.3063,3.3538,3.3558,3.3776,3.4192,3.4641,3.4853,3.4853,3.4853,3.4853,0.0,0.0,0.0,0.0,0.0,0.0,0.0,4.3505,4.5495,4.587,4.7989,5.0092,5.1057,5.2178,5.3661,5.5743,5.6351,5.6987,5.8272,5.8327,5.7997,5.7354,5.7703,5.7997,5.7997,5.7281,5.6528,5.5868,5.4932,5.4124,5.3482,5.2509,5.1701,5.1041,5.0106,4.9242,4.8563,4.8379,4.8306,4.8306,4.8306,4.8306,4.8288,4.7626,4.6801,4.5847,4.4892,4.4195,4.3773,4.4433,4.5645,4.7094,4.7094,4.6691,4.6104,4.5957,4.4984,4.3681,4.3386,4.2837,4.2249,4.1937,4.0965,3.9863,3.9698,3.9203,3.8707,3.8707,3.7643,3.6523,3.6523,3.5422,3.4325,3.4444,3.4406,3.4426,3.475,3.4762,3.4782,3.4983,3.5018,3.5025,3.5034,3.5043,3.4926,3.4567,3.4531,3.4531,3.4531,3.4564,3.4596,3.4596,3.474,3.484,3.4888,3.4393,3.3843,3.3261,3.3278,3.3348,3.3403,3.3403,3.3749,3.443,3.4449,3.4795,3.55,3.55,3.55,3.55,3.55,3.55,3.644,3.8051,4.0024,4.1057,4.2657,4.4282,0.0,4.6755,4.8087,4.9073,5.0891,5.2771,5.4277,5.5975,5.7449,5.8438,5.932,5.9924,6.0107,5.952,5.9019,5.8927,5.8382,5.7997,5.7997,5.7281,5.6767,5.6675,5.5262,5.4363,5.4271,5.2821,5.1958,5.1867,5.04,4.9555,4.9463,4.8691,4.8306,4.8306,4.8306,4.8306,4.8306,4.8214,4.7352,4.581,4.4287,4.3993,4.4563,4.4672,4.5645,4.7094,4.7094,4.7058,4.6874,4.6159,4.5333,4.436,4.2928,4.2378,4.2066,4.0616,4.0047,3.9772,3.9056,3.8781,3.8707,3.8707,3.8065,3.7364,3.7364,3.6703,3.6038,3.6108,3.5642,3.5243,3.553,3.5152,3.4859,3.5048,3.5081,3.5105,3.5166,3.5174,3.5113,3.4972,3.4925,3.4925,3.4925,3.4935,3.4935,3.4935,3.4953,3.5035,3.516,3.5141,3.5109,3.5096,3.5103,3.5144,3.5205,3.5205,3.525,3.5346,3.5346,3.5404,3.55,3.55,3.55,3.55,3.55,3.55,3.7862,3.9532,4.1502,4.3323,4.5364,4.7304,4.894,5.0686,5.2234,5.3396,5.5088,5.6601,5.7366,5.848,5.9577,6.0365,6.045,6.0401,6.0401,5.9698,5.9019,5.8565,5.8198,5.7997,5.7997,5.7703,5.7299,5.684,5.618,5.539,5.4454,5.3316,5.2472,5.1995,5.0875,5.0288,5.0288,4.9462,4.9058,4.904,4.8545,4.8306,4.8306,4.8306,4.7425,4.581,4.4212,4.3956,4.4691,4.4691,4.5369,4.6452,4.6911,4.7094,4.7058,4.6709,4.5792,4.4617,4.3938,4.2782,4.148,4.0818,3.9955,3.9148,3.8799,3.8707,3.8707,3.8707,3.812,3.7492,3.7492,3.6905,3.6332,3.637,3.6219,3.5985,3.5749,3.5617,3.5486,3.5212,3.5226,3.5304,3.5361,3.5369,3.5354,3.5304,3.5198,3.5113,3.5113,3.5113,3.5122,3.5166,3.5166,3.5207,3.5304,3.5346,3.5383,3.5453,3.546,3.5467,3.55,3.55,3.55,3.55,3.55,3.55,3.55,3.55,3.55,3.55,3.55,3.55,3.8911,4.073,4.28,4.5289,4.768,4.9961,5.1934,5.4038,5.5833,5.6806,5.8239,5.9371,5.9515,6.0015,6.0658,6.1465,6.1117,6.0731,6.0731,6.0052,5.9153,5.8125,5.7795,5.7574,5.7354,5.774,5.7758,5.7171,5.6932,5.629,5.5115,5.4106,5.3261,5.2674,5.1665,5.1132,5.1132,5.0124,4.961,4.9592,4.8728,4.8306,4.8288,4.7847,4.6874,4.5498,4.4085,4.3828,4.4378,4.4378,4.4837,4.5626,4.6214,4.6562,4.6764,4.6764,4.603,4.4947,4.4287,4.2746,4.1022,4.0581,3.9646,3.8707,3.8707,3.8707,3.8707,3.8707,3.8285,3.7841,3.7841,3.7386,3.6978,3.7022,3.6966,3.6793,3.641,3.6377,3.6291,3.5925,3.5997,3.6116,3.6185,3.6192,3.6115,3.5865,3.5714,3.5522,3.5312,3.5273,3.5308,3.5358,3.5358,3.5361,3.542,3.542,3.5453,3.55,3.55,3.55,3.55,3.55,3.55,3.55,3.55,3.55,3.55,3.55,3.55,3.55,3.55,3.55,3.9673,4.1808,4.4255,4.6814,4.9491,5.2042,5.4126,5.6303,5.8024,5.8457,5.9413,6.0219,6.034,6.0382,6.0658,6.1465,6.1575,6.1557,6.1557,6.0878,5.9777,5.818,5.7317,5.6528,5.5739,5.7079,5.7997,5.796,5.7244,5.6785,5.673,5.5225,5.4344,5.4326,5.2784,5.1958,5.1958,5.04,4.961,4.9592,4.8728,4.8306,4.8251,4.6673,4.5516,4.469,4.3864,4.3497,4.3551,4.3551,4.4011,4.4745,4.4746,4.5259,4.5938,4.5938,4.5902,4.5535,4.3185,4.1809,4.0838,3.9294,3.8744,3.8707,3.8707,3.8707,3.8707,3.8707,3.8689,3.867,3.867,3.8652,3.8634,3.8634,3.8147,3.7729,3.7896,3.7539,3.724,3.749,3.7689,3.7851,3.7916,3.7911,3.7642,3.6788,3.6654,3.6358,3.5589,3.5493,3.5493,3.5493,3.5493,3.5493,3.55,3.55,3.55,3.55,3.55,3.55,3.55,3.55,3.55,3.55,3.55,3.55,3.55,3.55,3.55,3.55,3.55,3.55,4.1153,4.3664,4.651,4.9112,5.1827,5.4406,5.6581,5.8299,5.9545,6.0074,6.0133,5.9968,5.9674,5.9171,5.8896,5.9171,5.9208,5.9024,5.8492,5.818,5.7611,5.6528,5.6161,5.5886,5.5633,5.6565,5.7207,5.7207,5.7446,5.7373,5.684,5.5776,5.495,5.4418,5.3371,5.2546,5.1995,5.093,5.0123,4.9592,4.8728,4.8012,4.7461,4.6397,4.5461,4.4672,4.3846,4.3515,4.3515,4.3515,4.3644,4.3956,4.4488,4.4856,4.5168,4.57,4.5571,4.4911,4.3552,4.2213,4.0912,3.9845,3.9148,3.8707,3.8707,3.8707,3.8707,3.8707,3.8707,3.8707,3.8707,3.8707,3.8707,3.8707,3.8608,3.8399,3.8015,3.7959,3.7899,3.7595,3.7729,3.7928,3.7993,3.8007,3.77,3.6827,3.625,3.5808,3.5538,3.55,3.55,3.55,3.55,3.55,3.55,3.55,3.55,3.55,3.55,3.55,3.55,3.55,3.55,3.55,3.55,3.55,3.55,3.55,3.55,3.55,3.55,3.55,4.3031,4.5399,4.7954,5.0566,5.3025,5.5336,5.7251,5.8465,5.9263,5.9526,5.8667,5.7686,5.7093,5.6377,5.5941,5.6235,5.6767,5.695,5.6436,5.662,5.64,5.5299,5.517,5.506,0.0,0.0,5.6069,5.6345,5.7116,5.7226,5.6418,5.5868,5.5225,5.4436,5.3335,5.2527,5.1995,5.0912,4.9958,4.9133,4.8288,4.7443,4.6636,4.5847,4.5039,4.425,4.3718,4.3515,4.3515,4.3515,4.3515,4.3533,4.3754,4.3846,4.3883,4.4103,4.3864,4.337,4.3149,4.2213,4.0912,3.9827,3.9129,3.8707,3.8707,3.8707,3.8707,3.8707,3.8707,3.8707,3.8707,3.8707,3.8707,3.8707,3.8792,3.8806,3.841,3.859,3.8735,3.8458,3.8592,3.8786,3.8873,3.8654,3.8277,3.7719,3.6654,3.5827,3.5538,3.55,3.55,3.55,3.55,3.55,3.55,3.55,3.55,3.55,3.55,3.55,3.55,3.55,3.55,3.55,3.55,3.55,3.55,3.55,3.55,3.55,3.55,3.55,4.5213,4.6938,4.8673,5.1233,5.3207,5.489,5.6234,5.6969,5.7277,5.6881,5.5233,5.3644,0.0,5.226,5.2068,5.2855,5.4289,5.5339,5.539,5.6069,5.6014,0.0,0.0,0.0,0.0,0.0,5.4656,5.5409,5.6253,5.6418,5.5629,5.5556,5.517,5.4363,5.2821,5.1958,5.1887,5.0326,4.9114,4.8306,4.748,4.6672,4.5865,4.5076,4.4268,4.3515,4.3515,4.3515,4.3515,4.3515,4.3478,4.3368,4.2598,4.2268,4.2158,4.137,4.1095,4.1187,4.1937,4.168,4.0783,3.9258,3.8726,3.8707,3.8762,3.8726,3.8707,3.8707,3.8707,3.8707,3.8707,3.8707,3.8707,3.8707,3.881,3.8921,3.9059,3.935,3.9658,3.9943,4.0177,4.0342,4.0474,3.9869,3.9361,3.9304,3.7892,3.6519,3.5673,3.5538,3.55,3.55,3.55,3.55,3.55,3.55,3.55,3.55,3.55,3.55,3.55,3.55,3.55,3.55,3.55,3.55,3.55,3.55,3.55,3.55,3.55,3.55,4.7039,4.8832,5.0706,5.2243,5.3901,5.5251,5.5523,5.5883,5.5766,5.4387,5.2877,5.1475,5.0314,4.959,4.9437,5.0242,5.0798,0.0,5.2747,5.3078,0.0,5.3482,0.0,5.3424,5.3203,5.339,0.0,5.3812,5.5115,5.5812,5.5614,5.5023,5.4344,5.3537,5.2527,5.1428,5.0216,4.915,4.8526,4.8306,4.748,4.6672,4.5865,4.5076,4.4268,4.3515,4.3515,4.3515,4.3515,4.3515,4.3149,4.2598,4.2378,4.1937,4.137,4.1168,4.1095,4.104,4.0653,4.0377,4.0139,3.9735,3.9184,3.8817,3.9405,3.9184,3.8707,3.8707,3.8707,3.8707,3.8707,3.8707,3.8707,3.8707,3.8765,3.8848,3.8993,3.9251,3.9539,3.987,4.0206,4.0466,4.0484,4.0335,3.9996,3.94,3.8911,3.8084,3.6596,3.5865,3.55,3.55,3.55,3.55,3.55,3.55,3.55,3.55,3.55,3.55,3.55,3.55,3.55,3.55,3.55,3.55,3.55,3.55,3.55,3.55,3.55,3.55,4.9644,5.1014,5.2467,5.346,5.4013,5.4235,5.394,5.3428,5.2435,5.0477,4.8851,4.7374,4.5995,4.5872,4.6283,4.7145,0.0,0.0,5.1298,5.2087,5.2692,0.0,5.3185,0.0,5.3185,5.3185,5.3185,5.3185,5.4363,5.4766,5.4072,5.3922,5.3353,5.2197,5.1371,5.0325,4.904,4.8545,4.8306,4.8306,4.7131,4.6342,4.5865,4.4709,4.392,4.3515,4.3515,4.3515,4.3515,4.3515,4.302,4.2268,4.1919,4.1277,4.0543,4.0178,4.0049,3.9976,3.9533,3.9368,3.9423,3.979,3.9588,3.9313,3.9753,3.957,3.9148,3.8799,3.8707,3.8707,3.8707,3.8707,3.8707,3.8707,3.878,3.8862,3.8983,3.921,3.9526,3.9916,4.0215,4.043,4.0481,4.0496,4.0342,3.99,3.9534,3.8957,3.7969,3.6769,3.6038,3.6038,3.5712,3.55,3.55,3.55,3.55,3.55,3.55,3.55,3.55,3.55,3.55,3.55,3.55,3.55,3.55,3.55,3.55,3.55,3.55,3.55,5.2401,5.3112,5.3805,5.4499,5.3696,5.254,5.1869,5.0263,4.8321,4.6119,4.4334,4.2747,4.1417,4.2157,4.3287,4.4236,0.0,4.9462,5.0508,5.194,5.2947,5.3167,5.3185,5.3185,5.3185,5.3185,5.3185,5.3185,5.3757,5.3463,5.2068,5.2656,5.2307,5.0692,4.9848,4.9058,4.8324,4.8306,4.8306,4.8288,4.6673,4.5902,4.5847,4.4232,4.3515,4.3515,4.3515,4.3515,4.3515,4.3515,4.2947,4.2066,4.137,4.0543,3.9662,3.8964,3.8707,3.8707,3.8707,3.8707,3.8836,3.9643,3.9827,3.9753,3.9863,3.9827,3.9588,3.8909,3.8707,3.8707,3.8707,3.8707,3.8707,3.8723,3.8792,3.891,3.8979,3.9224,3.9556,3.9992,4.0196,4.0332,4.0473,4.0496,4.0496,4.0496,3.9919,3.9457,3.9457,3.795,3.6865,3.6865,3.6135,3.5654,3.5654,3.5558,3.55,3.55,3.55,3.55,3.55,3.55,3.55,3.55,3.55,3.55,3.55,3.55,3.55,3.55,3.55,3.55,5.3991,5.4296,5.4313,5.399,5.2815,5.1307,4.9605,4.753,0.0,4.3329,4.1821,4.0687,4.0015,4.0911,4.2065,4.3178,4.5095,4.7239,4.9481,5.0618,5.172,0.0,5.3185,5.3185,5.3185,5.3185,0.0,5.3185,5.2711,5.2289,5.1995,5.2123,5.1463,4.9867,4.8967,4.8453,4.8306,4.8306,4.8306,4.8288,4.6673,4.5902,4.5847,4.4232,4.3515,4.3515,4.3515,4.3515,4.3515,4.3515,4.2635,4.1279,4.115,4.0196,3.8891,3.8762,3.8707,3.8707,3.8707,3.8707,3.8836,3.9643,3.9441,3.9038,3.9698,3.9441,3.8891,3.8744,3.8707,3.8707,3.8707,3.8707,3.8704,3.8762,3.8807,3.8851,3.8964,3.9304,3.9651,3.9962,4.0177,4.0332,4.0473,4.0496,4.0496,4.0496,4.0381,4.0285,4.0285,3.8815,3.7777,3.7777,3.7007,3.6481,3.6481,3.5885,3.55,3.55,3.55,3.55,3.55,3.55,3.55,3.55,3.55,3.55,3.55,3.55,3.55,3.55,3.55,3.55,5.5547,5.5463,5.5024,5.433,5.2177,4.963,4.7566,0.0,0.0,4.0456,3.942,3.8744,3.8285,3.9232,4.0598,4.2177,4.4271,4.6411,4.848,5.0242,5.16,5.237,5.2907,5.3185,5.3185,5.3185,5.3185,5.3185,5.2839,5.2252,5.1426,5.0545,4.9719,4.8948,4.8526,4.8306,4.8306,4.8306,4.8306,4.8288,4.6673,4.5902,4.5847,4.4232,4.3515,4.3515,4.3515,4.3515,4.3515,4.3515,4.2543,4.1095,4.1095,4.0104,3.8707,3.8707,3.8707,3.8707,3.8707,3.8707,3.8836,3.9643,3.9643,3.9405,3.9772,3.9625,3.9239,3.8817,3.8707,3.8707,3.8707,3.8707,3.8814,3.9307,3.9523,3.9703,3.9895,3.9783,3.9721,3.9992,4.0186,4.0332,4.0473,4.0496,4.0496,4.0496,4.0496,4.0496,4.0496,3.9804,3.9142,3.8719,3.7892,3.7199,3.6731,3.6346,3.5942,3.5538,3.55,3.55,3.55,3.55,3.55,3.55,3.55,3.55,3.55,3.55,3.55,3.55,3.55,3.55,5.6275,5.6038,5.526,5.4329,5.1403,4.8139,4.5754,4.2959,0.0,3.819,3.7472,3.7178,3.6881,3.7882,3.9298,0.0,4.3321,4.5563,4.7185,4.9622,5.1347,0.0,5.2587,0.0,5.3164,5.3185,0.0,5.3185,5.2873,5.2142,5.0875,4.9224,4.8306,4.8306,4.8306,4.8306,4.8306,4.8306,4.8214,4.8031,4.6599,4.581,4.559,4.4158,4.3515,4.3515,4.3515,4.3515,4.3515,4.3515,4.2543,4.1095,4.1095,4.0104,3.8707,3.8707,3.8707,3.8707,3.8707,3.8707,3.8836,3.9643,3.99,3.99,3.99,3.99,3.9717,3.8927,3.8817,3.8964,3.8964,3.9093,3.9399,4.0145,4.0392,4.051,4.0772,4.0244,3.9788,4.0071,4.0224,4.0332,4.0473,4.0496,4.0496,4.0496,4.0496,4.0496,4.0496,4.0496,4.0265,3.9631,3.8796,3.8007,3.7315,3.7084,3.6635,3.5808,3.575,3.5673,3.5519,3.55,3.55,3.55,3.55,3.55,3.55,3.55,3.55,3.55,3.55,3.55,5.5226,5.526,5.4346,5.2875,5.0253,4.7212,4.4271,0.0,3.8776,3.7242,3.6496,3.6234,3.6482,3.7524,3.8523,3.9083,4.1357,4.364,4.5314,4.7738,4.9874,5.1348,0.0,0.0,5.302,5.3124,5.3185,5.3185,5.1848,5.0967,5.082,4.9224,4.8306,4.8306,4.8306,4.8306,4.8306,4.8306,4.792,4.7204,4.6324,4.5516,4.4782,4.3901,4.3515,4.3515,4.3515,4.3515,4.3515,4.3515,4.2543,4.1095,4.1095,4.0104,3.8707,3.8707,3.8707,3.8707,3.8707,3.8707,3.8836,3.9643,3.99,3.99,3.99,3.99,3.9717,3.8927,3.9239,3.979,3.979,4.0341,4.0974,4.128,4.096,4.0627,4.0848,4.0316,3.9862,4.0148,4.0252,4.0332,4.0473,4.0496,4.0496,4.0496,4.0496,4.0496,4.0496,4.0496,4.0477,4.04,3.9669,3.915,3.9073,3.8334,3.7507,3.6635,3.6596,3.625,3.5538,3.55,3.55,3.55,3.55,3.55,3.55,3.55,3.55,3.55,3.55,3.55,5.3771,5.3805,5.2959,5.1911,4.9103,4.5805,4.2777,0.0,3.7905,3.64,3.6043,3.6084,3.6339,3.6995,3.7884,3.9022,4.0572,4.2195,4.3748,4.6194,4.8091,4.8846,5.074,0.0,0.0,0.0,5.3103,5.3185,5.172,5.0802,5.0802,4.9224,4.8306,4.8306,4.8306,4.8306,4.8306,4.8306,4.7901,4.7094,4.6287,4.548,4.4654,4.3864,4.3515,4.3515,4.3515,4.3515,4.3515,4.3515,4.2837,4.1772,4.1279,4.071,4.0086,3.9606,3.9735,4.0084,3.9588,3.9423,3.9551,4.0359,4.0616,4.0616,4.0616,4.0286,3.9827,3.9515,3.9643,3.99,3.99,4.0903,4.1956,4.2224,4.1789,4.1416,4.1731,4.0836,4.0048,4.0289,4.036,4.0611,4.1184,4.0854,4.0689,4.12,4.0843,4.0496,4.0496,4.0496,4.0496,4.0496,4.0208,3.9823,3.9342,3.8977,3.8411,3.7546,3.7488,3.7103,3.625,3.6212,3.5981,3.5519,3.55,3.55,3.55,3.55,3.55,3.55,3.55,3.55,5.1505,5.1758,5.12,5.0693,4.7953,4.4705,0.0,0.0,3.7533,3.6231,3.5948,3.5997,3.6174,3.653,3.7251,3.8649,3.9679,4.0824,4.2392,4.4844,4.6636,4.7044,0.0,5.1338,5.1541,5.2462,5.3103,5.3185,5.172,5.0802,5.0802,4.9224,4.8306,4.8306,4.8306,4.8306,4.8306,4.8306,4.7901,4.7094,4.6287,4.548,4.4654,4.3864,4.3515,4.3515,4.3515,4.3515,4.3515,4.3515,4.302,4.2249,4.168,4.1297,4.1022,4.0469,4.0616,4.1022,4.0451,4.0249,4.0396,4.1187,4.1444,4.1515,4.1754,4.1258,4.0561,4.0322,4.0432,4.0653,4.0907,4.1856,4.2818,4.3076,4.2455,4.193,4.2283,4.1182,4.0253,4.0696,4.0822,4.1133,4.2038,4.1681,4.147,4.2085,4.1431,4.0873,4.0873,4.0669,4.0496,4.0496,4.0496,4.0265,3.9708,3.965,3.9284,3.843,3.8373,3.7988,3.7123,3.6846,3.6423,3.5865,3.5846,3.5846,3.5846,3.5846,3.5846,3.5846,3.5615,3.55,4.824,4.9035,4.9035,4.9018,4.6786,4.4209,4.2625,4.0003,3.7702,3.6948,3.6254,3.5839,3.5975,3.6174,3.6602,3.7486,3.8343,3.9517,4.1181,4.3663,4.5681,0.0,4.9354,5.1199,5.1464,5.2538,5.3185,5.3185,5.172,5.0802,5.0802,4.9224,4.8306,4.8306,4.8306,4.8306,4.8306,4.8306,4.7901,4.7094,4.6287,4.548,4.4654,4.3864,4.3515,4.3515,4.3515,4.3515,4.3515,4.3515,4.302,4.2304,4.2286,4.1809,4.1095,4.1095,4.1095,4.1095,4.1095,4.1077,4.1224,4.2029,4.2286,4.2433,4.3222,4.291,4.2121,4.1297,4.1645,4.2451,4.3259,4.3529,4.3649,4.383,4.2865,4.1965,4.2246,4.1193,4.0492,4.1482,4.1686,4.1997,4.2923,4.3085,4.3085,4.3085,4.2335,4.1788,4.1788,4.1027,4.0496,4.0496,4.0496,4.0496,4.0496,4.0496,4.015,3.9342,3.9284,3.8892,3.8027,3.7161,3.6692,3.6692,3.6692,3.6692,3.6692,3.6692,3.6692,3.6673,3.5865,3.55,4.5314,4.6363,4.6752,4.6752,4.5263,4.3267,4.1255,3.9309,3.7702,3.6965,3.6271,3.5817,3.5861,3.6079,3.6449,3.7139,3.8055,3.9247,4.0834,0.0,0.0,4.6466,4.9451,5.1641,5.232,5.2871,5.3185,5.3185,5.172,5.0802,5.0802,4.9224,4.8306,4.8306,4.8306,4.8306,4.8306,4.8306,4.7901,4.7094,4.6287,4.548,4.4654,4.3864,4.3515,4.3515,4.3515,4.3515,4.3515,4.3515,4.3349,4.3057,4.2506,4.2488,4.2671,4.2121,4.2268,4.2653,4.2121,4.1919,4.1974,4.2213,4.2304,4.2451,4.3259,4.2928,4.2249,4.1992,4.2103,4.2488,4.3277,4.3532,4.3582,4.3832,4.3237,4.2534,4.2335,4.2052,4.1798,4.1664,4.2157,4.2881,4.3769,4.3451,4.3297,4.3835,4.322,4.2701,4.2701,4.245,4.2047,4.145,4.1393,4.1143,4.0554,4.0496,4.04,4.015,4.0131,3.9746,3.8911,3.8623,3.82,3.7603,3.7584,3.7584,3.7584,3.7584,3.7276,3.6673,3.5865,3.55,4.2625,4.3656,4.4147,4.4705,4.3707,0.0,4.0468,3.8946,3.7702,3.6965,3.6231,3.5711,3.5711,3.5861,3.6188,3.6888,3.7798,3.8992,4.0687,4.2775,0.0,4.7903,5.0118,5.1773,5.271,5.2995,5.3036,5.2784,5.1536,5.0674,5.0362,4.9058,4.8306,4.8306,4.8306,4.8306,4.8306,4.8306,4.8048,4.7535,4.6434,4.5645,4.5131,4.4011,4.3515,4.3515,4.3515,4.3515,0.0,4.3515,4.3515,4.346,4.2947,4.3057,4.3441,4.2928,4.3057,4.3441,4.2928,4.2745,4.2745,4.2745,4.2745,4.2837,4.3349,4.3149,4.2745,4.2745,4.2745,4.2873,4.3369,4.3515,4.3549,4.3751,4.328,4.2779,4.2634,4.2562,4.2525,4.2508,4.3032,4.3765,4.4635,4.4374,4.4201,4.472,4.4085,4.3547,4.3547,4.3297,4.2893,4.2354,4.2,4.1585,4.1046,4.0689,4.0496,4.0496,4.0496,4.0285,3.9765,3.9457,3.9034,3.8507,3.8488,3.8488,3.8488,3.8488,3.8046,3.718,3.6673,3.6442,0.0,4.0967,4.1373,4.2733,4.2066,4.0849,4.0096,3.8828,0.0,3.6948,3.6163,3.56,3.5622,3.5622,3.5876,3.67,3.7562,3.8818,4.0745,4.3393,4.6571,5.0365,5.1117,5.1706,5.271,5.2934,5.2712,5.205,5.1242,5.0453,4.9647,4.8765,4.8306,4.8306,4.8306,4.8306,4.8306,4.8306,4.8269,4.8214,4.6636,4.5865,4.5755,4.4195,4.3515,4.3515,4.3515,4.3515,4.3515,4.3515,4.3515,4.3515,4.3515,4.3515,4.3515,4.3515,4.3515,4.3515,4.3515,4.3515,4.3515,4.3515,4.3515,4.3515,4.3515,4.3515,4.3515,4.3515,4.3515,4.3515,4.3515,4.3515,4.3532,4.3582,4.319,4.285,4.3048,4.2806,4.2837,4.3814,4.4202,4.4639,4.547,4.5594,4.5594,4.5594,4.4913,4.4393,4.4393,4.3739,4.3258,4.3181,4.2412,4.1865,4.1808,4.0989,4.0496,4.0496,4.0496,4.0496,4.0496,3.9785,3.94,3.94,3.94,3.94,3.94,3.9323,3.8873,3.8084,3.8027,3.8007,3.7466,0.0,3.9597,3.9952,3.9766,3.9326,0.0,3.7702,3.7015,3.6846,3.6163,3.5622,3.5728,3.5751,3.6033,3.6888,3.7843,3.9364,4.1858,4.5361,4.8276,4.9938,5.0923,5.1813,5.271,5.2934,5.2712,5.205,5.1242,5.0453,4.9647,4.8765,4.8306,4.8306,4.8306,4.8306,4.8306,4.8306,4.7975,4.7369,4.6379,4.5571,4.4947,4.3938,4.3515,4.3515,4.3515,4.3515,4.3515,4.3515,4.3515,4.3515,4.3515,4.3515,4.3515,4.3515,4.3515,4.3515,4.3515,4.3515,4.3515,4.3515,4.3515,4.3515,4.3515,4.3515,4.3515,4.3515,4.3515,4.3515,4.3515,4.3515,4.3532,4.3582,4.357,4.3452,4.3106,4.3576,4.4046,4.3939,4.4573,4.5237,4.5549,4.5594,4.5594,4.5594,4.5441,4.5287,4.5287,4.5133,4.4767,4.4085,4.3278,4.2527,4.1865,4.0989,4.0496,4.0496,4.0496,4.0496,4.0496,4.0323,4.0227,4.0227,4.0227,4.0227,4.0227,3.9611,3.9188,3.8977,3.8315,3.8007,3.6129,3.7094,3.8058,3.8413,3.8497,3.8294,3.755,3.71,3.6711,3.6315,3.5932,3.5711,3.5795,3.5861,3.6188,3.705,3.8028,3.9951,4.3553,4.6677,4.9091,5.0398,5.1054,5.1768,5.271,5.2543,5.2121,5.1499,5.0692,4.9866,4.904,4.8563,4.8306,4.8306,4.8306,4.8306,4.8306,4.8306,4.7901,4.7094,4.6287,4.548,4.4654,4.3864,4.3515,4.3515,4.3515,4.3515,4.3515,4.3515,4.3515,4.3515,4.3515,4.3515,4.3515,4.3515,4.3515,4.3515,4.3515,4.3515,4.3515,4.3515,4.3515,4.3515,4.3515,4.3515,4.3515,4.3515,4.3515,4.3515,4.3515,4.3515,4.3515,4.3566,4.3634,4.3654,4.349,4.4013,4.4497,4.4452,4.4972,4.5438,4.5587,4.5594,4.5594,4.5594,4.5594,4.5594,4.5594,4.5594,4.5267,4.4393,4.3585,4.2758,4.1865,4.0989,4.0496,4.0496,4.0496,4.0496,4.0496,4.0496,4.0496,4.0496,4.0496,4.0496,4.0496,4.0054,3.9842,3.9842,3.9381,3.9142,3.56,3.6096,3.6778,3.7398,3.7567,3.7398,3.6755,3.6626,3.6417,3.5735,0.0,3.5817,3.5839,3.6078,3.659,3.758,3.8959,4.1293,4.5302,4.7539,4.935,5.0923,5.1235,5.1706,5.271,5.2098,5.1399,5.0837,5.005,4.9225,4.8361,4.8306,4.8306,4.8306,4.8306,4.8306,4.8306,4.8196,4.77,4.6911,4.6104,4.5296,4.4488,4.3809,4.3515,4.3515,4.3515,4.3515,4.3515,4.3515,4.3515,4.3515,4.3515,4.3515,4.3515,4.3515,4.3515,4.3515,4.3515,4.3515,4.3515,4.3515,4.3515,4.3515,4.3515,4.3515,4.3515,4.3515,4.3515,4.3515,4.3515,4.3515,4.3515,4.3515,4.3531,4.3649,4.3926,4.4196,4.4498,4.4991,4.5235,4.5429,4.5559,4.5586,4.5594,4.5594,4.5594,4.5594,4.5594,4.5594,4.5267,4.4393,4.3585,4.2758,4.1865,4.0989,4.0496,4.0496,4.0496,4.0496,4.0496,4.0496,4.0496,4.0496,4.0496,4.0496,4.0496,4.0496,4.0496,4.0496,4.0496,4.0496,3.56,3.5684,3.5802,3.5921,3.5955,3.5921,3.5802,3.5769,3.5735,3.5616,3.5706,3.5861,3.6096,3.6848,3.7966,3.9569,4.2691,4.5176,4.6018,4.7817,4.9364,5.0184,5.0994,5.1813,5.271,5.2181,5.1501,5.0837,5.005,4.9225,4.8361,4.8306,4.8306,4.8306,4.8306,4.8306,4.8306,4.7608,4.6874,4.6067,4.5278,4.447,4.3681,4.357,4.3515,4.3515,4.3515,4.3515,4.3515,4.3515,4.3515,4.3515,4.3515,4.3515,4.3515,4.3515,4.3515,4.3515,4.3515,4.3515,4.3515,4.3515,4.3515,4.3515,4.3515,4.3515,4.3515,4.3515,4.3515,4.3515,4.3515,4.3515,4.3515,4.3515,4.3515,4.36,4.3865,4.4094,4.4365,4.4846,4.5148,4.5369,4.5485,4.5568,4.5594,4.5594,4.5594,4.5594,4.5594,4.5594,4.5267,4.4393,4.3585,4.2758,4.1865,4.0989,4.0496,4.0496,4.0496,4.0496,4.0496,4.0496,4.0496,4.0496,4.0496,4.0496,4.0496,4.0496,4.0496,4.0496,4.0496,4.0496,3.56,3.56,3.56,3.56,3.5644,3.5706,3.5706,3.6145,3.6507,3.6507,3.707,3.756,3.7707,3.8241,3.9413,4.1644,4.4732,4.7014,4.7569,4.8892,5.0077,5.0813,5.1293,5.1905,5.282,5.1822,5.1046,5.0819,4.9627,4.8728,4.8324,4.8306,4.8306,4.8306,4.8306,4.8306,4.8306,4.7076,4.6269,4.5883,4.5094,4.4287,4.3515,4.3515,4.3515,4.3515,4.3515,4.3515,4.3515,4.3515,4.3515,4.3515,4.3515,4.3515,4.3515,4.3515,4.3515,4.3515,4.3515,4.3515,4.3515,4.3515,4.3515,4.3515,4.3515,4.3515,4.3515,4.3515,4.3515,4.3515,4.3515,4.3515,4.3515,4.3515,4.3515,4.3565,4.3832,4.4017,4.4298,4.4808,4.5091,4.5298,4.5467,4.5559,4.5594,4.5594,4.5594,4.5594,4.5594,4.5594,4.5267,4.4393,4.3585,4.2758,4.1865,4.0989,4.0496,4.0496,4.0496,4.0496,4.0496,4.0496,4.0496,4.0496,4.0496,4.0496,4.0496,4.0496,4.0496,4.0496,4.0496,4.0496,3.56,3.56,3.56,3.5644,3.5711,3.5846,3.606,3.6759,3.7403,3.7615,3.84,3.9076,3.9114,3.9873,4.138,4.4086,4.6428,4.8209,4.9107,5.0098,5.0952,5.1529,5.1788,5.2218,5.2926,5.1556,5.0703,5.0782,4.926,4.8306,4.8306,4.8306,4.8306,4.8306,4.8306,4.8306,4.8306,4.6893,4.6085,4.5883,4.4892,4.4103,4.3515,4.3515,4.3515,4.3515,4.3515,4.3515,4.3515,4.3515,4.3515,4.3515,4.3515,4.3515,4.3515,4.3515,4.3515,4.3515,4.3515,4.3515,4.3515,4.3515,4.3515,4.3515,4.3515,4.3515,4.3515,4.3515,4.3515,4.3515,4.3515,4.3515,4.3515,4.3515,4.3515,4.3548,4.3783,4.3955,4.424,4.4681,4.5014,4.5256,4.5438,4.555,4.5594,4.5594,4.5594,4.5594,4.5594,4.5594,4.5267,4.4393,4.3739,4.2951,4.1885,4.1181,4.0727,4.0516,4.0496,4.0496,4.0496,4.0496,4.0496,4.0496,4.0496,4.0496,4.0496,4.0496,4.0496,4.0496,4.0496,4.0496,3.56,3.56,3.5622,3.5751,3.5795,3.6009,3.6824,3.7256,3.7711,3.8529,3.9006,3.9314,3.9435,4.1678,4.4401,4.713,4.8418,4.9375,5.0198,5.1104,5.1655,5.1624,5.2385,5.2926,5.298,5.1655,5.0782,5.0802,4.926,4.8306,4.8306,4.8306,4.8306,4.8306,4.8306,4.8306,4.8306,4.7443,4.6636,4.5883,4.4323,4.357,4.3515,4.3515,4.3515,4.3515,4.3515,4.3515,4.3515,4.3515,4.3515,4.3515,4.3515,4.3515,4.3515,4.3515,4.3515,4.3515,4.3515,4.3515,4.3515,4.3515,4.3515,4.3515,4.3515,4.3515,4.3515,4.3515,4.3515,4.3515,4.3515,4.3515,4.3515,4.3515,4.3515,4.3513,4.3599,4.3876,4.4166,4.4388,4.4857,4.5235,4.5379,4.5505,4.5594,4.5594,4.5594,4.5594,4.5594,4.5594,4.5267,4.4393,4.4239,4.3566,4.1942,4.1731,4.1354,4.0554,4.0496,4.0496,4.0496,4.0496,4.0496,4.0496,4.0496,4.0496,4.0496,4.0496,4.0496,4.0496,4.0496,4.0496,3.56,3.5667,3.5773,3.5888,3.6444,3.7073,3.7461,3.8583,3.9831,4.0774,4.2026,4.2972,4.3188,4.4937,4.6855,4.8457,4.9893,5.1109,5.1892,5.2401,5.2663,5.2602,5.292,5.3124,5.3124,5.1717,5.0802,5.0802,4.926,4.8306,4.8306,4.8306,4.8306,4.8306,4.8306,4.8306,4.8306,4.7498,4.6691,4.5883,4.4782,4.3975,4.3515,4.3515,4.3515,4.3515,4.3515,4.3515,4.3515,4.3515,4.3515,4.3515,4.3515,4.3515,4.3515,4.3515,4.3515,4.3515,4.3515,4.3515,4.3515,4.3515,4.3515,4.3515,4.3515,4.3515,4.3515,4.3515,4.3515,4.3515,4.3515,4.3515,4.3515,4.3515,4.3515,4.3513,4.3582,4.3798,4.4064,4.4346,4.4726,4.5103,4.5367,4.5486,4.5559,4.5586,4.5594,4.5594,4.5594,4.5594,4.5479,4.5152,4.4624,4.3835,4.2701,4.2604,4.2239,4.1354,4.0804,4.0496,4.0496,4.0496,4.0496,4.0496,4.0496,4.0496,4.0496,4.0496,4.0496,4.0496,4.0496,4.0496,3.5644,3.5756,3.5927,3.6105,3.6994,3.8007,3.8731,4.0129,4.1546,4.2573,4.4095,4.5385,4.5873,4.7077,4.8354,4.9515,5.0934,5.2129,5.2953,5.3143,5.3185,5.3185,5.3185,5.3093,5.2858,5.161,5.0692,5.0435,4.9095,4.8306,4.8306,4.8306,4.8306,4.8306,4.8306,4.8306,4.8306,4.7498,4.6691,4.5883,4.5094,4.4287,4.3515,4.3515,4.3515,4.3515,4.3515,4.3515,4.3515,4.3515,4.3515,4.3515,4.3515,4.3515,4.3515,4.3515,4.3515,4.3515,4.3515,4.3515,4.3515,4.3515,4.3515,4.3515,4.3515,4.368,4.3883,4.3883,4.4048,4.4267,4.4267,4.3882,4.3515,4.3515,4.3515,4.3496,4.3548,4.3751,4.3974,4.4265,4.4629,4.4979,4.5286,4.5429,4.5513,4.5586,4.5594,4.5594,4.5594,4.5594,4.5594,4.5594,4.5075,4.4374,4.3547,4.347,4.3124,4.2258,4.1393,4.0785,4.0516,4.0496,4.0496,4.0496,4.0496,4.0496,4.0496,4.0496,4.0496,4.0496,4.0496,4.0496,3.5756,3.5888,3.6084,3.6419,3.7309,3.87,4.0833,4.1841,4.2609,4.3652,4.4764,4.5855,4.6833,4.7694,4.8794,5.0525,5.1481,5.2289,5.3096,5.3185,5.3185,5.3185,5.3167,5.2858,5.2068,5.1261,5.0453,4.9665,4.8783,4.8306,4.8306,4.8306,4.8306,4.8306,4.8306,4.8306,4.8306,4.748,4.6672,4.5883,4.5094,4.4287,4.3515,4.3515,4.3515,4.3515,4.3515,4.3515,4.3515,4.3515,4.3515,4.3515,4.3515,4.3515,4.3515,4.3515,4.3515,4.3515,4.3515,4.3515,4.3515,4.3515,4.3515,4.3515,4.3515,4.4066,4.4691,4.4691,4.5278,4.5902,4.5902,4.4709,4.3533,4.3497,4.3515,4.3515,4.3515,4.3718,4.3945,4.4079,4.4522,4.4955,4.5159,4.5361,4.5513,4.5586,4.5594,4.5594,4.5594,4.5594,4.5594,4.5594,4.5594,4.5248,4.4393,4.4316,4.397,4.3162,4.2297,4.1431,4.0554,4.0496,4.0496,4.0496,4.0496,4.0496,4.0496,4.0496,4.0496,4.0496,4.0496,4.0496,3.5185,3.5379,3.5731,3.6634,3.8543,4.059,4.2037,4.3471,4.5291,4.8138,4.8991,4.9327,4.9625,5.0321,5.1057,5.1555,5.2325,5.2931,5.3167,5.2711,5.2362,5.2362,5.1867,5.1426,5.1187,5.0417,4.9867,4.9629,4.8783,4.8306,4.8306,4.8306,4.8306,4.8306,4.7736,4.7461,4.7461,4.6673,4.5847,4.5057,4.4801,4.4287,4.3515,4.3515,4.3515,4.3515,4.3515,4.3515,4.3515,4.3515,4.3515,4.3515,4.3515,4.3515,4.3515,4.3515,4.3515,4.3515,4.3515,4.3515,4.3515,4.3515,4.3515,4.3515,4.3515,4.4066,4.4691,4.4691,4.5278,4.5902,4.5902,4.5553,4.5039,4.4488,4.3901,4.3515,4.3515,4.36,4.3749,4.3989,4.4308,4.4649,4.5003,4.5267,4.5448,4.5532,4.5568,4.5594,4.5594,4.5594,4.5594,4.5594,4.5594,4.5498,4.5248,4.521,4.4863,4.3989,4.3701,4.2912,4.147,4.0843,4.0496,4.0496,4.0496,4.0496,4.0496,4.0496,4.0496,4.0496,4.0496,4.0496,3.5545,3.6021,3.6706,3.7931,4.0023,4.2415,4.4862,4.5979,4.7317,5.021,5.0802,5.071,5.038,5.0967,5.1408,5.1059,5.1701,5.2252,5.2252,5.183,5.1518,5.1518,5.1096,5.0674,5.0343,4.9886,4.9463,4.9095,4.86,4.8306,4.8306,4.8306,4.8159,4.7828,4.7351,4.6947,4.6636,4.5828,4.5186,4.4691,4.4378,4.3975,4.3515,4.3515,4.3515,4.3515,4.3515,4.3515,4.3515,4.3515,4.3515,4.3515,4.3515,4.3515,4.3515,4.3515,4.3515,4.3515,4.3515,4.3515,4.3515,4.3515,4.3515,4.3515,4.3515,4.4066,4.4782,4.5094,4.5773,4.6452,4.6764,4.6617,4.6177,4.5369,4.4562,4.3975,4.3975,4.3787,4.3666,4.391,4.4181,4.4484,4.4895,4.5162,4.5361,4.5485,4.5559,4.5594,4.5594,4.5594,4.5594,4.5594,4.5594,4.5594,4.5594,4.5594,4.5383,4.4855,4.4489,4.3855,4.2835,4.1643,4.0854,4.0516,4.0496,4.0496,4.0496,4.0496,4.0496,4.0496,4.0496,4.0496,3.6426,3.7253,3.8384,3.9779,4.1716,4.4407,4.8678,4.9067,4.9014,5.0672,5.1022,5.0765,4.9978,5.0417,5.0637,4.9756,5.0288,5.0802,5.0802,5.0747,5.0692,5.0692,5.0618,5.0288,4.9555,4.9482,4.9132,4.8361,4.8306,4.8269,4.8196,4.8196,4.781,4.7021,4.6911,4.6526,4.5792,4.5002,4.4599,4.458,4.3846,4.3515,4.3515,4.3515,4.3515,4.3515,4.3515,4.3515,4.3515,4.3515,4.3515,4.3515,4.3515,4.3515,4.3515,4.3515,4.3515,4.3515,4.3515,4.3515,4.3515,4.3515,4.3515,4.3515,4.3515,4.4066,4.4856,4.5571,4.6434,4.7278,4.8012,4.77,4.7021,4.6287,4.5461,4.4783,4.4709,4.4229,4.3835,4.3962,4.4202,4.4519,4.489,4.5103,4.5272,4.5485,4.5568,4.5594,4.5594,4.5594,4.5594,4.5594,4.5594,4.5594,4.5594,4.5594,4.5594,4.5594,4.4855,4.4374,4.4297,4.2701,4.147,4.0746,4.0669,4.0669,4.0746,4.0746,4.0746,4.0746,4.0746,4.0746,3.5863,3.6813,3.813,3.9896,4.3722,4.7817,5.076,5.1314,5.1479,5.247,5.2671,5.2435,5.1628,5.1628,5.1463,5.0655,5.0674,5.0802,5.0802,5.0251,4.9867,4.9867,4.9242,4.8783,4.86,4.8581,4.8508,4.8324,4.8306,4.8012,4.7388,4.7351,4.6984,4.6177,4.5553,4.5131,4.4966,4.4158,4.3754,4.3754,4.3588,4.3515,4.3515,4.3515,4.3515,4.3515,4.3515,4.3515,4.3515,4.3515,4.3515,4.3515,4.3515,4.3515,4.3515,4.3515,4.3515,4.3515,4.3515,4.3515,4.3515,4.3515,4.3515,4.3515,4.3515,4.4066,4.4745,4.4911,4.5993,4.7131,4.7314,4.77,4.8012,4.7829,4.6691,4.548,4.4838,4.5075,4.5239,4.4718,4.4869,4.5159,4.5406,4.5299,4.5279,4.5541,4.5586,4.5594,4.5594,4.5594,4.5594,4.5594,4.5594,4.5594,4.5594,4.5594,4.5594,4.5594,4.5421,4.5017,4.4335,4.2701,4.2027,4.2527,4.1873,4.1854,4.2547,4.2547,4.2547,4.2547,4.2547,4.2547,3.6297,3.7566,3.9513,4.2666,4.6481,4.9898,5.161,5.2289,5.2692,5.3115,5.3185,5.2968,5.2142,5.1995,5.161,5.0417,5.0215,5.0086,4.9664,4.9242,4.8967,4.8967,4.8581,4.8306,4.8306,4.8306,4.8306,4.8306,4.7938,4.7535,4.7113,4.6727,4.6159,4.5351,4.4929,4.4525,4.4121,4.3699,4.3515,4.3515,4.3515,4.3515,4.3515,4.3515,4.3515,4.3515,4.3515,4.3515,4.3515,4.3515,4.3515,4.3515,4.3515,4.3515,4.3515,4.3515,4.3515,4.3515,4.3515,4.3515,4.3515,4.3515,4.3515,4.3515,4.3515,4.3791,4.4213,4.4599,4.5296,4.6122,4.6892,4.7406,4.781,4.8214,4.737,4.6361,4.5938,4.5883,4.5809,4.5476,4.5625,4.5736,4.5611,4.5431,4.535,4.5532,4.5577,4.5594,4.5594,4.5594,4.5594,4.5594,4.5594,4.5594,4.5594,4.5594,4.5594,4.5594,4.5594,4.5402,4.4932,4.3682,4.3028,4.3104,4.2643,4.2643,4.3104,4.3104,4.3104,4.3104,4.3104,4.3104,3.6895,3.8743,4.153,4.5781,4.8829,5.1004,5.1811,5.2619,5.3185,5.3185,5.3185,5.2968,5.2142,5.1995,5.1518,5.0051,4.9702,4.9353,4.8636,4.8398,4.8306,4.8306,4.8306,4.8306,4.8306,4.8306,4.8251,4.8104,4.748,4.6984,4.6691,4.6049,4.5314,4.4525,4.4488,4.4176,4.3515,4.3515,4.3515,4.3515,4.3515,4.3515,4.3515,4.3515,4.3515,4.3515,4.3515,4.3515,4.3515,4.3515,4.3515,4.3515,4.3515,4.3515,4.3515,4.3515,4.3515,4.3515,4.3515,4.3515,4.3515,4.3515,4.3515,4.3515,4.3515,4.3515,4.3626,4.4305,4.4581,4.5021,4.6342,4.6892,4.7278,4.792,4.7681,4.7278,4.7131,4.6691,4.6305,4.6286,4.6296,4.6208,4.5762,4.5504,4.5399,4.5485,4.5559,4.5594,4.5594,4.5594,4.5594,4.5594,4.5594,4.5594,4.5594,4.5594,4.5594,4.5594,4.5594,4.5594,4.5594,4.4921,4.4201,4.3547,4.3374,4.3374,4.3528,4.3528,4.3528,4.3528,4.3528,4.3528,3.6736,3.9661,4.3301,4.6245,4.8888,5.1004,5.1811,5.2619,5.3185,5.3185,5.3185,5.2968,5.2142,5.1995,5.1701,5.0784,5.005,4.9555,4.9445,4.8783,4.8306,4.8306,4.8306,4.8306,4.8306,4.8306,4.8012,4.7314,4.7168,4.6489,4.5076,4.4911,4.4488,4.3681,4.3644,4.3608,4.3515,4.3515,4.3515,4.3515,4.3515,4.3515,4.3515,4.3515,4.3515,4.3515,4.3515,4.3515,4.3515,4.3515,4.3515,4.3515,4.3515,4.3515,4.3515,4.3515,4.3515,4.3515,4.3515,4.3515,4.3515,4.3515,4.3515,4.3515,4.3515,4.3515,4.3533,4.3643,4.4158,4.4746,4.4948,4.6049,4.7131,4.7223,4.77,4.7957,4.7241,4.7553,4.7792,4.7095,4.67,4.638,4.6072,4.5589,4.5288,4.5476,4.5559,4.5594,4.5594,4.5594,4.5594,4.5594,4.5594,4.5594,4.5594,4.5594,4.5594,4.5594,4.5594,4.5594,4.5594,4.5498,4.5383,4.5267,4.4509,4.4509,4.5267,4.5267,4.5267,4.5267,4.5267,4.5267,3.7379,3.9802,4.2696,4.5473,4.7746,4.9696,5.102,5.161,5.1867,5.1867,5.1867,5.2032,5.2564,5.2674,5.227,5.1004,5.0508,4.9939,4.9003,4.8545,4.8306,4.8306,4.8306,4.8122,4.7663,4.7626,4.7278,4.6489,4.5993,4.5443,4.4745,4.4268,4.3864,4.3515,4.3515,4.3515,4.3515,4.3515,4.3515,4.3515,4.3515,4.3515,4.3515,4.3515,4.3515,4.3515,4.3515,4.3515,4.3515,4.3515,4.3515,4.3515,4.3515,4.3515,4.3515,4.3515,4.3515,4.3515,4.3515,4.3515,4.3515,4.3515,4.3515,4.3515,4.3515,4.3515,4.3515,4.3515,4.3754,4.4121,4.458,4.5223,4.5865,4.6324,4.7058,4.7516,4.7186,4.7718,4.8233,4.7941,4.7529,4.7074,4.6624,4.6164,4.578,4.5486,4.5523,4.5594,4.5594,4.5594,4.5594,4.5594,4.5594,4.5594,4.5594,4.5594,4.5594,4.5594,4.5594,4.5594,4.5594,4.5594,4.5594,4.5594,4.5229,4.5229,4.5594,4.5594,4.5594,4.5594,4.5594,4.5594,3.784,3.9702,4.1814,4.4205,4.6349,4.8242,4.9788,5.0323,5.0545,5.0765,5.0802,5.1169,5.238,5.2601,5.2215,5.1004,5.0435,4.9738,4.8489,4.7957,4.77,4.77,4.77,4.7462,4.6837,4.6801,4.6452,4.5663,4.5039,4.4617,4.4415,4.3828,4.3515,4.3515,4.3515,4.3515,4.3515,4.3515,4.3515,4.3515,4.3515,4.3515,4.3515,4.3515,4.3515,4.3515,4.3515,4.3515,4.3515,4.3515,4.3515,4.3515,4.3515,4.3515,4.3515,4.3515,4.3515,4.3515,4.3515,4.3515,4.3515,4.3515,4.3515,4.3515,4.3515,4.3515,4.3515,4.3515,4.3515,4.3626,4.425,4.4562,4.4856,4.5461,4.6214,4.6911,4.7314,4.7865,4.8343,4.8476,4.8085,4.7609,4.726,4.6719,4.6169,4.5779,4.562,4.5577,4.5594,4.5594,4.5594,4.5594,4.5594,4.5594,4.5594,4.5594,4.5594,4.5594,4.5594,4.5594,4.5594,4.5594,4.5594,4.5594,4.5594,4.5594,4.5594,4.5594,4.5594,4.5594,4.5594,4.5594,3.7676,3.9484,4.133,4.2619,4.492,4.7139,4.8114,4.9018,4.9886,5.0637,5.0802,5.0839,5.0912,5.093,5.0912,5.082,4.9481,4.8416,4.8324,4.6985,4.6012,4.6012,4.6012,4.6012,4.5975,4.5957,4.5626,4.4837,4.4709,4.4378,4.3606,4.3533,4.3515,4.3515,4.3515,4.3515,4.3515,4.3515,4.3515,4.3515,4.3515,4.3515,4.3515,4.3515,4.3515,4.3515,4.3515,4.3515,4.3515,4.3515,4.3515,4.3515,4.3515,4.3515,4.3515,4.3515,4.3515,4.3515,4.3515,4.3515,4.3515,4.3515,4.3515,4.3515,4.3515,4.3515,4.3515,4.3515,4.3515,4.3515,4.3551,4.4121,4.4727,4.4746,4.5388,4.6379,4.7921,4.8269,4.8343,4.8476,4.7978,4.7629,4.799,4.6976,4.6206,4.6485,4.5947,4.5522,4.5586,4.5594,4.5594,4.5594,4.5594,4.5594,4.5594,4.5594,4.5594,4.5594,4.5594,4.5594,4.5594,4.5594,4.5594,4.5594,4.5594,4.5594,4.5594,4.5594,4.5594,4.5594,4.5594,4.5594,3.6734,3.7968,3.9525,4.1362,4.3078,4.4706,4.6302,4.6965,4.7443,4.825,4.8434,4.8434,4.8434,4.9297,4.9848,4.9297,4.825,4.7351,4.6838,4.6269,4.5902,4.5902,4.5902,4.57,4.5186,4.5131,4.48,4.3993,4.392,4.3791,4.3533,4.3515,4.3515,4.3515,4.3515,4.324,4.2727,4.2213,4.1974,4.1974,4.2488,4.2727,4.2745,4.3259,4.3515,4.3515,4.3515,4.3515,4.3515,4.3515,4.3515,4.3515,4.3515,4.3515,4.3515,4.3515,4.3515,4.3515,4.3515,4.3515,4.3515,4.3515,4.3515,4.3515,4.3515,4.3515,4.3515,4.3515,4.3515,4.3515,4.3515,4.3699,4.4066,4.458,4.4929,4.5571,4.7168,4.7938,4.8306,4.8363,4.8347,4.8244,4.7972,4.7782,4.7422,4.6595,4.6396,4.6166,4.5663,4.5594,4.5594,4.5594,4.5594,4.5594,4.5594,4.5594,4.5594,4.5594,4.5594,4.5594,4.5594,4.5594,4.5594,4.5594,4.5594,4.5594,4.5594,4.5594,4.5594,4.5594,4.5594,4.5594,3.6127,0.0,0.0,0.0,4.1133,4.2464,4.438,4.4912,4.5315,4.6433,4.6672,4.6672,4.6691,4.7388,4.7847,4.7535,4.6838,4.6104,4.5571,4.5259,4.5094,4.5094,4.5094,4.4874,4.436,4.4305,4.4085,4.3551,4.3515,4.3386,4.3112,4.3094,4.2965,4.269,4.269,4.2433,4.1901,4.137,4.1095,4.1113,4.1644,4.1901,4.1919,4.2727,4.3094,4.3112,4.3386,4.3515,4.3515,4.3515,4.3515,4.3515,4.3515,4.3515,4.3515,4.3515,4.3515,4.3515,4.3515,4.3515,4.3515,4.3515,4.3515,4.3515,4.3515,4.3515,4.3515,4.3515,4.3515,4.3515,4.3515,4.3515,4.3626,4.4176,4.4507,4.4984,4.6049,4.7131,4.7994,4.8251,4.8513,4.8602,4.8235,4.8329,4.8056,4.6913,4.6734,4.6446,4.5675,4.5586,4.5594,4.5594,4.5594,4.5594,4.5594,4.5594,4.5594,4.5594,4.5594,4.5594,4.5594,4.5594,4.5594,4.5594,4.5594,4.5594,4.5594,4.5594,4.5594,4.5594,4.5594,4.5594,0.0,0.0,0.0,0.0,3.919,4.0539,4.2409,4.2977,4.3615,4.5352,4.5699,4.5755,4.581,4.5186,4.4911,4.5663,4.5149,4.4635,4.4635,4.3938,4.3441,4.3441,4.3441,4.3441,4.3441,4.3441,4.3441,4.3441,4.3441,4.3075,4.2304,4.2268,4.1919,4.1113,4.1077,4.1058,4.1058,4.104,4.1022,4.1022,4.104,4.1058,4.1077,4.1901,4.2268,4.2304,4.3075,4.3441,4.3441,4.3478,4.3515,4.3515,4.3515,4.3515,4.3515,4.3515,4.3515,4.3515,4.3515,4.3515,4.3515,4.3515,4.3515,4.3515,4.3515,4.3515,4.3515,4.3515,4.3515,4.3515,4.3515,4.3515,4.3515,4.3515,4.4103,4.4654,4.4691,4.592,4.7278,4.8104,4.8364,4.8569,4.8856,4.8469,4.7979,4.7479,4.6957,4.6347,4.5601,4.5559,4.5594,4.5594,4.5594,4.5594,4.5594,4.5594,4.5594,4.5594,4.5614,4.5633,4.5594,4.5614,4.5633,4.5594,4.5594,4.5594,4.5594,4.5594,4.5594,4.5594,4.5594,4.5594,3.5817,0.0,0.0,0.0,0.0,0.0,4.078,4.1252,4.1739,4.2938,4.3668,4.4089,4.4141,4.3975,4.3699,4.3351,4.3112,4.2965,4.2965,4.2268,4.1772,4.1772,4.1772,4.1772,4.1772,4.1772,4.1772,4.1772,4.1772,4.168,4.1425,4.1425,4.1334,4.1113,4.0543,4.023,4.023,3.9662,3.9368,3.9368,3.9955,4.023,4.0267,4.1075,4.1425,4.1425,4.168,4.1772,4.1864,4.302,4.3515,4.3515,4.3515,4.3515,4.3515,4.3515,4.3515,4.3515,4.3515,4.3515,4.3515,4.3515,4.3515,4.3515,4.3515,4.3515,4.3515,4.3515,4.3515,4.3515,4.3515,4.3515,4.3515,4.3515,4.3663,4.3993,4.4563,4.504,4.5773,4.7149,4.7537,4.7887,4.8693,4.8907,4.8581,4.7496,4.7365,4.6938,4.5658,4.5559,4.5594,4.5594,4.5594,4.5594,4.5594,4.5594,4.5594,4.5594,4.6182,4.6259,4.5633,4.6201,4.624,4.5614,4.5594,4.5594,4.5594,4.5594,4.5594,4.5594,4.5594,4.5594,0.0,0.0,0.0,0.0,0.0,0.0,3.933,3.9769,4.0203,4.1232,4.1848,4.2247,4.242,4.2455,4.2307,4.1866,4.1809,4.1809,4.1809,4.1389,4.1095,4.1095,4.1095,4.1095,4.1095,4.1095,4.1095,4.1095,4.1095,4.0948,4.0616,4.027,4.0086,4.0086,3.9643,3.9405,3.9405,3.8927,3.8707,3.8707,3.9184,3.9405,3.9423,4.023,4.0598,4.0616,4.0948,4.1095,4.1168,4.2121,4.269,4.302,4.3369,4.3515,4.3515,4.3515,4.3515,4.3515,4.3515,4.3515,4.3515,4.3515,4.3515,4.3515,4.3515,4.3515,4.3515,4.3515,4.3515,4.3515,4.3515,4.3515,4.3515,4.3515,4.3515,4.3643,4.4103,4.4195,4.469,4.6305,4.693,4.7427,4.8051,4.8719,4.8821,4.7782,4.7662,4.7245,4.61,4.5743,4.5748,4.6105,4.6144,4.6278,4.6605,4.6644,4.6644,4.6644,4.7124,4.7163,4.6663,4.6817,4.6663,4.6144,4.5787,4.5594,4.5594,4.5594,4.5594,4.5594,4.5594,4.5594,0.0,0.0,0.0,0.0,0.0,0.0,3.8064,3.8476,3.8919,3.9896,4.0239,4.0453,4.0783,4.0851,4.0884,4.0967,4.0893,4.0893,4.1058,4.1022,4.0967,4.0967,4.0893,4.082,4.082,4.082,4.082,4.082,4.082,4.0524,3.979,3.9093,3.8707,3.8707,3.8707,3.8707,3.8707,3.8707,3.8707,3.8707,3.8707,3.8707,3.8726,3.9441,3.9772,3.9808,4.0524,4.082,4.0838,4.093,4.1497,4.2378,4.3075,4.3423,4.3515,4.3515,4.3515,4.3515,4.3515,4.3515,4.3515,4.3515,4.3515,4.3515,4.3515,4.3515,4.3515,4.3515,4.3515,4.3515,4.3515,4.3515,4.3515,4.3515,4.3515,4.3515,4.3515,4.3515,4.392,4.5351,4.6287,4.6893,4.7132,4.81,4.8648,4.8043,4.7818,4.7468,4.6811,4.6215,4.6154,4.6942,4.7038,4.7317,4.8048,4.8105,4.8105,4.8105,4.8202,4.8202,4.8105,4.7413,4.6981,4.6904,4.6028,4.5594,4.5594,4.5594,4.5594,4.5594,4.5594,4.5594,0.0,0.0,0.0,0.0,0.0,0.0,3.7046,3.7374,3.7714,3.8133,3.8869,3.9533,3.9824,3.9961,4.0061,4.0123,3.9588,3.9609,4.0912,4.0543,4.012,4.012,3.957,3.9184,3.9184,3.9184,3.9184,3.9184,3.9184,3.9111,3.8946,3.8799,3.8707,3.8707,3.8707,3.8707,3.8707,3.8707,3.8707,3.8707,3.8707,3.8707,3.8707,3.8854,3.8927,3.8946,3.9111,3.9184,3.9221,3.9863,4.0983,4.2323,4.247,4.2928,4.3515,4.3515,4.3515,4.3515,4.3515,4.3515,4.3515,4.3515,4.3515,4.3515,4.3515,4.3515,4.3515,4.3515,4.3515,4.3515,4.3515,4.3515,4.3515,4.3515,4.3515,4.3515,4.3515,4.3515,4.3588,4.3919,4.4617,4.5406,4.6194,4.7181,4.7698,4.7142,4.782,4.8182,4.7556,4.7517,4.7607,4.777,4.7828,4.7932,4.8086,4.8105,4.8105,4.8105,4.8759,4.8836,4.8125,4.7952,4.7567,4.6904,4.6028,4.5594,4.5594,4.5594,4.5594,4.5594,4.5594,4.5594,0.0,0.0,0.0,3.5883,0.0,0.0,0.0,3.671,3.6989,3.7262,3.7844,3.8402,3.8734,3.8938,3.9071,3.9198,3.9263,3.9588,4.0396,3.9808,3.9294,3.9294,3.8946,3.8707,3.8707,3.8707,3.8707,3.8707,3.8707,3.8707,3.8707,3.8322,3.8102,3.8102,3.8102,3.8102,3.8102,3.8505,3.8707,3.8707,3.8707,3.8707,3.8707,3.8707,3.8707,3.8707,3.8707,3.8707,3.8726,3.9148,4.001,4.1185,4.1992,4.2543,4.2947,4.3349,4.3515,4.3515,4.3515,4.3515,4.3515,4.3515,4.3515,4.3515,4.3515,4.3515,4.3515,4.3515,4.3515,4.3515,4.3515,4.3515,4.3515,4.3515,4.3515,4.3515,4.3515,4.3515,4.3515,4.3515,4.3828,4.4378,4.5257,4.6261,4.7019,4.7215,4.7592,4.7931,4.8118,4.835,4.8686,4.9189,4.9307,4.9519,4.9962,4.9625,4.9394,4.9394,4.9798,4.9856,4.9413,4.8567,4.7528,4.6278,4.5825,4.5594,4.5594,4.5594,4.5594,4.5594,4.5594,4.5594,0.0,0.0,0.0,0.0,0.0,3.5861,0.0,0.0,0.0,3.6759,3.711,3.7467,3.7845,3.8087,3.8289,3.843,3.9124,3.9627,3.9627,3.9077,3.8762,3.8909,3.8799,3.8707,3.8707,3.8707,3.8707,3.8707,3.856,3.8469,3.8469,3.7713,3.7272,3.7272,3.7272,3.7272,3.7272,3.79,3.8248,3.8248,3.8395,3.8469,3.8469,3.8634,3.8707,3.8707,3.8707,3.8707,3.8707,3.8707,3.9074,3.9808,4.1277,4.2029,4.2378,4.302,4.3369,4.3515,4.3515,4.3515,4.3515,4.3515,4.3515,4.3515,4.3515,4.3515,4.3515,4.3515,4.3515,4.3515,4.3515,4.3515,4.3515,4.3515,4.3515,4.3515,4.3515,4.3515,4.3515,4.3515,4.3515,4.3699,4.436,4.5342,4.6288,4.7073,4.7233,4.7556,4.8407,4.9049,4.9744,5.0569,5.0771,5.1102,5.1826,5.1164,5.0712,5.0712,5.0712,5.0616,5.0462,4.8798,4.7144,4.5633,4.5594,4.5594,4.5594,4.5594,4.5594,4.5594,4.5594,4.5594,0.0,0.0,0.0,0.0,3.5711,0.0,0.0,0.0,3.6364,3.6506,0.0,3.7242,3.7577,0.0,0.0,3.8289,3.8506,3.8653,3.8653,3.8679,3.8964,3.968,3.9129,3.8707,3.8707,3.8707,3.8707,3.8707,3.8043,3.7639,3.7639,3.6872,3.6431,3.6431,3.6431,3.6431,3.6431,3.6523,3.656,3.6578,3.7309,3.7639,3.7658,3.8377,3.8707,3.8707,3.8707,3.8707,3.8707,3.8707,3.8762,3.8927,3.9808,4.1038,4.2304,4.2396,4.2892,4.3515,4.3515,4.3515,4.3515,4.3515,4.3515,4.3515,4.3515,4.3515,4.3515,4.3515,4.3515,4.3515,4.3515,4.3515,4.3515,4.3515,4.3515,4.3515,4.3515,4.3515,4.3515,4.3515,4.3515,4.3533,4.3608,4.4428,4.5121,4.5295,4.6722,4.7903,4.8217,4.983,5.1046,5.1268,5.1454,5.1634,5.1794,5.1125,5.0712,5.0712,5.0712,5.0346,4.9586,4.7932,4.6586,4.5614,4.5594,4.5594,4.5594,4.5594,4.5594,4.5594,4.5594,4.5594,0.0,0.0,0.0,0.0,0.0,0.0,3.5689,0.0,3.6041,0.0,0.0,0.0,0.0,0.0,0.0,0.0,3.8136,3.8302,3.8368,0.0,3.8737,3.9148,3.8909,0.0,3.8707,3.8707,3.8707,3.8707,3.7936,3.7492,3.7492,3.6266,3.5555,3.5555,3.5555,3.5555,3.5555,3.6046,3.6303,3.6303,3.6648,3.7052,3.7511,3.786,3.8267,3.8707,3.8707,3.8707,3.8707,3.8707,3.8707,3.8726,3.9074,4.0194,4.1645,4.2139,4.28,4.3515,4.3515,4.3515,4.3515,4.3515,4.3515,4.3515,4.3515,4.3515,4.3515,4.3515,4.3515,4.3515,4.3515,4.3515,4.3515,4.3515,4.3515,4.3515,4.3515,4.3515,4.3515,4.3515,4.3515,4.3515,4.3515,4.386,4.4332,4.4863,4.6099,4.7222,4.7884,4.9657,5.113,5.1898,5.1713,5.1798,5.2439,5.1352,5.0653,5.0702,5.0712,5.0067,4.8702,4.7971,4.6971,4.5633,4.5594,4.5594,4.5594,4.5594,4.5594,4.5594,4.5594,4.5594,3.4489,0.0,0.0,0.0,0.0,0.0,0.0,0.0,0.0,0.0,0.0,0.0,0.0,0.0,0.0,3.745,0.0,3.7983,3.8122,3.8103,0.0,0.0,3.8673,0.0,0.0,3.8707,3.8615,3.8395,3.7639,3.707,3.6831,3.5665,3.5004,3.5004,3.5224,3.5243,3.5004,3.5642,3.5826,3.5624,3.5844,3.6376,3.718,3.7401,3.7951,3.8707,3.8707,3.8707,3.8707,3.8707,3.8707,3.8707,3.8707,3.9664,4.1168,4.1772,4.2616,4.3515,4.3515,4.3515,4.3515,4.3515,4.3515,4.3515,4.3515,4.3515,4.3515,4.3515,4.3515,4.3515,4.3515,4.3515,4.3515,4.3515,4.3515,4.3515,4.3515,4.3515,4.3515,4.3515,4.3515,4.3515,4.3515,4.3531,4.3859,4.4722,4.5653,4.6603,4.757,4.9344,5.087,5.1815,5.1576,5.1776,5.2847,5.1702,5.095,5.1029,5.0587,4.9663,4.8163,4.7663,4.6836,4.5614,4.5594,4.5594,4.5594,4.5594,4.5594,4.5594,4.5594,4.5594,0.0,0.0,0.0,3.56,0.0,0.0,0.0,0.0,3.5795,0.0,0.0,0.0,0.0,0.0,0.0,3.69,3.7265,0.0,0.0,0.0,0.0,0.0,0.0,0.0,0.0,3.8707,3.8377,0.0,3.678,3.5973,3.5133,3.5041,3.5004,3.5004,3.5826,3.5862,3.5023,3.5041,3.4656,3.388,3.4674,3.55,3.6358,3.7144,3.7951,3.8707,3.8707,3.8707,3.8707,3.8707,3.8707,3.8707,3.8707,3.9664,4.1095,4.1132,4.2139,4.3515,4.3515,4.3515,4.3515,4.3515,4.3515,4.3515,4.3515,4.3515,4.3515,4.3515,4.3515,4.3515,4.3515,4.3515,4.3515,4.3515,4.3515,4.3515,4.3515,4.3515,4.3515,4.3515,4.3515,4.3515,4.3515,4.3496,4.379,4.4599,4.5514,4.6412,4.7294,4.9113,5.0393,5.0632,5.0974,5.1636,5.2728,5.2157,5.1795,5.1865,5.0337,4.9048,4.8144,4.6528,4.5652,4.5594,4.5594,4.5594,4.5594,4.5594,4.5594,4.5594,4.5594,4.5594,0.0,0.0,3.56,3.56,0.0,0.0,0.0,0.0,0.0,0.0,0.0,0.0,0.0,0.0,0.0,0.0,0.0,0.0,0.0,0.0,3.6365,0.0,0.0,0.0,0.0,0.0,0.0,3.7529,3.6229,3.5316,3.5023,3.5004,3.5004,3.5004,3.5862,3.6156,3.5862,3.5298,3.4857,3.4582,3.4325,3.4637,3.5463,3.6321,3.7144,3.7951,3.8469,3.8707,3.8707,3.8707,3.8707,3.8707,3.8707,3.9368,4.0377,4.0893,4.2121,4.3515,4.3515,4.3515,4.3515,4.3515,4.3515,4.3515,4.3515,4.3515,4.3515,4.3515,4.3515,4.3515,4.3515,4.3515,4.3515,4.3515,4.3515,4.3515,4.3515,4.3515,4.3515,4.3515,4.3515,4.3663,4.4195,4.4287,4.4397,4.4672,4.5883,4.6893,4.7278,4.8401,4.9486,5.0318,5.0221,5.053,5.1655,5.1293,5.1027,5.1106,5.0567,4.9606,4.8163,4.7567,4.6721,4.5614,4.5594,4.5594,4.5594,4.5594,4.5594,4.5594,4.5594,4.5594,3.56,3.56,0.0,3.56,3.56,0.0,3.4675,0.0,3.4286,0.0,0.0,0.0,0.0,0.0,0.0,0.0,0.0,0.0,0.0,3.496,0.0,0.0,0.0,0.0,0.0,0.0,3.6942,3.6633,3.561,3.4876,3.4582,3.5133,3.5463,3.5463,3.656,3.7019,3.674,3.6174,3.5591,3.5004,3.4472,3.4491,3.5041,3.5899,3.6725,3.7547,3.834,3.8707,3.8707,3.8707,3.8707,3.8707,3.8707,3.9184,3.9992,4.0802,4.2121,4.3515,4.3515,4.3515,4.3515,4.3515,4.3515,4.3515,4.3515,4.3515,4.3515,4.3515,4.3515,4.3515,4.3515,4.3515,4.3515,4.3515,4.3515,4.3515,4.3515,4.3515,4.3515,4.3515,4.3515,4.3754,4.4562,4.4947,4.5223,4.5498,4.6434,4.7242,4.761,4.8182,4.8863,4.9687,4.9557,4.9942,5.1197,5.1404,5.1341,5.1115,5.0538,4.9586,4.8163,4.7528,4.6701,4.5614,4.5594,4.5594,4.5594,4.5594,4.5594,4.5594,4.5594,4.5594]}]]